     2              OBSERVATION DATA    GPS                 RINEX VERSION / TYPE
ASHTORIN MIT 12 - NOV - 96 15:05                            PGM / RUN BY / DATE
                                                            COMMENT
--> THIS IS THE START OF A NEW SITE <---                    COMMENT
--> THIS IS THE START OF A NEW SITE <---                    COMMENT
Original Marker Name: GS25                                  COMMENT
Campaign Name: China Lake Nov 1996                          COMMENT
4-Character Station Name: GS25                              COMMENT
6-Character Antenna Code: ASHP12                            COMMENT
Vertical Measurement Point: TGP                             COMMENT
Vertical Offset to Rinex Ref. Point: 0.0640                 COMMENT
Radial Measurement Point: RRP                               COMMENT
Radial Offset to Rinex Ref. Point: 0.0000                   COMMENT
Antenna Height from Field Measurement: 0.2090 m             COMMENT
Additional Antenna Identification Info.:                    COMMENT
Ashtech L1/L2 Revision B (700228DE)                         COMMENT
Original XYZ: -2418325.5500 -4604955.2200 3681171.4000      COMMENT
New XYZ position is based on association with SCEC monument COMMENT
E1F4O4V6+0011. Position of that monument is believed to be  COMMENT
valid to within 1 m horizontally; vertical accuracy         COMMENT
should be no worse than 3-times this value.                 COMMENT
                                                            COMMENT
Revised Rinex header created by UCSD GPS archive for        COMMENT
GSAC on 01-Aug-2000 (2000:214) 21:51:24 GMT                 COMMENT
For assistance contact dagnew@ucsd.edu                      COMMENT
or anderson@python.ucsd.edu                                 COMMENT
                                                            COMMENT
BLM CA 065-94-66 GO25                                       MARKER NAME
gs25                                                        MARKER NUMBER
_BT US DEFENSE MAPPING AGENCY                               OBSERVER / AGENCY
456 ASHTECH Z-XII3 1G001C7                                  REC # / TYPE / VERS
443 ASHTECH GEODETIC P                                      ANT # / TYPE
 -2371482.7420 -4596804.5788  3720997.6559                  APPROX POSITION XYZ
        0.1450        0.0000        0.0000                  ANTENNA: DELTA H/E/N
     1     1     0                                          WAVELENGTH FACT L1/2
     7    L1    L2    C1    P1    P2    D1    D2            # / TYPES OF OBSERV
    30                                                      INTERVAL
  1996    11     4    16    25    0.000000                  TIME OF FIRST OBS
  1996    11     4    22    29   60.000000                  TIME OF LAST OBS
                                                            END OF HEADER
 96 11  4 16 25  0.0000000  0  8 17 31  3 28 23 21  9  1            -0.000132570
     19589.33419     11570.06558  20002943.289           0.0005   20002947.8885
      -732.894        -571.086
    -99961.62419    -60134.78852  22220762.054           0.0005          0.0005
      3802.171        2962.731
    -63149.54319    -35846.10058  19844701.053           0.0005   19844705.6665
      1772.745        1381.360
     28450.98919     16868.94558  19740097.935           0.0005   19740104.7395
     -1069.328        -833.243
       611.74919       288.65258  19698125.631           0.0005   19698130.3985
       -44.075         -34.344
    -48593.26719    -30803.60258  19306325.662           0.0005   19306331.1315
      1947.541        1517.564
    -59404.28919    -35377.37052  22199415.900           0.0005          0.0005
      2235.607        1742.031
   -102843.23919    -63101.23258  20073420.318           0.0005   20073424.7745
      3988.198        3107.687
 96 11  4 16 25 30.0000000  3  2
GS25                                                        MARKER NAME
--> THIS IS THE START OF A NEW SITE <---                    COMMENT
 96 11  4 16 25 30.0000000  0  8 17 31  3 28 23 21  9  1            -0.000145255
     41694.717 9     28794.99848  20007148.956    20007147.5385   20007154.4774
      -740.890        -577.317
   -213885.553 9   -148906.73456  22199085.644           0.0005   22199089.8915
      3792.475        2955.175
   -116096.307 9    -77103.34048  19834627.337    19834623.8705   19834630.2304
      1756.740        1368.888
     60713.028 9     42008.16648  19746240.989    19746237.6905   19746244.0614
     -1081.617        -842.818
      1941.093 9      1324.48448  19698379.010    19698377.2655   19698383.5524
       -44.826         -34.929
   -106951.751 9    -76277.74848  19295222.231    19295218.9645   19295225.8704
      1943.084        1514.091
   -126291.757 9    -87497.13757  22186687.086           0.0005   22186692.6035
      2223.395        1732.515
   -222346.444 9   -156220.60348  20050676.980    20050676.9355   20050684.0954
      3978.626        3100.228
 96 11  4 16 26  0.0000000  0  8 17 31  3 28 23 21  9  1             0.000693741
     64002.864 9     46177.94248  21810148.500    21810147.3924   21810154.3514
      -747.212        -582.243
   -327514.766 9   -237448.97846  23976217.586    23976215.3345   23976222.2854
      3783.618        2948.274
   -168565.960 9   -117988.80148  21623395.695    21623393.9784   21623400.3484
      1741.438        1356.965
     93308.212 9     67406.988 9  21551194.236    21551195.141    21551201.507
     -1092.253        -851.106
      3269.356 9      2359.48148  21497387.199    21497384.7704   21497391.0974
       -44.272         -34.498
   -165207.608 9   -121671.92548  21082889.153    21082888.0014   21082894.8934
      1940.968        1512.443
   -192816.673 9   -139334.70947  23972781.933    23972781.1635   23972787.8904
      2212.058        1723.682
   -341577.474 9   -249127.88648  21826745.009    21826742.7274   21826749.9504
      3971.216        3094.454
 96 11  4 16 26 30.0000000  0  8 17 31  3 28 23 21  9  1             0.000669678
     86525.327 9     63727.88958  21814432.008    21814433.3175   21814440.2625
      -754.407        -587.850
   -440878.774 9   -325784.56856  23954644.972    23954642.6485   23954649.7535
      3773.742        2940.578
   -220563.872 9   -158506.66558  21613500.284    21613499.1535   21613505.5055
      1724.821        1344.016
    126242.535 9     93070.07319  21557460.674    21557462.3611   21557468.7401
     -1103.603        -859.950
      4608.807 9      3403.19858  21497640.332    21497639.6965   21497646.0095
       -45.498         -35.453
   -223393.060 9   -167011.23958  21071816.963    21071815.7095   21071822.5855
      1937.749        1509.934
   -258990.215 9   -190898.47857  23960194.407    23960188.6465   23960195.4895
      2199.376        1713.799
   -460587.481 9   -341862.93858  21804099.565    21804095.8825   21804103.1035
      3962.456        3087.628
 96 11  4 16 27  0.0000000  0  8 17 31  3 28 23 21  9  1             0.000645614
    109296.557 9     81471.67148  21818766.697    21818766.5684   21818773.5194
      -764.446        -595.672
   -553912.979 9   -413863.18046  23933134.047    23933132.9614   23933140.0374
      3761.129        2930.750
   -272024.122 9   -198605.57648  21603707.725    21603706.5704   21603712.9644
      1704.984        1328.559
    159543.459 9    119018.819 9  21563799.102    21563799.343    21563805.726
     -1117.209        -870.552
      6038.380 9      4517.14148  21497912.351    21497911.7134   21497918.0684
       -50.532         -39.376
   -281453.309 9   -212252.99048  21060768.751    21060767.2364   21060774.0884
      1932.292        1505.682
   -324764.845 9   -242151.40247  23947675.601    23947672.0544   23947678.9364
      2184.938        1702.549
   -579312.921 9   -434376.24748  21781505.960    21781503.1924   21781510.4064
      3951.907        3079.408
 96 11  4 16 27 30.0000000  0  8 17 31  3 28 23 21  9  1             0.000621511
    132338.581 9     99426.46848  21823152.042    21823151.3674   21823158.3334
      -772.037        -601.587
   -666598.067 9   -501669.74146  23911691.079    23911689.7254   23911696.8134
      3750.809        2922.708
   -322910.271 9   -238257.13648  21594024.433    21594023.2554   21594029.6554
      1687.098        1314.622
    193220.622 9    145260.729 9  21570208.434    21570207.937    21570214.312
     -1128.312        -879.204
      7588.828 9      5725.26648  21498207.618    21498206.7524   21498213.1344
       -53.117         -41.390
   -339390.747 9   -257399.05148  21049743.762    21049742.1274   21049748.9694
      1929.808        1503.746
   -390141.085 9   -293093.90347  23935233.924    23935231.3584   23935238.2654
      2173.214        1693.414
   -697752.821 9   -526667.07148  21758967.194    21758964.8574   21758972.0354
      3943.512        3072.866
 96 11  4 16 28  0.0000000  0  8 17 31  3 28 23 21  9  1             0.000597369
    155628.847 9    117574.69348  21827584.329    21827583.4174   21827590.3834
      -780.717        -608.351
   -778945.550 9   -589213.23546  23890311.626    23890310.7574   23890317.8634
      3739.028        2913.528
   -373232.580 9   -277469.33748  21584448.473    21584447.2774   21584453.6754
      1668.010        1299.748
    227256.585 9    171782.234 9  21576685.590    21576684.807    21576691.184
     -1140.745        -888.892
      9247.129 9      7017.43648  21498523.500    21498522.3254   21498528.6994
       -57.323         -44.667
   -397220.056 9   -302460.85248  21038739.145    21038737.5864   21038744.4344
      1925.294        1500.229
   -455143.558 9   -343745.16047  23922864.022    23922861.7734   23922868.7014
      2160.314        1683.361
   -815906.042 9   -618734.49248  21736483.184    21736481.0754   21736488.2404
      3933.158        3064.798
 96 11  4 16 28 30.0000000  0  8 17 31  3 28 23 21  9  1             0.000573152
    179160.419 9    135910.93848  21832062.398    21832061.3734   21832068.3334
      -787.654        -613.756
   -890976.439 9   -676510.03446  23868992.898    23868992.0584   23868999.1564
      3729.795        2906.334
   -423016.436 9   -316261.96448  21574974.882    21574973.7784   21574980.1504
      1651.277        1286.709
    261644.728 9    198578.157 9  21583229.631    21583228.690    21583235.073
     -1151.534        -897.299
     11008.584 9      8389.98548  21498858.816    21498857.5644   21498863.9264
       -59.651         -46.481
   -454917.759 9   -347420.10548  21027759.606    21027758.0954   21027764.9314
      1921.507        1497.278
   -519781.627 9   -394112.47747  23910563.590    23910561.5774   23910568.5324
      2149.275        1674.760
   -933760.721 9   -710569.28748  21714056.073    21714054.0864   21714061.2394
      3924.109        3057.747
 96 11  4 16 29  0.0000000  0  8 17 31  3 28 23 21  9  1             0.000548861
    202938.941 9    154439.61448  21836587.445    21836586.2934   21836593.2814
      -796.486        -620.638
  -1002680.468 9   -763552.14246  23847736.883    23847735.5494   23847742.5944
      3718.324        2897.395
   -472264.873 9   -354637.38248  21565603.193    21565602.1494   21565608.5284
      1633.267        1272.676
    296393.456 9    225655.056 9  21589842.189    21589841.189    21589847.586
     -1163.913        -906.945
     12865.600 9      9836.99748  21499212.326    21499210.9804   21499217.3264
       -62.830         -48.958
   -512468.256 9   -392264.64848  21016808.149    21016806.6184   21016813.4594
      1916.478        1493.359
   -584064.647 9   -444203.12447  23898330.685    23898328.9204   23898335.8734
      2137.233        1665.376
  -1051314.454 9   -802169.59148  21691686.162    21691684.3624   21691691.4824
      3913.843        3049.748
 96 11  4 16 29 30.0000000  0  8 17 31  3 28 23 21  9  1             0.000524475
    226931.913 9    173135.40848  21841153.208    21841152.0524   21841159.0344
      -803.107        -625.798
  -1114099.930 9   -850372.50046  23826534.764    23826533.1554   23826540.1484
      3709.482        2890.505
   -521039.082 9   -392643.26748  21556321.790    21556320.7584   21556327.1444
      1618.248        1260.972
    331462.399 9    252981.475 9  21596515.684    21596514.609    21596521.029
     -1174.052        -914.846
     14752.794 9     11307.53048  21499571.476    21499570.1204   21499576.4854
       -63.000         -49.091
   -569916.120 9   -437029.22048  21005876.204    21005874.6704   21005881.5254
      1913.235        1490.832
   -648029.845 9   -494046.12747  23886158.408    23886156.7184   23886163.7064
      2126.891        1657.318
  -1168597.657 9   -893559.08048  21669367.782    21669366.1044   21669373.2444
      3904.893        3042.774
 96 11  4 16 30  0.0000000  0  8 17 31  3 28 23 21  9  1             0.000500008
    251163.432 9    192017.08048  21845764.403    21845763.2104   21845770.1994
      -811.161        -632.074
  -1225203.708 9   -936946.87646  23805392.603    23805390.8374   23805397.8534
      3698.447        2881.907
   -569314.355 9   -430260.37748  21547135.239    21547134.2764   21547140.6694
      1601.294        1247.762
    366878.581 9    280578.465 9  21603255.222    21603254.116    21603260.560
     -1185.801        -924.001
     16691.092 9     12817.87948  21499940.408    21499938.9944   21499945.3664
       -65.046         -50.685
   -627204.769 9   -481669.73148  20994974.535    20994973.0004   20994979.8574
      1907.342        1486.241
   -711628.525 9   -543603.54247  23874055.948    23874054.3744   23874061.2314
      2114.133        1647.376
  -1285563.839 9   -984701.53548  21647109.767    21647108.1674   21647115.3124
      3894.171        3034.419
 96 11  4 16 30 30.0000000  0  8 17 31  3 28 23 21  9  1             0.000475480
    275651.561 9    211098.70448  21850424.418    21850423.1854   21850430.2054
      -819.912        -638.892
  -1335962.968 9  -1023252.79146  23784315.852    23784314.0904   23784321.1424
      3686.705        2872.757
   -617071.894 9   -467474.05648  21538047.360    21538046.3514   21538052.7514
      1583.827        1234.151
    402651.919 9    308453.763 9  21610062.718    21610061.591    21610068.056
     -1197.675        -933.253
     18694.934 9     14379.30448  21500321.800    21500320.3354   21500326.7104
       -67.101         -52.286
   -684320.118 9   -526175.20148  20984105.975    20984104.3284   20984111.2034
      1901.967        1482.052
   -774832.235 9   -592853.17747  23862028.651    23862027.1394   23862033.9934
      2100.766        1636.961
  -1402203.648 9  -1075589.67848  21624913.903    21624912.3484   21624919.4804
      3883.281        3025.933
 96 11  4 16 31  0.0000000  0  8 17 31  3 28 23 21  9  1             0.000450919
    300404.146 9    230386.40148  21855134.728    21855133.4824   21855140.5214
      -830.673        -647.278
  -1446356.875 9  -1109274.01746  23763308.906    23763306.8174   23763313.9094
      3672.757        2861.889
   -664299.267 9   -504274.61948  21529060.269    21529059.3114   21529065.7174
      1564.380        1218.997
    438784.454 9    336608.958 9  21616938.621    21616937.422    21616943.913
     -1211.509        -944.033
     20768.577 9     15995.12148  21500716.406    21500714.9394   21500721.3204
       -71.533         -55.740
   -741284.785 9   -570563.25548  20973265.919    20973264.3244   20973271.2224
      1895.368        1476.910
   -837623.484 9   -641781.41447  23850079.822    23850078.3444   23850085.2424
      2084.762        1624.490
  -1518510.548 9  -1166218.42348  21602781.437    21602779.8784   21602787.0184
      3870.154        3015.704
 96 11  4 16 31 30.0000000  0  8 17 31  3 28 23 21  9  1             0.000426359
    325471.997 9    249919.76248  21859905.015    21859903.7744   21859910.8394
      -840.372        -654.835
  -1556351.296 9  -1194983.94447  23742377.780    23742375.5954   23742382.7054
      3660.130        2852.049
   -710947.232 9   -540623.69648  21520183.484    21520182.4984   21520188.9214
      1545.423        1204.226
    475326.204 9    365083.019 9  21623892.353    21623891.123    21623897.629
     -1224.460        -954.125
     22966.527 9     17707.80248  21501134.575    21501133.2174   21501139.6114
       -74.855         -58.329
   -798050.377 9   -614796.18548  20962463.798    20962462.2474   20962469.1114
      1889.198        1472.102
   -899920.860 9   -690324.81847  23838225.052    23838223.6014   23838230.5024
      2068.525        1611.838
  -1634420.832 9  -1256538.11348  21580724.460    21580722.8894   21580730.0404
      3857.413        3005.776
 96 11  4 16 32  0.0000000  0  8 17 31  3 28 23 21  9  1             0.000401788
    350818.329 9    269670.11148  21864728.301    21864727.0624   21864734.1264
      -850.116        -662.428
  -1665966.796 9  -1280398.61947  23721518.332    23721516.5054   23721523.5544
      3646.916        2841.753
   -757028.316 9   -576531.05448  21511414.455    21511413.5514   21511419.9954
      1526.095        1189.165
    512247.281 9    393852.656 9  21630918.200    21630917.003    21630923.546
     -1237.610        -964.371
     25259.112 9     19494.22248  21501570.913    21501569.4994   21501575.8964
       -78.602         -61.248
   -854641.787 9   -658893.39248  20951694.791    20951693.3124   20951700.1604
      1883.061        1467.320
   -961738.719 9   -738494.58447  23826461.413    23826460.0324   23826466.9164
      2052.145        1599.074
  -1749960.851 9  -1346569.28548  21558737.842    21558736.3454   21558743.5064
      3844.650        2995.831
 96 11  4 16 32 30.0000000  0  8 17 31  3 28 23 21  9  1             0.000377212
    376457.611 9    289648.73648  21869607.384    21869606.0984   21869613.1574
      -859.302        -669.586
  -1775199.244 9  -1365514.80847  23700732.399    23700730.3274   23700737.3074
      3635.006        2832.472
   -802552.910 9   -612004.78348  21502751.473    21502750.5314   21502757.0004
      1508.650        1175.571
    549554.08119    422922.79615  21638017.468    21638016.2331          0.0001
     -1249.696        -973.789
     27648.974 9     21356.44748  21502025.722    21502024.2804   21502030.6974
       -80.777         -62.943
   -911071.598 9   -702864.67948  20940956.579    20940955.1214   20940961.9434
      1878.679        1463.906
  -1023085.847 9   -786297.54847  23814787.401    23814786.0704   23814792.9604
      2037.510        1587.670
  -1865120.019 9  -1436303.69048  21536823.795    21536822.3054   21536829.4474
      3832.502        2986.365
 96 11  4 16 33  0.0000000  0  7 17 31  3 23 21  9  1                0.000352597
    402361.553 9    309833.59048  21874536.792    21874535.5154   21874542.5864
      -867.692        -676.124
  -1884078.430 9  -1450355.73747  23680013.030    23680011.2854   23680018.2854
      3623.624        2823.603
   -847563.378 9   -647077.89748  21494186.225    21494185.3724   21494191.8244
      1491.998        1162.596
     30095.181 9     23262.57348  21502491.137    21502489.8024   21502496.2204
       -82.334         -64.156
   -967372.733 9   -746735.69348  20930242.824    20930241.4004   20930248.2194
      1874.639        1460.758
  -1084006.817 9   -833768.42947  23803194.443    23803193.2134   23803200.0854
      2023.980        1577.127
  -1979926.353 9  -1525763.15948  21514976.843    21514975.4114   21514982.5354
      3821.271        2977.614
 96 11  4 16 33 30.0000000  0  7 17 31  3 23 21  9  1                0.000327978
    428565.573 9    330252.27148  21879523.237    21879522.0034   21879529.0614
      -878.403        -684.470
  -1992563.720 9  -1534889.72947  23659368.654    23659367.2694   23659374.2514
      3609.287        2812.431
   -892016.711 9   -681716.87548  21485727.049    21485726.2234   21485732.6764
      1472.313        1147.257
     32626.987 9     25235.40348  21502972.895    21502971.5934   21502977.9984
       -85.807         -66.862
  -1023499.674 9   -790470.97748  20919562.299    20919560.8134   20919567.6354
      1867.896        1455.503
  -1144484.514 9   -880893.90047  23791685.926    23791684.6734   23791691.6344
      2008.853        1565.340
  -2094353.824 9  -1614927.41048  21493202.050    21493200.5964   21493207.7004
      3808.121        2967.367
 96 11  4 16 34  0.0000000  0  7 17 31  3 23 21  9  1                0.000303332
    455065.232 9    350901.31148  21884565.992    21884564.7774   21884571.8444
      -888.864        -692.621
  -2100633.084 9  -1619099.63047  23638803.732    23638802.4074   23638809.4064
      3594.801        2801.144
   -935914.100 9   -715922.65748  21477373.673    21477372.8564   21477379.3174
      1453.661        1132.723
     35247.487 9     27277.34148  21503471.546    21503470.2924   21503476.6984
       -89.466         -69.714
  -1079449.816 9   -834068.49648  20908915.257    20908913.8594   20908920.6924
      1861.543        1450.553
  -1204553.926 9   -927701.24047  23780255.015    23780253.8444   23780260.7934
      1995.194        1554.697
  -2208419.462 9  -1703809.71248  21471495.903    21471494.6344   21471501.7174
      3795.740        2957.719
 96 11  4 16 34 30.0000000  0  7 17 31  3 23 21  9  1                0.000278646
    481858.123 9    371778.84548  21889664.592    21889663.3934   21889670.4064
      -898.094        -699.814
  -2208289.025 9  -1702987.37947  23618317.341    23618316.1894   23618323.2164
      3581.314        2790.634
   -979277.087 9   -749712.01948  21469122.036    21469121.1864   21469127.6234
      1436.169        1119.093
     37952.084 9     29384.80948  21503986.264    21503985.0094   21503991.3794
       -91.746         -71.490
  -1135235.721 9   -877538.03448  20898299.536    20898298.1684   20898305.0084
      1856.523        1446.641
  -1264238.630 9   -974208.79447  23768897.343    23768896.2494   23768903.2014
      1982.711        1544.970
  -2322143.019 9  -1792425.45848  21449855.164    21449853.7554   21449860.8364
      3785.003        2949.353
 96 11  4 16 35  0.0000000  0  7 17 31  3 23 21  9  1                0.000253932
    508953.375 9    392891.98248  21894820.705    21894819.5074   21894826.5114
      -908.143        -707.644
  -2315508.043 9  -1786534.67747  23597914.143    23597913.1344   23597920.1334
      3566.784        2779.312
  -1022066.079 9   -783054.10848  21460979.578    21460978.7644   21460985.1914
      1416.411        1103.697
     40763.367 9     31575.41148  21504521.290    21504520.0244   21504526.3934
       -95.683         -74.558
  -1190825.430 9   -920854.68948  20887721.206    20887719.8374   20887726.6694
      1849.386        1441.080
  -1323503.969 9  -1020389.57647  23757619.600    23757618.4544   23757625.3724
      1968.229        1533.685
  -2435518.457 9  -1880769.93948  21428280.461    21428279.1464   21428286.2114
      3773.230        2940.179
 96 11  4 16 35 30.0000000  0  7 17 31  3 23 21  9  1                0.000229179
    536343.431 9    414234.84248  21900032.925    21900031.6984   21900038.7144
      -918.258        -715.526
  -2422301.879 9  -1869750.65247  23577591.761    23577590.9104   23577597.9044
      3552.249        2767.986
  -1064261.130 9   -815933.39048  21452950.240    21452949.3424   21452955.7514
      1396.245        1087.983
     43688.773 9     33854.94048  21505077.990    21505076.7284   21505083.0974
       -99.787         -77.756
  -1246195.100 9   -963999.88948  20877184.699    20877183.3534   20877190.1914
      1841.531        1434.959
  -1382330.721 9  -1066228.58047  23746425.192    23746424.0714   23746431.0074
      1953.129        1521.919
  -2548535.237 9  -1968834.95148  21406774.003    21406772.7664   21406779.8354
      3760.633        2930.363
 96 11  4 16 36  0.0000000  0  7 17 31  3 23 21  9  1                0.000204395
    564040.767 9    435817.13748  21905303.584    21905302.3704   21905309.4134
      -927.892        -723.033
  -2528661.180 9  -1952628.03947  23557352.245    23557351.3944   23557358.3984
      3538.580        2757.335
  -1105857.766 9   -848346.37248  21445034.632    21445033.8174   21445040.1964
      1376.914        1072.920
     46740.353 9     36232.78648  21505658.684    21505657.4284   21505663.8194
      -103.322         -80.511
  -1301329.161 9  -1006961.49848  20866693.075    20866691.6894   20866698.5674
      1834.387        1429.392
  -1440695.520 9  -1111707.63347  23735318.755    23735317.6684   23735324.5584
      1937.892        1510.046
  -2661159.669 9  -2056594.24248  21385342.425    21385341.0554   21385348.1154
      3747.801        2920.364
 96 11  4 16 36 30.0000000  0  7 17 31  3 23 21  9  1                0.000179581
    592026.834 9    457624.41448  21910629.156    21910627.9634   21910635.0584
      -938.007        -730.915
  -2634613.828 9  -2035188.54247  23537190.237    23537189.3094   23537196.2444
      3524.499        2746.363
  -1146861.150 9   -880297.07748  21437231.936    21437231.1664   21437237.5444
      1356.353        1056.898
     49897.101 9     38692.58648  21506259.488    21506258.1504   21506264.5574
      -107.432         -83.713
  -1356247.250 9  -1049754.81148  20856242.413    20856241.1204   20856248.0224
      1826.658        1423.370
  -1498587.566 9  -1156818.30147  23724302.281    23724301.1824   23724308.0994
      1921.292        1497.111
  -2773386.445 9  -2144043.66648  21363986.269    21363984.9864   21363992.0594
      3733.690        2909.369
 96 11  4 16 37  0.0000000  0  7 17 31  3 23 21  9  1                0.000154737
    620296.267 9    479652.49948  21916008.712    21916007.4984   21916014.6294
      -947.349        -738.194
  -2740162.030 9  -2117433.90547  23517105.087    23517104.1344   23517111.0754
      3511.148        2735.959
  -1187263.471 9   -911779.42448  21429543.792    21429542.9174   21429549.2774
      1336.497        1041.426
     53162.378 9     41236.94448  21506880.800    21506879.5364   21506885.9724
      -111.030         -86.517
  -1410954.204 9  -1092383.61048  20845832.004    20845830.7344   20845837.6454
      1819.942        1418.137
  -1556000.843 9  -1201555.90647  23713376.883    23713375.7924   23713382.6824
      1905.569        1484.859
  -2885202.931 9  -2231173.37948  21342708.316    21342707.0114   21342714.0814
      3720.030        2898.725
 96 11  4 16 37 30.0000000  0  7 17 31  3 23 21  9  1                0.000129887
    648876.700 9    501922.93448  21921447.451    21921446.2414   21921453.3664
      -958.547        -746.920
  -2845275.010 9  -2199340.11847  23497102.634    23497101.8044   23497108.7704
      3495.637        2723.873
  -1227054.285 9   -942785.27148  21421971.865    21421971.0264   21421977.3714
      1315.744        1025.255
     56561.509 9     43885.60548  21507527.685    21507526.3834   21507532.8394
      -116.132         -90.492
  -1465456.299 9  -1134852.77048  20835460.594    20835459.3504   20835466.2544
      1813.215        1412.895
  -1612925.907 9  -1245913.08447  23702544.353    23702543.2624   23702550.2344
      1888.902        1471.872
  -2996583.093 9  -2317963.10348  21321513.233    21321512.0664   21321519.1284
      3704.971        2886.990
 96 11  4 16 38  0.0000000  0  7 17 31  3 23 21  9  1                0.000105063
    677784.342 9    524448.31948  21926948.426    21926947.1964   21926954.3354
      -969.871        -755.744
  -2949920.569 9  -2280882.12247  23477189.342    23477188.4284   23477195.3954
      3479.418        2711.235
  -1266232.765 9   -973313.97848  21414516.408    21414515.6494   21414521.9834
      1294.817        1008.948
     60111.961 9     46652.17748  21508203.319    21508202.0114   21508208.4524
      -121.749         -94.869
  -1519777.918 9  -1177181.31048  20825123.493    20825122.2854   20825129.1964
      1806.846        1407.932
  -1669351.688 9  -1289881.21747  23691806.943    23691805.8304   23691812.7484
      1871.571        1458.367
  -3107528.635 9  -2404414.16748  21300401.046    21300399.8194   21300406.8774
      3690.239        2875.511
 96 11  4 16 38 30.0000000  0  7 17 31  3 23 21  9  1                0.000080273
    707024.643 9    547232.93148  21932512.693    21932511.5074   21932518.6364
      -979.893        -763.553
  -3054084.476 9  -2362048.79147  23457367.802    23457366.6864   23457373.6844
      3464.332        2699.479
  -1304789.634 9  -1003358.30948  21407179.256    21407178.5314   21407184.8794
      1275.418         993.832
     63825.141 9     49545.54848  21508909.855    21508908.6104   21508915.0604
      -126.149         -98.298
  -1573915.235 9  -1219366.23348  20814821.506    20814820.3204   20814827.2274
      1802.012        1404.165
  -1725264.558 9  -1333449.66447  23681167.106    23681166.0204   23681172.8894
      1855.744        1446.034
  -3218047.087 9  -2490532.42548  21279370.033    21279368.8464   21279375.9274
      3677.270        2865.405
 96 11  4 16 39  0.0000000  0  7 17 31  3 23 21  9  1                0.000055499
    736573.390 9    570257.87748  21938135.736    21938134.5134   21938141.6184
      -990.411        -771.749
  -3157788.311 9  -2442856.97547  23437633.686    23437632.5004   23437639.5114
      3448.765        2687.349
  -1342766.390 9  -1032950.60848  21399952.564    21399951.8054   21399958.1514
      1255.951         978.663
     67666.566 9     52538.84848  21509640.963    21509639.6614   21509646.0864
      -130.378        -101.593
  -1627902.657 9  -1261434.35948  20804547.982    20804546.8784   20804553.7934
      1796.600        1399.948
  -1780700.036 9  -1376646.12647  23670618.159    23670617.0004   23670623.8574
      1839.466        1433.350
  -3328174.145 9  -2576345.70948  21258413.603    21258412.3634   21258419.4334
      3664.072        2855.121
 96 11  4 16 39 30.0000000  0  7 17 31  3 23 21  9  1                0.000030745
    766441.035 9    593531.32148  21943819.405    21943818.2124   21943825.2764
     -1001.163        -780.127
  -3261020.610 9  -2523297.71747  23417989.211    23417988.1094   23417995.1064
      3432.936        2675.015
  -1380152.559 9  -1062082.70448  21392838.191    21392837.4434   21392843.7794
      1236.037         963.146
     71636.783 9     55632.50548  21510396.554    21510395.2254   21510401.6434
      -134.606        -104.888
  -1681709.803 9  -1303362.00548  20794308.857    20794307.7324   20794314.6434
      1789.942        1394.760
  -1835635.833 9  -1419453.21547  23660164.099    23660163.0624   23660169.9774
      1822.590        1420.200
  -3437894.225 9  -2661841.86348  21237534.526    21237533.3444   21237540.4064
      3650.207        2844.317
 96 11  4 16 40  0.0000000  0  7 17 31  3 23 21  9  1                0.000005991
    796617.512 9    617045.41248  21949561.840    21949560.6564   21949567.7244
     -1011.539        -788.212
  -3363788.807 9  -2603376.83447  23398432.932    23398431.9364   23398438.9634
      3417.472        2662.965
  -1416945.265 9  -1090752.36448  21385836.754    21385836.0514   21385842.3704
      1215.971         947.510
     75721.522 9     58815.40148  21511173.847    21511172.5654   21511178.9854
      -138.415        -107.856
  -1735305.816 9  -1345125.13648  20784109.983    20784108.7504   20784115.6604
      1782.140        1388.681
  -1890069.528 9  -1461869.05747  23649805.597    23649804.5944   23649811.5614
      1805.528        1406.905
  -3547199.887 9  -2747015.10048  21216734.354    21216733.1794   21216740.2564
      3635.865        2833.142
 96 11  4 16 40 30.0000000  0  7 17 31  3 23 21  9  1               -0.000018772
    827113.022 9    640808.10348  21955365.009    21955363.8224   21955370.9524
     -1021.709        -796.137
  -3466095.502 9  -2683096.32447  23378964.561    23378963.6414   23378970.6574
      3402.660        2651.423
  -1453133.380 9  -1118950.91448  21378950.461    21378949.7024   21378956.0514
      1196.406         932.264
     79922.833 9     62089.13148  21511973.332    21511972.0854   21511978.4774
      -141.963        -110.621
  -1788660.569 9  -1386700.27048  20773956.933    20773955.6954   20773962.6104
      1774.701        1382.884
  -1943992.504 9  -1503886.93447  23639544.351    23639543.3714   23639550.2994
      1789.162        1394.152
  -3656060.112 9  -2831841.23748  21196018.954    21196017.7674   21196024.8494
      3621.216        2821.727
 96 11  4 16 40 59.9990000  0  7 17 31  3 23 21  9  1               -0.000043552
    857918.721 9    664812.49448  21961227.191    21961225.9994   21961233.1564
     -1031.673        -803.901
  -3567948.356 9  -2762462.18247  23359582.768    23359581.7124   23359588.7364
      3388.202        2640.157
  -1488727.683 9  -1146686.75548  21372177.091    21372176.3214   21372182.6864
      1176.989         917.134
     84234.374 9     65448.75748  21512793.812    21512792.5904   21512798.9704
      -145.119        -113.080
  -1841784.208 9  -1428095.31648  20763847.866    20763846.6264   20763853.5224
      1767.315        1377.129
  -1997416.077 9  -1545515.68147  23629378.130    23629377.2244   23629384.1274
      1773.072        1381.615
  -3764470.843 9  -2916317.12548  21175388.989    21175387.9024   21175394.9864
      3606.845        2810.529
 96 11  4 16 41 29.9990000  0  7 17 31  3 23 21  9  1               -0.000068362
    889048.074 9    689069.09848  21967150.882    21967149.7424   21967156.9194
     -1042.538        -812.367
  -3669354.819 9  -2841480.21247  23340285.563    23340284.7154   23340291.7214
      3373.263        2628.517
  -1523713.240 9  -1173948.24248  21365519.498    21365518.7994   21365525.1824
      1156.546         901.205
     88668.695 9     68904.05748  21513637.595    21513636.4374   21513642.8184
      -149.374        -116.395
  -1894664.986 9  -1469301.11748  20753784.978    20753783.7534   20753790.6494
      1759.351        1370.923
  -2050345.478 9  -1586759.34047  23619306.014    23619305.0904   23619311.9714
      1756.760        1368.904
  -3872434.283 9  -3000444.47148  21154844.248    21154843.1614   21154850.1984
      3591.995        2798.957
 96 11  4 16 41 59.9990000  0  7 17 31  3 23 21  9  1               -0.000093184
    920525.889 9    713597.22548  21973140.937    21973139.8014   21973146.9664
     -1054.596        -821.763
  -3770291.286 9  -2920131.99547  23321078.030    23321077.1734   23321084.1304
      3357.252        2616.041
  -1558070.981 9  -1200720.52548  21358981.423    21358980.7754   21358987.1484
      1135.391         884.720
     93262.274 9     72483.45548  21514511.741    21514510.5704   21514516.9544
      -155.449        -121.129
  -1947297.002 9  -1510313.08048  20743769.405    20743768.2164   20743775.1074
      1750.933        1364.363
  -2102763.036 9  -1627604.16747  23609331.291    23609330.3894   23609337.2724
      1739.088        1355.134
  -3979938.453 9  -3084213.94548  21134386.911    21134385.8164   21134392.8284
      3576.313        2786.737
 96 11  4 16 42 29.9990000  0  7 17 31  3 23 21  9  1               -0.000118020
    952347.233 9    738393.04248  21979196.332    21979195.2214   21979202.3884
     -1066.367        -830.935
  -3870769.068 9  -2998426.38047  23301957.874    23301956.8544   23301963.8694
      3341.616        2603.857
  -1591820.068 9  -1227018.53248  21352559.213    21352558.5504   21352564.9574
      1114.998         868.830
     98013.401 9     76185.61648  21515415.788    21515414.7024   21515421.0914
      -160.908        -125.383
  -1999710.167 9  -1551154.51348  20733795.461    20733794.3414   20733801.2324
      1743.549        1358.610
  -2154677.716 9  -1668057.15047  23599452.274    23599451.3534   23599458.1994
      1722.330        1342.075
  -4087001.214 9  -3167639.45948  21114013.482    21114012.4654   21114019.4544
      3561.517        2775.208
 96 11  4 16 42 59.9990000  0  7 17 31  3 23 21  9  1               -0.000142862
    984531.248 9    763471.45648  21985320.772    21985319.6844   21985326.8484
     -1078.784        -840.611
  -3970767.929 9  -3076347.57347  23282928.522    23282927.7654   23282934.7574
      3325.452        2591.261
  -1624949.336 9  -1252833.55848  21346254.895    21346254.2824   21346260.6974
      1094.053         852.509
    102928.970 9     80015.92248  21516351.172    21516350.1204   21516356.5084
      -166.278        -129.567
  -2051884.898 9  -1591810.14748  20723866.902    20723865.8374   20723872.6974
      1735.196        1352.101
  -2206077.692 9  -1708109.06347  23589671.183    23589670.2124   23589677.1094
      1704.772        1328.394
  -4193612.518 9  -3250713.18948  21093726.146    21093725.0054   21093731.9654
      3546.338        2763.380
 96 11  4 16 43 29.9990000  0  7 17 31  3 23 21  9  1               -0.000167710
   1017069.596 9    788825.96948  21991512.637    21991511.5614   21991518.7184
     -1090.754        -849.938
  -4070289.780 9  -3153897.06247  23263990.073    23263989.3974   23263996.4084
      3308.845        2578.321
  -1657464.814 9  -1278170.30948  21340067.484    21340066.8124   21340073.2324
      1073.344         836.372
    107995.917 9     83964.18148  21517315.434    21517314.3704   21517320.7484
      -171.884        -133.936
  -2103822.319 9  -1632280.87048  20713983.627    20713982.4894   20713989.3504
      1727.063        1345.763
  -2256960.277 9  -1747757.81747  23579988.426    23579987.5504   23579994.4134
      1686.825        1314.409
  -4299778.441 9  -3333439.86748  21073523.339    21073522.2864   21073529.2434
      3531.045        2751.464
 96 11  4 16 43 59.9990000  0  7 17 31  3 23 21  9  1               -0.000192548
   1049945.211 9    814443.27448  21997768.639    21997767.6104   21997774.7754
     -1100.743        -857.722
  -4169318.305 9  -3231062.15347  23245145.808    23245144.8644   23245151.8884
      3293.289        2566.199
  -1689384.861 9  -1303043.09048  21333993.309    21333992.6594   21333999.0834
      1054.744         821.878
    113210.908 9     88027.80048  21518307.873    21518306.8044   21518313.1494
      -175.544        -136.787
  -2155542.246 9  -1672582.11448  20704141.766    20704140.5354   20704147.3974
      1721.064        1341.089
  -2307309.649 9  -1786991.08047  23570407.226    23570406.4544   23570413.2324
      1670.051        1301.338
  -4405497.362 9  -3415818.23948  21053405.727    21053404.6274   21053411.5654
      3516.954        2740.484
 96 11  4 16 44 29.9990000  0  7 17 31  3 23 21  9  1               -0.000217369
   1083148.900 9    840316.23348  22004087.147    22004086.0994   22004093.3154
     -1112.147        -866.608
  -4267849.957 9  -3307840.07047  23226396.072    23226394.9064   23226401.9094
      3275.987        2552.717
  -1720712.511 9  -1327454.25848  21328031.805    21328031.2374   21328037.6694
      1034.289         805.939
    118553.356 9     92190.73548  21519324.568    21519323.4614   21519329.7974
      -180.133        -140.363
  -2207050.652 9  -1712718.54048  20694339.987    20694338.8194   20694345.6714
      1713.279        1335.023
  -2357127.203 9  -1825809.94547  23560927.301    23560926.4534   23560933.2164
      1651.669        1287.015
  -4510763.203 9  -3497843.55748  21033374.246    21033373.2044   21033380.1424
      3501.364        2728.336
 96 11  4 16 44 59.9990000  0  7 17 31  3 23 21  9  1               -0.000242162
   1116686.550 9    866449.42448  22010469.158    22010468.1424   22010475.3484
     -1122.866        -874.961
  -4365858.613 9  -3384210.45147  23207745.610    23207744.4994   23207751.5074
      3258.577        2539.151
  -1751422.434 9  -1351384.08348  21322187.941    21322187.3534   21322193.7944
      1013.734         789.923
    124034.307 9     96461.59948  21520367.530    21520366.4414   21520372.7684
      -184.611        -143.853
  -2258324.135 9  -1752671.90648  20684582.924    20684581.8064   20684588.6554
      1705.905        1329.277
  -2406389.096 9  -1864195.81847  23551553.085    23551552.2544   23551558.9454
      1633.172        1272.601
  -4615565.570 9  -3579507.72648  21013430.886    21013429.9784   21013436.8994
      3486.320        2716.613
 96 11  4 16 45 29.9990000  0  7 17 31  3 23 21  9  1               -0.000266925
   1150532.309 9    892822.70048  22016909.850    22016908.7984   22016916.0244
     -1133.644        -883.359
  -4463346.032 9  -3460174.67847  23189194.119    23189193.2564   23189200.3004
      3240.592        2525.137
  -1781522.323 9  -1374838.56148  21316460.095    21316459.5224   21316465.9784
       992.770         773.587
    129649.941 9    100837.40948  21521436.111    21521435.0854   21521441.3784
      -189.724        -147.837
  -2309391.710 9  -1792464.82648  20674865.160    20674864.0104   20674870.8394
      1698.534        1323.533
  -2455106.268 9  -1902157.24147  23542282.580    23542281.6624   23542288.3744
      1614.645        1258.165
  -4719931.012 9  -3660831.43648  20993570.861    20993569.8904   20993576.8154
      3471.311        2704.918
 96 11  4 16 45 59.9990000  0  7 17 31  3 23 21  9  1               -0.000291658
   1184700.950 9    919447.57148  22023411.869    22023410.8774   22023418.1634
     -1145.212        -892.373
  -4560311.354 9  -3535732.07047  23170742.405    23170741.3164   23170748.3994
      3222.913        2511.361
  -1810999.397 9  -1397807.72348  21310850.734    21310850.2444   21310856.6774
       971.369         756.911
    135396.242 9    105315.03748  21522529.668    21522528.5984   21522534.8884
      -194.254        -151.367
  -2360244.276 9  -1832090.20448  20665188.277    20665187.0894   20665193.9104
      1690.632        1317.376
  -2503285.625 9  -1939699.57047  23533114.287    23533113.4494   23533120.1264
      1596.571        1244.081
  -4823854.552 9  -3741810.80548  20973794.852    20973793.8874   20973800.8384
      3455.941        2692.941
 96 11  4 16 46 29.9990000  0  7 17 31  3 23 21  9  1               -0.000316364
   1219222.130 9    946347.14548  22029981.066    22029980.0534   22029987.3984
     -1155.525        -900.409
  -4656746.014 9  -3610875.96847  23152391.572    23152390.3674   23152397.4784
      3206.630        2498.673
  -1839820.932 9  -1420266.08148  21305366.223    21305365.7184   21305372.1564
       950.770         740.860
    141285.003 9    109903.67048  21523650.190    21523649.2284   21523655.5084
      -197.695        -154.048
  -2410842.427 9  -1871517.34248  20655559.606    20655558.5734   20655565.4054
      1683.295        1311.658
  -2550925.578 9  -1976821.60947  23524048.634    23524047.8534   23524054.5374
      1580.109        1231.254
  -4927311.500 9  -3822426.60248  20954107.637    20954106.6734   20954113.6204
      3441.751        2681.884
 96 11  4 16 46 59.9990000  0  7 17 31  3 23 21  9  1               -0.000341070
   1254065.836 9    973498.02948  22036611.601    22036610.5934   22036617.9844
     -1167.102        -909.430
  -4752685.148 9  -3685633.74047  23134135.015    23134133.7494   23134140.8584
      3189.551        2485.364
  -1868021.312 9  -1442240.42548  21299999.927    21299999.3744   21300005.8084
       929.590         724.356
    147286.840 9    114580.41648  21524792.343    21524791.3684   21524797.6504
      -202.197        -157.556
  -2461223.048 9  -1910774.97448  20645972.446    20645971.4664   20645978.2854
      1675.736        1305.768
  -2598068.052 9  -2013555.98747  23515077.711    23515076.9444   23515083.6284
      1562.945        1217.879
  -5030324.565 9  -3902696.51348  20934504.932    20934503.9514   20934510.8984
      3425.897        2669.530
 96 11  4 16 47 29.9990000  0  7 17 31  3 23 21  9  1               -0.000365779
   1289243.920 9   1000909.46648  22043305.707    22043304.8214   22043312.1954
     -1178.149        -918.038
  -4848136.889 9  -3760011.72047  23115970.897    23115969.9064   23115977.0234
      3173.945        2473.204
  -1895609.536 9  -1463737.75948  21294750.051    21294749.5214   21294755.9434
       909.456         708.667
    153404.696 9    119347.57148  21525956.565    21525955.5884   21525961.8794
      -205.623        -160.226
  -2511390.941 9  -1949866.84248  20636425.821    20636424.8284   20636431.6394
      1668.596        1300.205
  -2644717.650 9  -2049906.31747  23506200.572    23506199.8234   23506206.5104
      1546.831        1205.323
  -5132865.911 9  -3982598.85448  20914991.928    20914990.9934   20914997.9434
      3410.006        2657.148
 96 11  4 16 47 59.9990000  0  7 17 31  3 23 21  9  1               -0.000390499
   1324767.664 9   1028590.24948  22050065.767    22050064.8464   22050072.2164
     -1189.520        -926.899
  -4943107.298 9  -3834014.64747  23097898.660    23097897.6234   23097904.7214
      3157.668        2460.521
  -1922570.439 9  -1484746.27248  21289619.597    21289619.0434   21289625.4674
       888.367         692.234
    159643.780 9    124209.18248  21527143.839    21527142.8464   21527149.1724
      -210.088        -163.705
  -2561322.842 9  -1988774.82248  20626924.082    20626923.1034   20626929.9404
      1660.731        1294.076
  -2690861.814 9  -2085862.79647  23497419.650    23497418.8644   23497425.5824
      1529.805        1192.056
  -5234902.311 9  -4062107.72948  20895575.071    20895574.1294   20895581.0574
      3392.862        2643.789
 96 11  4 16 48 29.9990000  0  7 17 31  3 23 21  9  1               -0.000415233
   1360610.094 9   1056519.36348  22056886.483    22056885.5184   22056892.8714
     -1200.108        -935.149
  -5037594.825 9  -3907641.28947  23079918.494    23079917.2784   23079924.3474
      3141.191        2447.681
  -1948907.298 9  -1505268.51748  21284607.864    21284607.3424   21284613.7494
       867.441         675.928
    166024.844 9    129181.42948  21528358.094    21528357.0974   21528363.4534
      -215.404        -167.847
  -2611030.471 9  -2027508.04748  20617465.064    20617464.0804   20617470.9354
      1653.166        1288.181
  -2736493.666 9  -2121420.08147  23488736.146    23488735.3784   23488742.1104
      1512.088        1178.250
  -5336428.672 9  -4141219.17148  20876255.283    20876254.3374   20876261.2394
      3375.504        2630.263
 96 11  4 16 48 59.9990000  0  7 17 31  3 23 21  9  1               -0.000439986
   1396740.779 9   1084673.08348  22063761.960    22063761.0134   22063768.3644
     -1209.020        -942.094
  -5131614.976 9  -3980903.74847  23062027.184    23062025.8634   23062032.9544
      3126.229        2436.023
  -1974654.660 9  -1525331.41748  21279708.313    21279707.8394   21279714.2204
       848.535         661.196
    172535.349 9    134254.53648  21529596.931    21529596.0094   21529602.4014
      -219.081        -170.712
  -2660549.242 9  -2066094.10848  20608041.904    20608040.9704   20608047.8304
      1647.390        1283.681
  -2781612.775 9  -2156577.81647  23480150.235    23480149.4974   23480156.1974
      1495.300        1165.169
  -5437466.406 9  -4219949.86148  20857028.420    20857027.5074   20857034.3944
      3360.033        2618.207
 96 11  4 16 49 29.9990000  0  7 17 31  3 23 21  9  1               -0.000464776
   1433137.388 9   1113034.02447  22070688.034    22070687.0944   22070694.4634
     -1218.213        -949.257
  -5225178.694 9  -4053810.54647  23044222.573    23044221.3164   23044228.3674
      3110.449        2423.726
  -1999820.079 9  -1544940.85148  21274919.620    21274919.0374   21274925.4294
       828.464         645.556
    179163.592 9    139419.38548  21530858.257    21530857.3514   21530863.7474
      -223.439        -174.108
  -2709872.930 9  -2104528.15548  20598655.883    20598654.9964   20598661.8514
      1640.130        1278.023
  -2826219.363 9  -2191336.18947  23471661.842    23471661.1244   23471667.8454
      1477.685        1151.443
  -5538045.721 9  -4298323.34548  20837888.801    20837887.9044   20837894.7974
      3344.638        2606.211
 96 11  4 16 49 59.9990000  0  7 17 31  3 23 21  9  1               -0.000489560
   1469847.029 9   1141638.88847  22077673.611    22077672.7404   22077680.0954
     -1228.329        -957.139
  -5318211.588 9  -4126303.70947  23026518.927    23026517.7314   23026524.8294
      3092.399        2409.662
  -2024349.883 9  -1564055.00448  21270251.657    21270251.1714   21270257.5884
       807.836         629.483
    185966.221 9    144720.12448  21532152.838    21532151.8874   21532158.2864
      -229.319        -178.690
  -2758947.248 9  -2142767.88748  20589317.348    20589316.4694   20589323.2984
      1632.244        1271.878
  -2870254.572 9  -2225649.33847  23463282.206    23463281.4914   23463288.2544
      1458.825        1136.747
  -5638138.475 9  -4376317.69648  20818841.907    20818840.9094   20818847.7614
      3329.053        2594.067
 96 11  4 16 50 29.9990000  0  7 17 31  3 23 21  9  1               -0.000514326
   1506875.718 9   1170492.35847  22084720.073    22084719.1484   22084726.4994
     -1240.553        -966.665
  -5410692.707 9  -4198366.92647  23008920.454    23008919.1584   23008926.2454
      3072.682        2394.298
  -2048264.916 9  -1582690.11048  21265700.785    21265700.2924   21265706.7294
       786.348         612.739
    192949.655 9    150161.74748  21533481.794    21533480.8194   21533487.1924
      -236.223        -184.070
  -2807772.084 9  -2180813.21548  20580026.318    20580025.4064   20580032.2494
      1622.595        1264.360
  -2913705.067 9  -2259506.85647  23455013.802    23455013.1454   23455019.8954
      1437.741        1120.318
  -5737756.260 9  -4453941.93248  20799885.203    20799884.2834   20799891.1314
      3312.072        2580.835
 96 11  4 16 50 59.9990000  0  7 17 31  3 23 21  9  1               -0.000539074
   1544234.742 9   1199603.22248  22091829.275    22091828.4104   22091835.7594
     -1251.364        -975.089
  -5502624.509 9  -4270002.10247  22991426.226    22991425.1314   22991432.1894
      3054.664        2380.258
  -2071579.380 9  -1600857.24548  21261264.130    21261263.7154   21261270.1784
       766.399         597.194
    200083.427 9    155720.51748  21534839.282    21534838.3584   21534844.7074
      -240.613        -187.491
  -2856344.681 9  -2218661.99848  20570783.212    20570782.3474   20570789.1984
      1614.114        1257.751
  -2956570.135 9  -2292908.20347  23446856.879    23446856.2054   23446862.9764
      1418.690        1105.473
  -5836919.037 9  -4531211.62448  20781015.103    20781014.2534   20781021.0914
      3297.384        2569.390
 96 11  4 16 51 29.9990000  0  7 17 31  3 23 21  9  1               -0.000563788
   1581951.847 9   1228993.11347  22099006.596    22099005.8204   22099013.1124
     -1263.415        -984.479
  -5593979.989 9  -4341188.19047  22974041.649    22974040.8144   22974047.8274
      3035.395        2365.243
  -2094262.141 9  -1618532.14048  21256947.770    21256947.3684   21256953.8384
       745.667         581.039
    207369.858 9    161398.24148  21536225.889    21536224.9324   21536231.2704
      -245.450        -191.260
  -2904636.475 9  -2256291.97348  20561593.581    20561592.7424   20561599.5884
      1605.217        1250.818
  -2998845.749 9  -2325850.23147  23438812.126    23438811.4374   23438818.1524
      1399.370        1090.418
  -5935608.539 9  -4608112.53048  20762235.107    20762234.2814   20762241.1224
      3281.518        2557.027
 96 11  4 16 51 59.9990000  0  7 17 31  3 23 21  9  1               -0.000588471
   1620024.788 9   1258660.29547  22106251.689    22106250.9114   22106258.2044
     -1274.847        -993.387
  -5684772.363 9  -4411935.50647  22956764.255    22956763.6094   22956770.6064
      3017.492        2351.292
  -2116350.416 9  -1635743.80648  21252744.502    21252744.1444   21252750.6374
       726.624         566.201
    214784.823 9    167176.12048  21537636.875    21537635.9664   21537642.2954
      -249.014        -194.037
  -2952679.496 9  -2293728.09648  20552451.340    20552450.4664   20552457.3194
      1597.572        1244.861
  -3040551.473 9  -2358348.19547  23430875.654    23430875.0464   23430881.7874
      1381.026        1076.124
  -6033830.305 9  -4684648.96548  20743544.178    20743543.2984   20743550.1474
      3266.391        2545.240
 96 11  4 16 52 29.9990000  0  7 17 31  3 23 21  9  1               -0.000613147
   1658430.938 9   1288587.10547  22113560.251    22113559.4094   22113566.7784
     -1286.870       -1002.756
  -5775051.152 9  -4482282.62247  22939585.110    22939584.1354   22939591.1244
      2999.583        2337.337
  -2137871.018 9  -1652513.11348  21248649.269    21248648.9314   21248655.4244
       706.529         550.542
    222289.764 9    173024.11948  21539064.904    21539064.1234   21539070.4434
      -252.750        -196.948
  -3000507.243 9  -2330996.47648  20543349.946    20543349.1624   20543356.0184
      1589.777        1238.787
  -3081721.411 9  -2390428.65447  23423041.287    23423040.6654   23423047.4284
      1362.371        1061.588
  -6131599.777 9  -4760832.96148  20724939.255    20724938.3714   20724945.2124
      3250.154        2532.588
 96 11  4 16 52 59.9990000  0  7 17 31  3 23 21  9  1               -0.000637798
   1697183.082 9   1318783.52247  22120934.533    22120933.7034   22120941.0994
     -1297.417       -1010.974
  -5864798.058 9  -4552215.28347  22922506.835    22922505.9044   22922512.8664
      2982.753        2324.223
  -2158797.194 9  -1668819.24048  21244667.113    21244666.8324   21244673.3154
       687.648         535.830
    229899.338 9    178953.64448  21540512.951    21540512.2014   21540518.5114
      -255.446        -199.049
  -3048124.470 9  -2368100.81048  20534288.654    20534287.9054   20534294.7674
      1583.891        1234.201
  -3122356.462 9  -2422092.31547  23415308.593    23415308.0834   23415314.7964
      1345.868        1048.728
  -6228895.252 9  -4836647.60848  20706424.527    20706423.6394   20706430.4854
      3235.255        2520.978
 96 11  4 16 53 29.9990000  0  7 17 31  3 23 21  9  1               -0.000662420
   1736293.469 9   1349259.08247  22128376.939    22128376.1484   22128383.6234
     -1309.227       -1020.177
  -5954007.713 9  -4621729.31747  22905530.806    22905529.8934   22905536.8264
      2965.252        2310.586
  -2179123.212 9  -1684657.71048  21240799.181    21240798.9064   21240805.4054
       668.085         520.586
    237640.505 9    184985.70848  21541986.124    21541985.3274   21541991.6174
      -260.074        -202.655
  -3095541.124 9  -2405048.85748  20525265.695    20525264.8324   20525271.6764
      1577.823        1229.472
  -3162462.129 9  -2453343.47647  23407676.757    23407676.1954   23407682.8994
      1328.367        1035.091
  -6325698.122 9  -4912078.40648  20688003.548    20688002.6564   20688009.4954
      3218.948        2508.271
 96 11  4 16 53 59.9990000  0  7 17 31  3 23 21  9  1               -0.000687006
   1775769.911 9   1380019.89447  22135889.091    22135888.2704   22135895.7664
     -1322.211       -1030.294
  -6042679.935 9  -4690824.55547  22888656.713    22888656.1764   22888663.0504
      2946.399        2295.895
  -2198841.169 9  -1700022.36848  21237047.016    21237046.7244   21237053.2294
       646.473         503.745
    245547.332 9    191146.86148  21543490.757    21543489.9584   21543496.2454
      -266.755        -207.861
  -3142754.249 9  -2441838.30648  20516281.332    20516280.4934   20516287.3254
      1569.943        1223.332
  -3202016.520 9  -2484165.06747  23400149.865    23400149.2374   23400155.9554
      1308.850        1019.883
  -6421991.581 9  -4987112.25948  20669679.478    20669678.6244   20669685.4744
      3200.883        2494.195
 96 11  4 16 54 29.9990000  0  7 17 31  3 23 21  9  1               -0.000711561
   1815589.354 9   1411047.96847  22143466.512    22143465.7644   22143473.2454
     -1332.733       -1038.493
  -6130822.110 9  -4759506.78147  22871883.828    22871883.2464   22871890.1634
      2929.298        2282.570
  -2217939.882 9  -1714904.50048  21233412.705    21233412.3924   21233418.9024
       626.574         488.239
    253618.107 9    197435.76348  21545026.545    21545025.7974   21545032.0764
      -271.513        -211.569
  -3189771.666 9  -2478475.25548  20507334.147    20507333.3844   20507340.2134
      1564.108        1218.785
  -3241025.411 9  -2514561.60347  23392726.634    23392726.0504   23392732.7614
      1291.413        1006.296
  -6517781.725 9  -5061753.92148  20651451.175    20651450.3534   20651457.2154
      3184.879        2481.724
 96 11  4 16 54 59.9990000  0  7 17 31  3 23 21  9  1               -0.000736099
   1855733.185 9   1442328.81847  22151105.651    22151104.9294   22151112.4024
     -1343.404       -1046.808
  -6218442.515 9  -4827782.43447  22855209.960    22855209.6084   22855216.5394
      2912.326        2269.345
  -2236438.144 9  -1729318.75048  21229892.583    21229892.3014   21229898.8344
       606.875         472.890
    261829.269 9    203834.05848  21546589.128    21546588.3564   21546594.6384
      -275.629        -214.776
  -3236600.414 9  -2514965.19148  20498422.924    20498422.1614   20498429.0024
      1557.791        1213.863
  -3279506.304 9  -2544546.71347  23385403.999    23385403.3994   23385410.0734
      1274.166         992.857
  -6613093.060 9  -5136022.48548  20633313.901    20633313.2114   20633320.0964
      3169.367        2469.637
 96 11  4 16 55 29.9990000  0  7 17 31  3 23 21  9  1               -0.000760626
   1896206.420 9   1473866.35447  22158807.553    22158806.7674   22158814.1884
     -1354.075       -1055.123
  -6305546.365 9  -4895655.56847  22838634.738    22838634.2894   22838641.2154
      2894.948        2255.804
  -2254330.002 9  -1743260.47548  21226487.864    21226487.6084   21226494.1244
       586.585         457.079
    270172.663 9    210335.39048  21548176.899    21548176.0404   21548182.3324
      -279.994        -218.177
  -3283219.969 9  -2551292.11748  20489551.639    20489550.7744   20489557.6104
      1550.628        1208.282
  -3317448.879 9  -2574112.34247  23378183.686    23378183.1504   23378189.8314
      1255.827         978.566
  -6707919.923 9  -5209913.53248  20615269.072    20615268.2674   20615275.1594
      3152.983        2456.870
 96 11  4 16 55 59.9990000  0  7 17 31  3 23 21  9  1               -0.000785146
   1936987.584 9   1505643.80947  22166568.081    22166567.2874   22166574.7204
     -1364.294       -1063.086
  -6392118.283 9  -4963114.21747  22822160.839    22822160.1964   22822167.1364
      2876.639        2241.537
  -2271613.858 9  -1756728.43448  21223198.902    21223198.6244   21223205.1434
       565.990         441.031
    278633.997 9    216928.62348  21549787.095    21549786.2114   21549792.4994
      -283.687        -221.055
  -3329611.999 9  -2587441.75448  20480723.408    20480722.6634   20480729.4874
      1542.492        1201.942
  -3354841.329 9  -2603249.30947  23371068.155    23371067.6464   23371074.3344
      1237.499         964.285
  -6802258.317 9  -5283423.96348  20597317.038    20597316.2684   20597323.1684
      3136.591        2444.097
 96 11  4 16 56 29.9990000  0  7 17 31  3 23 21  9  1               -0.000809674
   1978055.465 9   1537644.70347  22174383.053    22174382.3404   22174389.6914
     -1374.088       -1070.718
  -6478160.380 9  -5030160.02247  22805787.584    22805786.9284   22805793.8834
      2858.912        2227.724
  -2288305.541 9  -1769734.96048  21220022.601    21220022.3324   21220028.8414
       546.462         425.815
    287177.834 9    223586.14748  21551413.000    21551412.0604   21551418.3654
      -286.376        -223.150
  -3375785.262 9  -2623420.91948  20471936.903    20471936.1724   20471943.0224
      1535.230        1196.283
  -3391718.724 9  -2631984.93447  23364050.613    23364050.1244   23364056.8344
      1220.477         951.021
  -6896135.440 9  -5356574.95348  20579452.717    20579452.0224   20579458.9524
      3121.323        2432.200
 96 11  4 16 56 59.9990000  0  7 17 31  3 23 21  9  1               -0.000834198
   2019430.578 9   1569884.99247  22182256.523    22182255.7914   22182263.1544
     -1384.211       -1078.606
  -6563648.856 9  -5096774.41847  22789519.631    22789519.0334   22789525.9844
      2840.172        2213.121
  -2304398.490 9  -1782274.93648  21216960.301    21216959.9694   21216966.4764
       526.428         410.204
    295817.532 9    230318.36948  21553056.909    21553056.1274   21553062.4834
      -289.776        -225.799
  -3421723.677 9  -2659217.09048  20463195.116    20463194.3954   20463201.2404
      1527.403        1190.184
  -3428067.272 9  -2660308.47347  23357133.807    23357133.2194   23357139.9264
      1202.718         937.183
  -6989528.622 9  -5429348.85248  20561680.597    20561679.8704   20561686.7904
      3104.799        2419.324
 96 11  4 16 57 29.9990000  0  7 17 31  3 23 21  9  1               -0.000858714
   2061105.565 9   1602358.93947  22190186.998    22190186.3174   22190193.7374
     -1393.451       -1085.806
  -6648569.847 9  -5162946.62247  22773359.815    22773359.1304   22773366.0984
      2821.693        2198.722
  -2319884.448 9  -1794341.93048  21214013.459    21214013.1094   21214019.6214
       506.631         394.777
    304576.187 9    237143.28548  21554723.624    21554722.8424   21554729.2044
      -293.469        -228.677
  -3467425.615 9  -2694828.98948  20454498.403    20454497.6164   20454504.4674
      1520.053        1184.457
  -3463872.086 9  -2688208.31747  23350320.356    23350319.8004   23350326.5014
      1184.943         923.332
  -7082415.395 9  -5501728.14148  20544004.845    20544004.0974   20544011.0154
      3088.336        2406.495
 96 11  4 16 57 59.9990000  0  7 17 31  3 23 21  9  1               -0.000883225
   2103070.104 9   1635058.52047  22198172.701    22198171.9624   22198179.4324
     -1403.888       -1093.939
  -6732932.234 9  -5228683.55147  22757306.392    22757305.5214   22757312.4744
      2802.896        2184.075
  -2334770.575 9  -1805941.52348  21211180.653    21211180.3684   21211186.8924
       486.315         378.947
    313445.438 9    244054.37548  21556411.496    21556410.6064   21556416.9774
      -297.369        -231.716
  -3512903.163 9  -2730266.04348  20445844.347    20445843.5404   20445850.3994
      1512.414        1178.504
  -3499143.862 9  -2715692.81747  23343608.343    23343607.8004   23343614.5014
      1167.084         909.416
  -7174808.696 9  -5573722.91248  20526423.026    20526422.2294   20526429.1324
      3071.626        2393.475
 96 11  4 16 58 29.9990000  0  7 17 31  3 23 21  9  1               -0.000907729
   2145340.451 9   1667996.41447  22206216.568    22206215.8044   22206223.2414
     -1413.956       -1101.784
  -6816753.953 9  -5293999.17847  22741355.866    22741354.7864   22741361.7144
      2785.388        2170.432
  -2349073.115 9  -1817086.37548  21208458.998    21208458.6824   21208465.2384
       467.464         364.258
    322419.686 9    251047.28248  21558119.196    21558118.3534   21558124.7584
      -300.865        -234.440
  -3558182.141 9  -2765548.36748  20437228.102    20437227.2254   20437234.0934
      1506.222        1173.679
  -3533890.864 9  -2742768.40047  23336996.220    23336995.6444   23337002.3154
      1149.396         895.633
  -7266709.247 9  -5645333.71848  20508934.930    20508934.1264   20508941.0294
      3055.150        2380.636
 96 11  4 16 58 59.9990000  0  7 17 31  3 23 21  9  1               -0.000932225
   2187923.175 9   1701177.68447  22214319.821    22214319.0684   22214326.5794
     -1424.200       -1109.766
  -6900039.212 9  -5358896.78547  22725507.341    22725506.1614   22725513.0984
      2767.567        2156.546
  -2362795.146 9  -1827778.88248  21205847.720    21205847.4494   21205854.0024
       447.992         349.085
    331518.345 9    258137.13648  21559850.635    21559849.7764   21559856.1974
      -305.134        -237.767
  -3603255.417 9  -2800670.40248  20428650.805    20428650.0624   20428656.9204
      1499.353        1168.327
  -3568078.139 9  -2769407.82747  23330490.592    23330490.0644   23330496.7344
      1130.536         880.937
  -7358091.592 9  -5716540.72448  20491545.497    20491544.6354   20491551.5374
      3037.800        2367.117
 96 11  4 16 59 29.9990000  0  7 17 31  3 23 21  9  1               -0.000956714
   2230819.891 9   1734603.62647  22222482.803    22222482.0964   22222489.6324
     -1435.684       -1118.715
  -6982795.111 9  -5423381.90647  22709759.331    22709758.2344   22709765.1774
      2749.412        2142.399
  -2375932.178 9  -1838015.54648  21203347.832    21203347.5574   21203354.1194
       427.702         333.274
    340751.280 9    265331.61748  21561607.605    21561606.7424   21561613.2144
      -310.477        -241.930
  -3648124.141 9  -2835633.05048  20420112.610    20420111.8394   20420118.6864
      1491.676        1162.345
  -3601700.081 9  -2795606.74047  23324092.563    23324092.0444   23324098.6744
      1110.915         865.648
  -7448963.054 9  -5787349.64548  20474253.177    20474252.3594   20474259.2634
      3020.106        2353.329
 96 11  4 16 59 59.9990000  0  7 17 31  3 23 21  9  1               -0.000981196
   2274057.521 9   1768295.23147  22230710.627    22230709.9944   22230717.4804
     -1446.701       -1127.299
  -7065017.900 9  -5487451.62147  22694112.763    22694111.7494   22694118.6574
      2732.031        2128.855
  -2388475.151 9  -1847789.30648  21200961.013    21200960.7354   21200967.2924
       408.702         318.469
    350135.063 9    272643.64548  21563393.196    21563392.4184   21563398.9134
      -315.130        -245.556
  -3692762.224 9  -2870415.97448  20411618.261    20411617.4704   20411624.3544
      1484.278        1156.580
  -3634744.371 9  -2821355.53947  23317804.472    23317803.9394   23317810.5074
      1092.048         850.946
  -7539306.676 9  -5857747.25748  20457061.363    20457060.5354   20457067.4374
      3002.909        2339.929
 96 11  4 17  0 29.9990000  0  7 17 31  3 23 21  9  1               -0.001005694
   2317605.382 9   1802228.55947  22238997.509    22238996.9544   22239004.4684
     -1457.212       -1135.490
  -7146728.284 9  -5551122.06247  22678563.738    22678562.7654   22678569.6724
      2714.630        2115.296
  -2400464.038 9  -1857131.30948  21198679.589    21198679.3334   21198685.9034
       389.624         303.603
    359662.260 9    280067.42148  21565206.046    21565205.3984   21565211.8934
      -320.802        -249.976
  -3737188.112 9  -2905033.54948  20403164.205    20403163.5334   20403170.3874
      1476.577        1150.579
  -3667225.672 9  -2846665.65147  23311623.434    23311622.9014   23311629.4594
      1072.600         835.792
  -7629148.210 9  -5927753.63049  20439965.033    20439964.2704   20439971.1754
      2985.898        2326.674
 96 11  4 17  0 59.9980000  0  7 17 31  3 23 21  9  1               -0.001030199
   2361473.376 9   1836411.33247  22247345.272    22247344.7654   22247352.3854
     -1467.616       -1143.597
  -7227909.042 9  -5614379.80647  22663115.453    22663114.5714   22663121.5084
      2697.182        2101.700
  -2411862.094 9  -1866012.93048  21196510.582    21196510.3704   21196516.9374
       370.037         288.341
    369364.709 9    287627.76148  21567052.349    21567051.7134   21567058.2304
      -326.165        -254.155
  -3781367.838 9  -2939459.31248  20394757.054    20394756.4224   20394763.2594
      1468.661        1144.411
  -3699126.499 9  -2871523.45147  23305552.864    23305552.3814   23305558.9424
      1054.049         821.337
  -7718482.978 9  -5997365.12449  20422965.181    20422964.4024   20422971.3444
      2969.750        2314.091
 96 11  4 17  1 29.9980000  0  7 17 31  3 23 21  9  1               -0.001054720
   2405648.234 9   1870833.25647  22255751.547    22255751.0254   22255758.5904
     -1477.869       -1151.586
  -7308573.375 9  -5677235.14647  22647765.427    22647764.7014   22647771.6034
      2679.914        2088.245
  -2422687.194 9  -1874448.09048  21194450.646    21194450.4554   21194456.9984
       351.206         273.667
    379213.244 9    295301.93148  21568926.544    21568925.8434   21568932.3554
      -330.683        -257.675
  -3825320.833 9  -2973708.40248  20386393.082    20386392.4464   20386399.2594
      1460.987        1138.431
  -3730484.529 9  -2895958.27947  23299585.544    23299585.1254   23299591.7134
      1035.990         807.265
  -7807355.446 9  -6066616.38749  20406053.278    20406052.5324   20406059.4944
      2954.489        2302.199
 96 11  4 17  1 59.9980000  0  7 17 31  3 23 21  9  1               -0.001079234
   2450155.662 9   1905514.30147  22264221.077    22264220.5794   22264228.2304
     -1488.893       -1160.176
  -7388686.247 9  -5739660.76947  22632520.311    22632519.7674   22632526.6304
      2661.177        2073.644
  -2432925.483 9  -1882425.98848  21192502.341    21192502.1704   21192508.6894
       331.851         258.585
    389208.586 9    303090.49848  21570828.562    21570827.8904   21570834.4324
      -335.070        -261.094
  -3869019.150 9  -3007759.04148  20378077.536    20378076.9474   20378083.7474
      1452.856        1132.096
  -3761273.496 9  -2919949.69647  23293726.641    23293726.2124   23293732.7644
      1017.042         792.500
  -7895742.866 9  -6135489.68549  20389233.568    20389232.9434   20389239.9254
      2938.615        2289.830
 96 11  4 17  2 29.9980000  0  7 17 31  3 23 21  9  1               -0.001103736
   2494965.788 9   1940431.22847  22272748.240    22272747.7034   22272755.3404
     -1498.526       -1167.683
  -7468266.508 9  -5801671.36647  22617376.727    22617376.1684   22617383.0124
      2643.945        2060.217
  -2442611.547 9  -1889973.58148  21190659.123    21190658.9924   21190665.4844
       313.596         244.361
    399298.376 9    310952.65548  21572748.499    21572747.9244   21572754.4674
      -337.645        -263.100
  -3912521.356 9  -3041656.86348  20369799.334    20369798.7234   20369805.5334
      1447.089        1127.602
  -3791528.117 9  -2943524.74347  23287969.360    23287968.9514   23287975.4994
       999.782         779.051
  -7983695.400 9  -6204024.11149  20372496.794    20372496.1314   20372503.1114
      2924.564        2278.881
 96 11  4 17  2 59.9980000  0  7 17 31  3 23 21  9  1               -0.001128219
   2540077.092 9   1975582.84647  22281332.668    22281332.1944   22281339.8104
     -1508.822       -1175.705
  -7547303.264 9  -5863258.45847  22602336.344    22602335.9804   22602342.8264
      2624.953        2045.418
  -2451741.205 9  -1897087.61648  21188921.797    21188921.6744   21188928.2004
       295.086         229.937
    409463.506 9    318873.51948  21574682.824    21574682.2844   21574688.8274
      -339.980        -264.919
  -3955836.740 9  -3075409.11448  20361556.629    20361556.0684   20361562.9004
      1440.588        1122.536
  -3821255.479 9  -2966688.93347  23282312.420    23282312.0234   23282318.5754
       982.028         765.217
  -8071203.893 9  -6272212.53249  20355844.398    20355843.8164   20355850.7904
      2909.132        2266.856
 96 11  4 17  3 29.9980000  0  7 17 31  3 23 21  9  1               -0.001152668
   2585498.273 9   2010975.90447  22289976.009    22289975.5864   22289983.2604
     -1519.515       -1184.038
  -7625750.579 9  -5924386.24247  22587408.306    22587407.9594   22587414.7824
      2604.643        2029.592
  -2460308.221 9  -1903763.22148  21187291.612    21187291.4334   21187297.9614
       275.771         214.886
    419709.900 9    326857.71148  21576632.673    21576632.1194   21576638.6764
      -343.407        -267.590
  -3998947.791 9  -3109002.14448  20353352.855    20353352.2774   20353359.1434
      1433.174        1116.759
  -3850430.413 9  -2989422.65247  23276760.639    23276760.2434   23276766.7774
       962.812         750.243
  -8158223.075 9  -6340019.66949  20339285.089    20339284.6124   20339291.5994
      2891.774        2253.330
 96 11  4 17  3 59.9980000  0  7 17 31  3 23 21  9  1               -0.001177094
   2631215.479 9   2046599.64647  22298675.841    22298675.3644   22298683.0334
     -1528.585       -1191.105
  -7703614.851 9  -5985059.70347  22572591.184    22572590.8994   22572597.7414
      2585.890        2014.979
  -2468318.055 9  -1910004.67148  21185767.321    21185767.2394   21185773.7364
       257.754         200.847
    430040.399 9    334907.43948  21578598.591    21578597.9734   21578604.5344
      -345.914        -269.543
  -4041865.499 9  -3142444.51848  20345185.846    20345185.2984   20345192.1784
      1427.595        1112.412
  -3879058.235 9  -3011730.05647  23271312.962    23271312.5694   23271319.0584
       945.326         736.618
  -8244731.969 9  -6407429.18549  20322822.967    20322822.5194   20322829.4904
      2875.120        2240.353
 96 11  4 17  4 29.9980000  0  7 17 31  3 23 21  9  1               -0.001201485
   2677248.575 9   2082469.53247  22307435.610    22307435.2054   22307442.8604
     -1538.292       -1198.669
  -7780865.717 9  -6045255.19147  22557890.571    22557890.5594   22557897.3794
      2566.038        1999.510
  -2475725.721 9  -1915776.89448  21184357.705    21184357.6124   21184364.1044
       237.886         185.366
    440517.873 9    343071.69348  21580592.317    21580591.7814   21580598.3494
      -350.772        -273.329
  -4084554.679 9  -3175708.81748  20337062.433    20337061.8154   20337068.7274
      1420.015        1106.505
  -3907104.308 9  -3033584.14447  23265976.005    23265975.5924   23265982.1014
       926.362         721.841
  -8330682.058 9  -6474403.26449  20306467.134    20306466.7544   20306473.7334
      2856.632        2225.947
 96 11  4 17  4 59.9980000  0  7 17 31  3 23 21  9  1               -0.001225845
   2723608.318 9   2118593.94347  22316257.680    22316257.2474   22316264.9044
     -1551.666       -1209.090
  -7857480.493 9  -6104955.00747  22543311.565    22543311.2964   22543318.1184
      2542.440        1981.122
  -2482496.726 9  -1921053.01248  21183069.259    21183069.1554   21183075.6614
       214.260         166.956
    451182.805 9    351382.01948  21582621.818    21582621.2864   21582627.8414
      -359.441        -280.084
  -4126966.524 9  -3208757.00748  20328991.613    20328991.1214   20328998.0254
      1408.246        1097.335
  -3934546.042 9  -3054967.32347  23260753.921    23260753.5764   23260760.0584
       903.779         704.243
  -8416028.646 9  -6540907.08749  20290226.286    20290225.8004   20290232.7994
      2834.002        2208.313
 96 11  4 17  5 29.9980000  0  7 17 31  3 23 21  9  1               -0.001250190
   2770284.357 9   2154964.84047  22325139.844    22325139.4744   22325147.0414
     -1560.435       -1215.923
  -7933490.942 9  -6164183.93947  22528847.089    22528846.9674   22528853.8044
      2524.692        1967.292
  -2488640.482 9  -1925840.37348  21181900.063    21181900.0504   21181906.5444
       195.117         152.039
    462023.958 9    359829.66148  21584684.826    21584684.3264   21584690.8784
      -363.497        -283.244
  -4169115.103 9  -3241600.05748  20320971.073    20320970.5314   20320977.4414
      1401.484        1092.065
  -3961395.916 9  -3075889.30547  23255644.536    23255644.2534   23255650.6964
       885.985         690.378
  -8500787.345 9  -6606952.81049  20274097.183    20274096.7824   20274103.7424
      2816.612        2194.763
 96 11  4 17  5 59.9980000  0  7 17 31  3 23 21  9  1               -0.001274535
   2817259.357 9   2191568.67247  22334078.888    22334078.5334   22334086.2524
     -1571.338       -1224.419
  -8008953.655 9  -6222986.04747  22514487.125    22514486.8754   22514493.7094
      2505.908        1952.656
  -2494186.488 9  -1930161.95048  21180844.687    21180844.6774   21180851.1754
       174.494         135.969
    473010.401 9    368390.51848  21586775.416    21586775.0144   21586781.5394
      -368.964        -287.504
  -4211040.884 9  -3274269.49648  20312992.826    20312992.3104   20312999.2314
      1393.513        1085.854
  -3987692.655 9  -3096380.27547  23250640.398    23250640.1444   23250646.6194
       866.948         675.544
  -8585012.901 9  -6672583.09849  20258069.578    20258069.1754   20258076.1434
      2798.456        2180.615
 96 11  4 17  6 29.9980000  0  7 17 31  3 23 21  9  1               -0.001298861
   2864561.885 9   2228427.73347  22343080.342    22343079.9524   22343087.6424
     -1582.258       -1232.928
  -8083853.132 9  -6281349.28547  22500234.312    22500233.9734   22500240.8334
      2487.359        1938.202
  -2499113.916 9  -1934001.52248  21179906.978    21179907.0004   21179913.5424
       154.044         120.034
    484149.362 9    377070.21148  21588895.053    21588894.7064   21588901.2354
      -373.488        -291.030
  -4252723.779 9  -3306749.68048  20305060.758    20305060.3174   20305067.2424
      1385.349        1079.493
  -4013414.911 9  -3116423.59047  23245745.531    23245745.3174   23245751.8374
       847.943         660.735
  -8668700.018 9  -6737793.82949  20242144.453    20242144.0624   20242151.0024
      2780.708        2166.785
 96 11  4 17  6 59.9980000  0  7 17 31  3 23 21  9  1               -0.001323179
   2912193.257 9   2265543.01447  22352144.288    22352143.8864   22352151.7054
     -1592.861       -1241.190
  -8158202.901 9  -6339284.17147  22486085.885    22486085.6614   22486092.5564
      2469.482        1924.272
  -2503441.098 9  -1937373.36748  21179083.557    21179083.5804   21179090.1624
       134.851         105.079
    495412.791 9    385846.89848  21591038.395    21591038.0644   21591044.5894
      -377.177        -293.904
  -4294167.920 9  -3339043.81748  20297174.199    20297173.7784   20297180.7054
      1377.851        1073.650
  -4038576.434 9  -3136029.97147  23240957.402    23240957.2264   23240963.8124
       829.570         646.418
  -8751861.325 9  -6802594.83549  20226319.508    20226319.0054   20226325.9274
      2763.759        2153.578
 96 11  4 17  7 29.9980000  0  7 17 31  3 23 21  9  1               -0.001347488
   2960153.164 9   2302914.34047  22361270.835    22361270.4464   22361278.2164
     -1604.766       -1250.467
  -8232004.918 9  -6396792.23747  22472041.759    22472041.6234   22472048.4954
      2450.170        1909.223
  -2507184.192 9  -1940290.07948  21178371.240    21178371.2724   21178377.8934
       114.406          89.148
    506798.138 9    394718.58448  21593204.886    21593204.6304   21593211.1694
      -382.297        -297.894
  -4335371.322 9  -3371150.36148  20289333.419    20289333.0304   20289339.9584
      1368.673        1066.498
  -4063171.206 9  -3155194.72547  23236277.254    23236276.9804   23236283.6064
       809.707         630.941
  -8834509.397 9  -6866995.92349  20210591.999    20210591.5864   20210598.5114
      2745.785        2139.573
 96 11  4 17  7 59.9980000  0  7 17 31  3 23 21  9  1               -0.001371793
   3008435.004 9   2340536.47947  22370458.572    22370458.1814   22370466.0494
     -1614.750       -1258.247
  -8305255.754 9  -6453870.81947  22458102.704    22458102.4594   22458109.3364
      2432.238        1895.250
  -2510349.919 9  -1942756.89748  21177768.742    21177768.8544   21177775.5214
        95.846          74.685
    518309.155 9    403688.20248  21595395.405    21595395.0894   21595401.6584
      -385.964        -300.751
  -4376327.531 9  -3403064.28948  20281539.578    20281539.3404   20281546.2414
      1360.877        1060.424
  -4087201.746 9  -3173919.82547  23231704.319    23231704.1284   23231710.7164
       791.333         616.623
  -8916650.480 9  -6931001.94649  20194960.998    20194960.6814   20194967.5784
      2729.228        2126.671
 96 11  4 17  8 29.9980000  0  7 17 31  3 23 21  9  1               -0.001396053
   3057098.109 9   2378455.71547  22379718.827    22379718.4384   22379726.3864
     -1627.116       -1267.883
  -8377869.143 9  -6510452.68947  22444284.867    22444284.5714   22444291.5144
      2411.121        1878.796
  -2512870.990 9  -1944721.39448  21177288.963    21177289.1024   21177295.8064
        74.710          58.216
    530022.093 9    412815.15048  21597624.448    21597624.0014   21597630.5764
      -392.536        -305.872
  -4416952.964 9  -3434720.47448  20273808.931    20273808.6114   20273815.4894
      1350.017        1051.961
  -4110578.650 9  -3192135.59147  23227255.733    23227255.5774   23227262.2434
       769.636         599.716
  -8998199.545 9  -6994546.66648  20179442.817    20179442.4204   20179449.2704
      2709.818        2111.546
 96 11  4 17  8 59.9980000  0  7 17 31  3 23 21  9  1               -0.001420308
   3106063.664 9   2416610.66547  22389036.772    22389036.3684   22389044.2874
     -1637.206       -1275.745
  -8449916.065 9  -6566593.14847  22430574.887    22430574.4974   22430581.4234
      2391.861        1863.788
  -2514833.832 9  -1946250.89448  21176915.452    21176915.5834   21176922.2984
        56.184          43.780
    541872.401 9    422049.14348  21599879.470    21599879.0454   21599885.6584
      -397.388        -309.653
  -4457328.615 9  -3466182.01348  20266125.755    20266125.3984   20266132.2464
      1341.874        1045.616
  -4133371.090 9  -3209895.92747  23222918.393    23222918.3424   23222924.9844
       749.737         584.211
  -9079238.741 9  -7057694.07848  20164021.576    20164021.1684   20164027.9834
      2692.742        2098.240
 96 11  4 17  9 29.9980000  0  7 17 31  3 23 21  9  1               -0.001444540
   3155330.740 9   2455000.51447  22398412.040    22398411.5954   22398419.6044
     -1648.119       -1284.249
  -8521378.226 9  -6622277.95347  22416976.302    22416975.7314   22416982.6294
      2371.444        1847.878
  -2516242.076 9  -1947348.25248  21176647.509    21176647.6304   21176654.3874
        36.882          28.739
    553853.791 9    431385.27648  21602159.429    21602159.0334   21602165.6634
      -402.187        -313.392
  -4497473.971 9  -3497464.10648  20258486.310    20258485.9894   20258492.8484
      1333.750        1039.286
  -4155566.772 9  -3227191.26347  23218694.793    23218694.6054   23218701.3114
       729.347         568.322
  -9159766.609 9  -7120443.05948  20148697.614    20148697.2124   20148703.9974
      2674.895        2084.334
 96 11  4 17  9 59.9980000  0  7 17 31  3 23 21  9  1               -0.001468720
   3204933.204 9   2493651.74047  22407851.160    22407850.7064   22407858.6594
     -1658.618       -1292.430
  -8592218.494 9  -6677478.17147  22403495.897    22403495.2934   22403502.1744
      2351.155        1832.069
  -2517062.505 9  -1947987.56648  21176491.424    21176491.5254   21176498.3034
        18.007          14.031
    565992.577 9    440844.05148  21604469.383    21604468.9834   21604475.6184
      -406.803        -316.989
  -4537375.965 9  -3528556.56648  20250893.193    20250892.8904   20250899.7314
      1326.503        1033.639
  -4177140.934 9  -3244002.29847  23214589.294    23214589.1684   23214595.8424
       709.126         552.566
  -9239745.444 9  -7182764.21948  20133478.065    20133477.7574   20133484.5544
      2657.102        2070.469
 96 11  4 17 10 29.9980000  0  7 17 31  3 23 21  9  1               -0.001492858
   3254845.516 9   2532544.38547  22417349.283    22417348.7834   22417356.8244
     -1668.997       -1300.517
  -8662443.254 9  -6732198.76647  22390132.589    22390131.9774   22390138.8454
      2330.235        1815.768
  -2517329.244 9  -1948195.43548  21176440.794    21176440.7824   21176447.5584
        -0.485          -0.378
    578259.033 9    450402.30948  21606803.723    21606803.2374   21606809.8714
      -411.152        -320.378
  -4577064.724 9  -3559482.86548  20243340.789    20243340.3834   20243347.1924
      1319.130        1027.894
  -4198119.906 9  -3260349.53947  23210597.056    23210597.0274   23210603.7084
       689.403         537.197
  -9319195.018 9  -7244672.96748  20118359.367    20118359.0094   20118365.7704
      2639.460        2056.722
 96 11  4 17 10 59.9980000  0  7 17 31  3 23 21  9  1               -0.001516963
   3305050.898 9   2571665.43547  22426903.313    22426902.7014   22426910.6224
     -1678.754       -1308.120
  -8732055.161 9  -6786441.81747  22376885.785    22376885.2894   22376892.1064
      2309.540        1799.642
  -2517054.324 9  -1947981.22248  21176493.168    21176493.1164   21176499.8874
       -18.744         -14.606
    590639.935 9    460049.74748  21609159.758    21609159.2854   21609165.8964
      -415.101        -323.455
  -4616549.771 9  -3590250.43248  20235827.051    20235826.6184   20235833.3864
      1312.171        1022.471
  -4218531.363 9  -3276254.56847  23206712.943    23206712.8704   23206719.5894
       670.522         522.485
  -9398130.140 9  -7306180.84548  20103338.546    20103338.1294   20103344.9144
      2621.961        2043.086
 96 11  4 17 11 29.9980000  0  7 17 31  3 23 21  9  1               -0.001541023
   3355578.854 9   2611037.80547  22436518.350    22436517.7984   22436525.7534
     -1686.233       -1313.948
  -8801009.021 9  -6840172.10647  22363764.076    22363763.7874   22363770.6024
      2290.942        1785.150
  -2516197.071 9  -1947313.25448  21176656.288    21176656.2764   21176663.0424
       -34.976         -27.254
    603170.706 9    469813.96848  21611544.321    21611543.8224   21611550.4334
      -416.945        -324.892
  -4655782.666 9  -3620821.52148  20228361.297    20228360.8194   20228367.5754
      1306.758        1018.253
  -4238353.949 9  -3291700.74947  23202940.889    23202940.7214   23202947.4534
       654.561         510.048
  -9476507.932 9  -7367254.43848  20088423.786    20088423.3304   20088430.1074
      2606.806        2031.277
 96 11  4 17 11 59.9980000  0  7 17 31  3 23 21  9  1               -0.001565119
   3406313.262 9   2650571.04147  22446172.872    22446172.3324   22446180.3644
     -1695.871       -1321.458
  -8869425.265 9  -6893483.46947  22350744.898    22350744.6424   22350751.4384
      2270.387        1769.133
  -2514862.679 9  -1946273.47648  21176910.277    21176910.2044   21176917.0054
       -53.604         -41.769
    615755.458 9    479620.25348  21613939.134    21613938.6504   21613945.2374
      -421.641        -328.551
  -4694857.490 9  -3651269.43148  20220925.632    20220925.1234   20220931.8504
      1298.586        1011.885
  -4257711.485 9  -3306784.54447  23199257.260    23199257.0934   23199263.8934
       636.160         495.709
  -9554444.921 9  -7427984.54748  20073592.895    20073592.4274   20073599.1954
      2589.282        2017.622
 96 11  4 17 12 29.9980000  0  7 17 31  3 23 21  9  1               -0.001589219
   3457315.888 9   2690313.34447  22455878.320    22455877.8854   22455885.7004
     -1704.720       -1328.353
  -8937255.761 9  -6946338.40447  22337837.381    22337836.9574   22337843.7214
      2251.200        1754.182
  -2513004.936 9  -1944825.90048  21177263.698    21177263.7174   21177270.5244
       -70.884         -55.234
    628449.289 9    489511.53548  21616354.799    21616354.2404   21616360.8434
      -425.113        -331.257
  -4733715.701 9  -3681548.55648  20213531.143    20213530.6624   20213537.3684
      1291.566        1006.415
  -4276546.902 9  -3321461.48747  23195673.043    23195672.8414   23195679.6424
       618.968         482.313
  -9631884.211 9  -7488326.83748  20058856.596    20058856.2204   20058863.0024
      2572.765        2004.752
 96 11  4 17 12 59.9980000  0  7 17 31  3 23 21  9  1               -0.001613310
   3508609.328 9   2730282.16047  22465639.124    22465638.6984   22465646.7324
     -1714.219       -1335.755
  -9004501.983 9  -6998738.06047  22325040.720    22325040.4104   22325047.2084
      2232.535        1739.638
  -2510597.571 9  -1942950.04248  21177721.745    21177721.8604   21177728.6464
       -88.836         -69.223
    641266.439 9    499498.90748  21618793.799    21618793.2794   21618799.8584
      -428.725        -334.071
  -4772358.781 9  -3711660.04448  20206177.565    20206177.1554   20206183.8334
      1285.250        1001.494
  -4294843.055 9  -3335718.22947  23192191.388    23192191.2024   23192198.0114
       601.374         468.603
  -9708800.601 9  -7548261.67348  20044219.862    20044219.5274   20044226.2974
      2555.561        1991.346
 96 11  4 17 13 29.9980000  0  7 17 31  3 23 21  9  1               -0.001637395
   3560195.268 9   2770478.97647  22475455.493    22475455.1814   22475463.0804
     -1724.192       -1343.526
  -9071186.891 9  -7050700.32847  22312351.083    22312350.7154   22312357.5064
      2213.801        1725.040
  -2507655.136 9  -1940657.25448  21178281.697    21178281.8094   21178288.6054
      -106.699         -83.142
    654199.326 9    509576.46048  21621254.856    21621254.3054   21621260.9224
      -432.744        -337.203
  -4810808.224 9  -3741620.65248  20198860.978    20198860.4814   20198867.1504
      1278.800         996.468
  -4312603.077 9  -3349557.20347  23188811.841    23188811.6074   23188818.3774
       583.175         454.422
  -9785196.004 9  -7607790.54648  20029682.338    20029681.9394   20029688.7234
      2537.925        1977.604
 96 11  4 17 13 59.9980000  0  7 17 31  3 23 21  9  1               -0.001661475
   3612082.536 9   2810910.54447  22485329.288    22485329.0034   22485337.0704
     -1736.248       -1352.921
  -9137326.517 9  -7102237.69547  22299765.179    22299764.7814   22299771.5164
      2193.840        1709.486
  -2504181.857 9  -1937950.81448  21178942.646    21178942.7574   21178949.5564
      -126.144         -98.294
    667248.250 9    519744.43448  21623737.919    21623737.4594   21623744.0434
      -438.502        -341.690
  -4849076.824 9  -3771440.33848  20191578.661    20191578.2354   20191584.8554
      1270.995         990.386
  -4329816.326 9  -3362970.11747  23185536.251    23185536.0414   23185542.8024
       563.055         438.744
  -9861057.431 9  -7666903.33248  20015246.357    20015245.9964   20015252.7604
      2518.132        1962.181
 96 11  4 17 14 29.9980000  0  7 17 31  3 23 21  9  1               -0.001685510
   3664328.183 9   2851621.39647  22495271.345    22495271.0704   22495279.0484
     -1747.129       -1361.399
  -9202853.982 9  -7153298.05847  22287295.791    22287295.3414   22287302.0694
      2174.023        1694.044
  -2500117.759 9  -1934784.00148  21179716.017    21179716.1234   21179722.9614
      -145.339        -113.251
    680470.972 9    530047.84048  21626254.157    21626253.6994   21626260.2514
      -443.455        -345.549
  -4887102.736 9  -3801070.91948  20184342.566    20184342.1534   20184348.7524
      1263.497         984.543
  -4346423.617 9  -3375910.86547  23182375.926    23182375.8054   23182382.5154
       543.636         423.612
  -9936327.182 9  -7725555.06948  20000922.982    20000922.6324   20000929.3814
      2499.428        1947.606
 96 11  4 17 14 59.9980000  0  7 17 31  3 23 21  9  1               -0.001709540
   3716857.311 9   2892553.10447  22505267.237    22505267.0504   22505275.1594
     -1756.252       -1368.508
  -9267828.821 9  -7203927.80447  22274931.507    22274931.0334   22274937.7434
      2155.953        1679.963
  -2495514.815 9  -1931197.30248  21180591.970    21180592.0624   21180598.8774
      -162.974        -126.993
    693803.054 9    540436.45848  21628791.135    21628790.7274   21628797.2654
      -446.962        -348.282
  -4924937.652 9  -3830552.67248  20177142.796    20177142.3944   20177148.9954
      1256.985         979.469
  -4362493.957 9  -3388433.19847  23179317.770    23179317.6984   23179324.4234
       526.032         409.895
 -10011079.988 9  -7783803.99148  19986697.979    19986697.6134   19986704.3714
      2482.675        1934.552
 96 11  4 17 15 29.9980000  0  7 17 31  3 23 21  9  1               -0.001733598
   3769626.742 9   2933672.12447  22515309.106    22515308.8384   22515316.8404
     -1763.285       -1373.988
  -9332277.550 9  -7254147.59847  22262667.284    22262666.8574   22262673.5614
      2138.996        1666.750
  -2490408.831 9  -1927218.63348  21181563.562    21181563.6794   21181570.4954
      -179.077        -139.541
    707219.639 9    550890.92148  21631344.248    21631343.8174   21631350.3674
      -448.864        -349.764
  -4962576.693 9  -3859881.80148  20169980.200    20169979.9014   20169986.5274
      1250.834         974.676
  -4378052.959 9  -3400557.09247  23176356.922    23176356.9314   23176363.6584
       509.753         397.210
 -10085358.884 9  -7841683.64148  19972563.170    19972562.8024   19972569.5604
      2467.694        1922.878
 96 11  4 17 15 59.9980000  0  7 17 31  3 23 21  9  1               -0.001757654
   3822671.723 9   2975005.81247  22525403.116    22525403.0244   22525411.1254
     -1771.887       -1380.691
  -9396149.572 9  -7303918.00947  22250512.787    22250512.4204   22250519.1114
      2120.112        1652.035
  -2484748.097 9  -1922807.69048  21182640.690    21182640.8984   21182647.7144
      -197.141        -153.616
    720753.091 9    561436.45148  21633919.441    21633919.1484   21633925.7034
      -452.055        -352.251
  -4999965.071 9  -3889015.60548  20162865.340    20162865.1074   20162871.7634
      1242.933         968.519
  -4393056.474 9  -3412248.13347  23173501.747    23173501.8404   23173508.5464
       491.674         383.123
 -10159125.520 9  -7899164.12648  19958525.670    19958525.4714   19958532.2344
      2451.448        1910.219
 96 11  4 17 16 29.9980000  0  7 17 31  3 23 21  9  1               -0.001781715
   3875962.800 9   3016531.26647  22535544.112    22535544.0044   22535552.0044
     -1780.828       -1387.658
  -9459457.952 9  -7353249.21547  22238465.363    22238465.2514   22238471.9484
      2100.736        1636.937
  -2478549.760 9  -1917977.82948  21183820.131    21183820.3944   21183827.2014
      -215.670        -168.055
    734365.909 9    572043.83148  21636509.798    21636509.5804   21636516.1254
      -455.271        -354.757
  -5037121.203 9  -3917968.43648  20155794.712    20155794.5224   20155801.1964
      1234.482         961.934
  -4407524.516 9  -3423521.92247  23170748.538    23170748.6734   23170755.3704
       472.987         368.561
 -10232416.946 9  -7956274.31148  19944578.745    19944578.5774   19944585.3244
      2434.738        1897.198
 96 11  4 17 16 59.9980000  0  7 17 31  3 23 21  9  1               -0.001805784
   3929511.991 9   3058257.86847  22545734.388    22545734.2094   22545742.1974
     -1789.486       -1394.405
  -9522215.466 9  -7402151.18247  22226523.168    22226522.8874   22226529.5964
      2082.565        1622.778
  -2471826.570 9  -1912738.99648  21185099.429    21185099.7844   21185106.5964
      -233.007        -181.564
    748057.617 9    582712.68248  21639115.191    21639115.0454   21639121.5954
      -457.977        -356.865
  -5074048.311 9  -3946742.80848  20148767.626    20148767.5464   20148774.2054
      1227.010         956.112
  -4421444.293 9  -3434368.49947  23168099.638    23168099.8604   23168106.5714
       454.592         354.228
 -10305216.317 9  -8013001.08148  19930725.414    19930725.3004   19930732.0304
      2418.185        1884.300
 96 11  4 17 17 29.9980000  0  7 17 31  3 23 21  9  1               -0.001829830
   3983363.126 9   3100219.70547  22555981.701    22555981.6974   22555989.7764
     -1799.875       -1402.500
  -9584375.910 9  -7450587.89647  22214694.183    22214694.1594   22214700.8954
      2062.204        1606.912
  -2464535.660 9  -1907057.78648  21186486.864    21186487.2094   21186494.0184
      -252.140        -196.473
    761873.944 9    593478.63548  21641744.276    21641744.2204   21641750.7594
      -462.143        -360.111
  -5110715.105 9  -3975314.34048  20141790.111    20141790.0814   20141796.7634
      1218.536         949.509
  -4434767.065 9  -3444749.88247  23165564.427    23165564.6504   23165571.3334
       434.658         338.695
 -10377474.140 9  -8069305.86648  19916975.148    19916975.0974   19916981.8344
      2399.889        1870.043
 96 11  4 17 17 59.9980000  0  7 17 31  3 23 21  9  1               -0.001853824
   4037555.226 9   3142447.31447  22566294.293    22566294.2724   22566302.1264
     -1811.496       -1411.555
  -9645907.286 9  -7498534.43547  22202985.261    22202985.1244   22202991.8644
      2041.378        1590.684
  -2456659.180 9  -1900920.29048  21187985.707    21187986.0874   21187992.8824
      -271.366        -211.454
    775839.309 9    604360.72048  21644401.795    21644401.7584   21644408.3104
      -467.422        -364.225
  -5147121.812 9  -4003683.20248  20134862.208    20134862.1254   20134868.8064
      1210.011         942.866
  -4447476.423 9  -3454653.28447  23163145.839    23163146.1334   23163152.8104
       414.187         322.743
 -10449161.454 9  -8125166.09948  19903333.468    19903333.4754   19903340.1824
      2380.821        1855.185
 96 11  4 17 18 29.9980000  0  7 17 31  3 23 21  9  1               -0.001877799
   4092051.783 9   3184912.03847  22576664.355    22576664.5464   22576672.7444
     -1820.315       -1418.427
  -9706854.798 9  -7546026.00547  22191387.160    22191387.2114   22191393.9334
      2022.934        1576.312
  -2448250.558 9  -1894368.14048  21189585.807    21189586.2144   21189593.0204
      -287.908        -224.344
    789933.149 9    615342.91748  21647083.611    21647083.7054   21647090.2724
      -471.098        -367.089
  -5183305.088 9  -4031877.96448  20127976.692    20127976.6714   20127983.3754
      1203.490         937.784
  -4459617.249 9  -3464113.67547  23160835.460    23160835.7844   23160842.4044
       396.381         308.868
 -10520312.178 9  -8180608.20748  19889793.905    19889793.9284   19889800.6554
      2363.716        1841.857
 96 11  4 17 18 59.9980000  0  7 17 31  3 23 21  9  1               -0.001901779
   4146802.779 9   3227575.14146  22587083.386    22587083.3984   22587091.4234
     -1829.976       -1425.955
  -9767245.696 9  -7593083.85647  22179895.017    22179895.2234   22179901.9384
      2002.611        1560.476
  -2439348.709 9  -1887431.65648  21191279.767    21191280.1974   21191287.0014
      -305.947        -238.400
    804146.887 9    626418.54248  21649788.458    21649788.4954   21649795.0714
      -476.680        -371.439
  -5219299.717 9  -4059925.73348  20121127.106    20121127.1314   20121133.8534
      1195.788         931.783
  -4471220.660 9  -3473155.30947  23158627.328    23158627.6964   23158634.3544
       376.984         293.754
 -10590948.081 9  -8235649.16249  19876352.218    19876352.3664   19876359.0874
      2344.985        1827.261
 96 11  4 17 19 29.9980000  0  7 17 31  3 23 21  9  1               -0.001925751
   4201816.137 9   3270442.60947  22597551.935    22597552.0874   22597560.2344
     -1836.984       -1431.416
  -9827041.214 9  -7639677.77547  22168516.191    22168516.5254   22168523.2424
      1984.429        1546.308
  -2429933.461 9  -1880095.12148  21193071.286    21193071.8454   21193078.6654
      -320.914        -250.063
    818497.978 9    637601.19148  21652519.345    21652519.4324   21652526.0084
      -479.425        -373.578
  -5255088.501 9  -4087813.09848  20114316.658    20114316.7354   20114323.4824
      1190.829         927.919
  -4482272.968 9  -3481767.50147  23156524.075    23156524.5224   23156531.2294
       360.504         280.912
 -10661048.112 9  -8290272.55248  19863012.595    19863012.7804   19863019.5134
      2328.893        1814.722
 96 11  4 17 19 59.9980000  0  7 17 31  3 23 21  9  1               -0.001949754
   4257039.205 9   3313473.51046  22608060.592    22608060.7484   22608068.9514
     -1842.612       -1435.802
  -9886301.188 9  -7685854.38447  22157239.278    22157239.7114   22157246.4614
      1968.072        1533.562
  -2420075.564 9  -1872413.66548  21194947.137    21194947.7384   21194954.5334
      -334.514        -260.660
    832942.692 9    648856.79748  21655268.113    21655268.1794   21655274.7694
      -481.623        -375.291
  -5290727.141 9  -4115583.47048  20107534.767    20107534.9284   20107541.6774
      1186.881         924.842
  -4492818.366 9  -3489984.70047  23154517.362    23154517.7934   23154524.5274
       344.351         268.325
 -10730653.185 9  -8344510.26348  19849767.187    19849767.3854   19849774.1204
      2313.408        1802.656
 96 11  4 17 20 29.9980000  0  8 17 31  3 25 23 21  9  1            -0.001973764
   4312498.845 9   3356688.80247  22618614.212    22618614.4854   22618622.5304
     -1852.890       -1443.810
  -9944988.994 9  -7731585.13847  22146071.412    22146071.7804   22146078.5564
      1946.070        1516.418
  -2409721.143 9  -1864345.30748  21196917.460    21196918.1184   21196924.9414
      -353.961        -275.814
   -305551.60618   -215109.66155  24599380.258           0.0005          0.0005
      4437.575        3457.851
    847520.954 9    660216.47148  21658042.157    21658042.3164   21658048.9364
      -488.325        -380.513
  -5326168.832 9  -4143200.37148  20100790.458    20100790.6074   20100797.3634
      1177.808         917.772
  -4502807.308 9  -3497768.30547  23152616.463    23152616.9234   23152623.6664
       323.372         251.978
 -10799719.711 9  -8398328.31948  19836624.293    19836624.4274   19836631.2064
      2292.906        1786.680
 96 11  4 17 20 59.9980000  0  8 17 31  3 25 23 21  9  1            -0.001997767
   4368214.939 9   3400103.79147  22629216.538    22629216.7954   22629225.0914
     -1862.129       -1451.010
 -10003085.865 9  -7776855.43647  22135015.907    22135016.3584   22135023.1264
      1926.475        1501.149
  -2398852.483 9  -1855876.24548  21198985.639    21198986.3604   21198993.1924
      -371.102        -289.170
   -438751.172 8   -318901.61655  24574032.265           0.0005   24574045.6645
      4441.651        3461.027
    862220.873 9    671670.94148  21660839.385    21660839.6284   21660846.2394
      -492.014        -383.388
  -5361408.845 9  -4170660.12048  20094084.424    20094084.6724   20094091.4074
      1170.904         912.393
  -4512230.488 9  -3505111.04947  23150823.116    23150823.7434   23150830.4534
       304.467         237.247
 -10868236.816 9  -8451718.26148  19823585.906    19823586.0204   19823592.8174
      2274.514        1772.349
 96 11  4 17 21 29.9980000  0  8 17 31  3 25 23 21  9  1            -0.002021752
   4424220.228 9   3443744.31847  22639874.154    22639874.5054   22639882.4114
     -1871.728       -1458.489
 -10060592.046 9  -7821665.45147  22124072.961    22124073.2994   22124080.0764
      1907.097        1486.050
  -2387467.513 9  -1847004.86148  21201152.139    21201152.8714   21201159.7024
      -388.177        -302.476
   -572055.351 8   -422774.84145  24548664.881    24548668.0345   24548676.1474
      4444.880        3463.543
    877027.146 9    683208.28748  21663656.907    21663657.1554   21663663.7944
      -495.355        -385.991
  -5396435.730 9  -4197953.79548  20087419.052    20087419.3154   20087426.0114
      1163.977         906.995
  -4521086.452 9  -3512011.81147  23149138.035    23149138.5774   23149145.2444
       285.658         222.591
 -10936210.155 9  -8504684.48248  19810650.964    19810651.1194   19810657.9234
      2256.868        1758.598
 96 11  4 17 21 59.9970000  0  8 17 31  3 25 23 21  9  1            -0.002045711
   4480520.240 9   3487614.30447  22650587.684    22650587.9044   22650596.2534
     -1881.704       -1466.263
 -10117500.671 9  -7866009.84547  22113243.639    22113243.9404   22113250.7214
      1886.852        1470.274
  -2375544.636 9  -1837714.33548  21203421.063    21203421.7494   21203428.5684
      -406.629        -316.854
   -705427.407 8   -526701.00355  24523286.172    24523288.9474   24523298.6335
      4447.008        3465.201
    891940.601 9    694829.14548  21666494.792    21666495.0894   21666501.7264
      -498.707        -388.603
  -5431231.520 9  -4225067.40548  20080797.575    20080797.9034   20080804.5654
      1155.701         900.546
  -4529361.065 9  -3518459.57947  23147563.391    23147564.0374   23147570.6614
       266.263         207.478
 -11003638.471 9  -8557226.02148  19797819.741    19797819.9144   19797826.7094
      2238.777        1744.502
 96 11  4 17 22 29.9970000  0  8 17 31  3 25 23 21  9  1            -0.002069651
   4537102.851 9   3531704.65247  22661355.007    22661355.5184   22661363.4844
     -1892.263       -1474.491
 -10173811.704 9  -7909888.57747  22102527.943    22102528.2914   22102535.1014
      1865.478        1453.619
  -2363091.410 9  -1828010.54248  21205790.873    21205791.5354   21205798.3544
      -425.121        -331.263
   -838897.194 8   -630703.26245  24497888.121    24497889.7115   24497899.8504
      4449.249        3466.947
    906920.010 9    706501.40448  21669345.311    21669345.6094   21669352.2134
      -501.723        -390.953
  -5465796.810 9  -4252001.39848  20074220.030    20074220.3684   20074226.9884
      1146.928         893.710
  -4537084.724 9  -3524478.02447  23146093.590    23146094.2544   23146100.9294
       246.861         192.359
 -11070556.898 9  -8609370.23748  19785085.583    19785085.7334   19785092.5584
      2220.729        1730.438
 96 11  4 17 22 59.9970000  0  8 17 31  3 25 23 21  9  1            -0.002093551
   4594000.184 9   3576040.12947  22672182.137    22672182.5074   22672190.7764
     -1901.853       -1481.963
 -10229489.275 9  -7953273.71047  22091933.001    22091933.2404   22091940.0004
      1845.170        1437.795
  -2350107.865 9  -1817893.52248  21208261.600    21208262.2644   21208269.0704
      -441.653        -344.145
   -972436.277 8   -734759.56645  24472476.565    24472478.1554   24472487.9014
      4452.269        3469.301
    921990.753 9    718244.82148  21672213.121    21672213.4954   21672220.0944
      -504.310        -392.969
  -5500105.539 9  -4278735.47848  20067691.327    20067691.6314   20067698.2354
      1139.100         887.610
  -4544226.991 9  -3530043.43347  23144734.372    23144735.0764   23144741.7474
       228.209         177.825
 -11136943.511 9  -8661100.05648  19772452.548    19772452.7524   19772459.5914
      2203.891        1717.318
 96 11  4 17 23 29.9970000  0  8 17 31  3 25 23 21  9  1            -0.002117415
   4651195.952 9   3620608.20647  22683066.351    22683066.7844   22683074.9684
     -1911.711       -1489.645
 -10284531.631 9  -7996163.86647  22081458.587    22081459.0274   22081465.7954
      1823.854        1421.185
  -2336604.283 9  -1807371.26948  21210831.288    21210831.9494   21210838.7574
      -459.110        -357.748
  -1106056.158 8   -838878.86845  24447049.586    24447050.9764   24447060.8314
      4455.209        3471.591
    937169.091 9    730072.08148  21675101.517    21675101.8494   21675108.4484
      -508.261        -396.048
  -5534160.240 9  -4305271.61048  20061210.915    20061211.2684   20061217.8294
      1130.715         881.077
  -4550789.306 9  -3535156.93347  23143485.628    23143486.3324   23143492.9974
       208.790         162.694
 -11202806.613 9  -8712421.93948  19759919.087    19759919.4144   19759926.2524
      2186.322        1703.628
 96 11  4 17 23 59.9970000  0  8 17 31  3 25 23 21  9  1            -0.002141278
   4708631.074 9   3665362.78846  22693995.717    22693996.1764   22694004.3774
     -1918.737       -1495.120
 -10338999.550 9  -8038606.40247  22071093.835    22071094.1014   22071100.9024
      1805.807        1407.122
  -2322639.041 9  -1796489.28548  21213488.778    21213489.4554   21213496.2714
      -473.246        -368.763
  -1239829.769 8   -943117.92445  24421593.491    24421594.7114   24421604.4064
      4461.756        3476.693
    952415.368 9    741952.28048  21678002.761    21678003.1324   21678009.7374
      -509.800        -397.247
  -5568022.357 9  -4331657.67948  20054767.131    20054767.5194   20054774.0844
      1125.341         876.889
  -4556833.528 9  -3539866.73247  23142335.457    23142336.1754   23142342.8424
       192.854         150.276
 -11268197.036 9  -8763375.50749  19747475.673    19747476.0164   19747482.8524
      2171.622        1692.173
 96 11  4 17 24 29.9970000  0  8 17 31  3 25 23 21  9  1            -0.002165095
   4766384.832 9   3710365.66247  22704986.226    22704986.7404   22704994.9094
     -1931.203       -1504.834
 -10392823.218 9  -8080546.92848  22060851.484    22060851.8034   22060858.5954
      1782.816        1389.207
  -2308151.090 9  -1785199.99648  21216245.661    21216246.4044   21216253.2724
      -492.386        -383.677
  -1373702.951 8  -1047434.52545  24396118.622    24396119.5134   24396128.7974
      4463.267        3477.870
    967828.113 9    753962.19348  21680935.719    21680936.0904   21680942.6824
      -517.537        -403.276
  -5601624.384 9  -4357841.07748  20048372.964    20048373.2604   20048379.8274
      1115.161         868.957
  -4562301.531 9  -3544127.52947  23141295.007    23141295.6284   23141302.2884
       171.922         133.965
 -11333040.364 9  -8813902.76849  19735136.431    19735136.7374   19735143.5544
      2151.521        1676.510
 96 11  4 17 24 59.9970000  0  8 17 31  3 25 23 21  9  1            -0.002188874
   4824449.595 9   3755610.79846  22716035.507    22716035.8284   22716044.1794
     -1941.272       -1512.679
 -10446026.447 9  -8122003.99448  22050727.198    22050727.5564   22050734.3644
      1762.400        1373.299
  -2293147.014 9  -1773508.52548  21219100.921    21219101.6024   21219108.4864
      -509.798        -397.245
  -1507673.833 8  -1151827.30245  24370624.785    24370625.5514   24370634.8914
      4466.421        3480.328
    983426.718 9    766116.93648  21683904.031    21683904.4224   21683911.0194
      -523.983        -408.298
  -5634981.105 9  -4383833.32648  20042025.413    20042025.7074   20042032.2784
      1106.938         862.549
  -4567210.346 9  -3547952.58947  23140360.955    23140361.5124   23140368.1944
       153.574         119.668
 -11397340.440 9  -8864006.70948  19722900.489    19722900.8444   19722907.6604
      2133.368        1662.365
 96 11  4 17 25 29.9970000  0  8 17 31  3 25 23 21  9  1            -0.002212649
   4882765.633 9   3801051.91147  22727132.829    22727133.3204   22727141.3944
     -1945.003       -1515.587
 -10498670.180 9  -8163025.09648  22040709.433    22040709.8304   22040716.6064
      1748.482        1362.454
  -2277655.291 9  -1761437.07348  21222048.974    21222049.6034   21222056.5254
      -521.579        -406.425
  -1641789.208 8  -1256332.77245  24345103.434    24345104.3424   24345113.5224
      4475.653        3487.522
    999166.577 9    778381.74548  21686899.275    21686899.6354   21686906.2454
      -523.960        -408.281
  -5668141.114 9  -4409672.29748  20035715.324    20035715.5824   20035722.1374
      1105.052         861.079
  -4571612.740 9  -3551383.03247  23139523.336    23139523.7534   23139530.4544
       141.220         110.041
 -11461135.313 9  -8913716.99249  19710760.848    19710761.0894   19710767.8994
      2120.977        1652.709
 96 11  4 17 25 59.9970000  0  8 17 31  3 25 23 21  9  1            -0.002236484
   4941236.461 9   3846613.38846  22738259.345    22738259.6344   22738268.2614
     -1952.814       -1521.673
 -10550847.975 9  -8203683.12448  22030780.386    22030780.7144   22030787.5014
      1729.871        1347.951
  -2261764.083 9  -1749054.33648  21225072.926    21225073.5974   21225080.5534
      -537.694        -418.982
  -1776115.896 8  -1361002.72545  24319542.177    24319542.8454   24319551.8034
      4479.524        3490.538
   1014952.817 9    790682.69148  21689903.300    21689903.6764   21689910.2674
      -528.153        -411.548
  -5701189.779 9  -4435424.50748  20029426.451    20029426.6344   20029433.1804
      1098.256         855.784
  -4575597.634 9  -3554488.15247  23138764.868    23138765.4914   23138772.1724
       124.435          96.962
 -11524509.259 9  -8963099.27749  19698701.167    19698701.4644   19698708.2544
      2104.021        1639.497
 96 11  4 17 26 29.9970000  0  8 17 31  3 25 23 21  9  1            -0.002260330
   4999926.255 9   3892345.77147  22749427.695    22749428.3044   22749436.3214
     -1959.628       -1526.983
 -10602461.586 9  -8243901.53148  22020958.473    22020958.9514   22020965.7614
      1711.442        1333.591
  -2245400.387 9  -1736303.42448  21228186.777    21228187.5254   21228194.5094
      -552.969        -430.885
  -1910550.006 8  -1465756.41045  24293959.859    24293960.6634   24293969.9274
      4482.993        3493.241
   1030850.456 9    803070.44948  21692928.529    21692928.9164   21692935.5284
      -531.174        -413.902
  -5734036.772 9  -4461019.57148  20023175.851    20023176.0614   20023182.6144
      1091.881         850.816
  -4579073.362 9  -3557196.51747  23138103.488    23138104.0514   23138110.7584
       107.288          83.601
 -11587372.651 9  -9012083.72849  19686738.526    19686738.9574   19686745.7684
      2087.144        1626.346
 96 11  4 17 26 59.9970000  0  8 17 31  3 25 23 21  9  1            -0.002284180
   5058842.500 8   3938254.36746  22760639.101    22760639.4954   22760648.0464
     -1967.291       -1532.954
 -10653504.957 9  -8283675.59348  22011245.448    22011245.7374   22011252.5214
      1692.054        1318.484
  -2228553.244 9  -1723175.80448  21231392.671    21231393.4044   21231400.4284
      -569.493        -443.761
  -2045067.569 8  -1570575.29845  24268362.184    24268362.8874   24268372.1574
      4485.605        3495.277
   1046853.013 9    815539.95148  21695973.771    21695974.1314   21695980.7444
      -534.873        -416.784
  -5766669.274 9  -4486447.49748  20016966.127    20016966.3034   20016972.8564
      1084.420         845.003
  -4581994.819 9  -3559472.98247  23137547.535    23137548.0954   23137554.8444
        88.063          68.621
 -11649707.478 9  -9060656.31449  19674876.652    19674877.0284   19674883.8254
      2069.133        1612.311
 96 11  4 17 27 29.9970000  0  8 17 31  3 25 23 21  9  1            -0.002308026
   5117987.543 9   3984341.34847  22771894.074    22771894.7284   22771903.1554
     -1974.862       -1538.854
 -10703957.733 9  -8322989.45248  22001644.533    22001644.8634   22001651.7084
      1672.310        1303.099
  -2211214.789 9  -1709665.34248  21234692.109    21234692.8064   21234699.8774
      -585.293        -456.072
  -2179664.525 8  -1675455.92745  24242749.297    24242749.9484   24242758.8934
      4488.321        3497.393
   1062960.767 9    828091.43048  21699038.978    21699039.3334   21699045.9764
      -538.121        -419.315
  -5799082.747 9  -4511704.75648  20010797.985    20010798.2354   20010804.7734
      1077.267         839.429
  -4584330.242 9  -3561292.80847  23137103.133    23137103.5984   23137110.4604
        68.838          53.640
 -11711492.291 9  -9108800.31649  19663119.301    19663119.7984   19663126.5784
      2050.901        1598.105
 96 11  4 17 27 59.9970000  0  8 17 31  3 25 23 21  9  1            -0.002331886
   5177346.388 8   4030594.95746  22783189.854    22783190.2364   22783198.6604
     -1983.272       -1545.407
 -10753835.218 9  -8361855.03648  21992153.151    21992153.4974   21992160.3674
      1651.955        1287.238
  -2193436.621 9  -1695812.24548  21238075.196    21238075.8914   21238082.9874
      -600.794        -468.151
  -2314357.103 8  -1780411.01545  24217118.011    24217118.8804   24217127.5464
      4490.556        3499.135
   1079146.481 9    840703.65648  21702119.004    21702119.3694   21702126.0414
      -541.753        -422.145
  -5831300.397 9  -4536809.42748  20004667.215    20004667.4084   20004673.9704
      1069.648         833.492
  -4586116.911 9  -3562685.02447  23136763.085    23136763.5844   23136770.5664
        49.452          38.534
 -11772755.604 9  -9156537.95649  19651461.240    19651461.7904   19651468.5514
      2032.495        1583.762
 96 11  4 17 28 29.9970000  0  8 17 31  3 25 23 21  9  1            -0.002355735
   5236962.132 9   4077048.68947  22794534.173    22794534.8034   22794543.2334
     -1991.182       -1551.570
 -10803110.521 9  -8400251.38548  21982776.465    21982776.7344   21982783.6134
      1633.250        1272.662
  -2175191.541 9  -1681595.32448  21241547.145    21241547.8674   21241554.9324
      -615.528        -479.632
  -2449127.453 8  -1885426.84645  24191472.103    24191472.8554   24191481.4534
      4494.303        3502.054
   1095439.421 9    853399.43548  21705219.399    21705219.8444   21705226.5154
      -544.558        -424.331
  -5863295.785 9  -4561740.90548  19998578.671    19998578.8824   19998585.4714
      1063.424         828.642
  -4587322.139 9  -3563624.16647  23136533.703    23136534.2384   23136541.1834
        31.042          24.189
 -11833471.340 9  -9203848.91249  19639907.505    19639907.9774   19639914.7304
      2015.401        1570.442
 96 11  4 17 28 59.9970000  0  8 17 31  3 25 23 21  9  1            -0.002379569
   5296843.030 9   4123709.05546  22805929.361    22805929.8444   22805938.3114
     -2000.946       -1559.179
 -10851807.750 9  -8438197.28748  21973509.624    21973509.9684   21973516.8474
      1612.896        1256.802
  -2156478.626 9  -1667013.85148  21245108.184    21245108.8274   21245115.8834
      -631.942        -492.422
  -2583988.575 8  -1990513.33045  24165808.450    24165809.3254   24165817.9914
      4496.472        3503.744
   1111848.086 9    866185.39048  21708341.961    21708342.3384   21708349.0074
      -549.404        -428.107
  -5895085.953 9  -4586512.47348  19992529.222    19992529.4234   19992536.0094
      1055.757         822.668
  -4587964.310 9  -3564124.57847  23136411.481    23136412.0044   23136418.9844
        11.920           9.288
 -11893660.390 9  -9250749.46449  19628454.004    19628454.3964   19628461.1274
      1997.135        1556.209
 96 11  4 17 29 29.9970000  0  8 17 31  3 25 23 21  9  1            -0.002403418
   5356947.105 9   4170543.32546  22817366.694    22817367.2094   22817375.6124
     -2007.753       -1564.483
 -10899953.188 9  -8475713.22348  21964347.852    21964348.1954   21964355.0874
      1595.236        1243.041
  -2137354.955 9  -1652112.31548  21248747.346    21248747.9714   21248755.0344
      -644.597        -502.283
  -2718975.533 8  -2095697.84646  24140121.457    24140122.0984   24140130.9584
      4501.003        3507.275
   1128334.680 9    879032.06848  21711479.331    21711479.6754   21711486.3504
      -551.268        -429.559
  -5926706.948 9  -4611152.21848  19986512.025    19986512.1774   19986518.7284
      1050.496         818.568
  -4588118.454 9  -3564244.70847  23136382.111    23136382.6694   23136389.6644
        -3.293          -2.566
 -11953371.018 9  -9297277.21849  19617091.556    19617091.8394   19617098.5764
      1982.058        1544.461
 96 11  4 17 29 59.9970000  0  8 17 31  3 25 23 21  9  1            -0.002427252
   5417328.463 9   4217593.69747  22828857.256    22828857.5694   22828866.0084
     -2018.297       -1572.699
 -10947501.826 9  -8512764.12048  21955299.604    21955299.9894   21955306.8724
      1574.023        1226.511
  -2117771.712 9  -1636852.66648  21252473.987    21252474.5324   21252481.6014
      -661.659        -515.578
  -2854020.757 8  -2200927.84645  24114423.038    24114424.0024   24114432.5554
      4501.348        3507.544
   1144951.113 9    891979.92148  21714641.400    21714641.7044   21714648.3694
      -556.946        -433.984
  -5958088.432 9  -4635605.32648  19980540.465    19980540.4704   19980547.0314
      1041.133         811.272
  -4587733.787 9  -3563944.97947  23136455.332    23136455.8744   23136462.8554
       -22.951         -17.884
 -12012558.232 9  -9343397.11649  19605828.644    19605828.9144   19605835.6484
      1963.162        1529.737
 96 11  4 17 30 29.9970000  0  8 17 31  3 25 23 21  9  1            -0.002451063
   5477988.935 9   4264861.40346  22840400.243    22840400.6084   22840409.5154
     -2026.245       -1578.892
 -10994449.713 9  -8549346.89948  21946365.849    21946366.1174   21946372.9734
      1555.156        1211.810
  -2097703.689 9  -1621215.26248  21256292.739    21256293.3764   21256300.4544
      -676.730        -527.322
  -2989106.980 8  -2306189.83945  24088717.111    24088717.9184   24088726.1224
      4503.769        3509.430
   1161698.401 9    905029.73848  21717828.334    21717828.6134   21717835.2964
      -560.225        -436.539
  -5989219.219 9  -4659863.09148  19974616.526    19974616.5064   19974623.0544
      1033.700         805.481
  -4586792.711 9  -3563211.68547  23136634.468    23136634.9894   23136641.9194
       -40.363         -31.452
 -12071213.621 9  -9389102.60549  19594667.013    19594667.1584   19594673.9044
      1946.512        1516.763
 96 11  4 17 30 59.9970000  0  8 17 31  3 25 23 21  9  1            -0.002474866
   5538895.387 9   4312321.03046  22851990.618    22851990.9864   22851999.4024
     -2033.679       -1584.685
 -11040807.241 9  -8585469.65948  21937544.485    21937544.5684   21937551.4534
      1535.468        1196.468
  -2077170.698 9  -1605215.55248  21260200.024    21260200.6884   21260207.7624
      -691.833        -539.091
  -3124244.027 8  -2411491.34745  24063001.492    24063002.2384   24063010.5484
      4505.892        3511.085
   1178563.326 9    918171.21648  21721037.669    21721037.9224   21721044.5974
      -563.704        -439.250
  -6020110.022 9  -4683933.84948  19968738.173    19968738.2034   19968744.7404
      1025.938         799.432
  -4585312.492 9  -3562058.28647  23136916.137    23136916.6844   23136923.6044
       -57.981         -45.180
 -12129342.557 9  -9434397.87149  19583605.397    19583605.5514   19583612.3124
      1928.983        1503.104
 96 11  4 17 31 29.9970000  0  8 17 31  3 25 23 21  9  1            -0.002498686
   5600010.893 8   4359943.36446  22863620.536    22863620.8244   22863629.4794
     -2040.969       -1590.365
 -11086583.457 9  -8621139.45247  21928833.735    21928833.6584   21928840.5264
      1516.060        1181.345
  -2056194.540 9  -1588870.52148  21264191.641    21264192.3224   21264199.3914
      -706.973        -550.888
  -3259459.441 8  -2516853.98845  24037270.613    24037271.2834   24037279.9044
      4508.105        3512.809
   1195514.688 9    931380.04948  21724263.375    21724263.6604   21724270.3464
      -566.721        -441.601
  -6050776.544 9  -4707829.85048  19962902.477    19962902.5684   19962909.1134
      1018.283         793.467
  -4583313.102 9  -3560500.32847  23137296.627    23137297.1714   23137304.0354
       -75.571         -58.886
 -12186950.150 9  -9479286.90049  19572642.976    19572643.1924   19572649.9554
      1911.177        1489.229
 96 11  4 17 31 59.9970000  0  8 17 31  3 25 23 21  9  1            -0.002522501
   5661336.213 9   4407729.21846  22875290.354    22875290.8574   22875299.4614
     -2047.770       -1595.665
 -11131791.602 9  -8656366.58948  21920230.849    21920230.8274   21920237.7054
      1497.335        1166.755
  -2034762.251 9  -1572170.05648  21268270.069    21268270.7684   21268277.8664
      -722.189        -562.745
  -3394753.913 8  -2622278.18445  24011524.716    24011525.3104   24011534.2384
      4511.234        3515.247
   1212544.915 9    944650.33548  21727504.161    21727504.4264   21727511.1224
      -568.949        -443.337
  -6081237.489 9  -4731565.65648  19957105.876    19957106.0534   19957112.5984
      1012.268         788.780
  -4580796.473 9  -3558539.35547  23137775.549    23137776.0584   23137782.9704
       -92.448         -72.037
 -12244032.004 9  -9523766.25549  19561780.493    19561780.8574   19561787.6244
      1893.993        1475.839
 96 11  4 17 32 29.9970000  0  8 17 31  3 25 23 21  9  1            -0.002546321
   5722879.651 8   4455685.15846  22887001.751    22887002.2694   22887010.6604
     -2055.141       -1601.409
 -11176421.372 9  -8691143.04248  21911737.861    21911738.0394   21911744.9234
      1477.928        1151.632
  -2012865.967 9  -1555108.03648  21272436.726    21272437.5014   21272444.6044
      -737.542        -574.708
  -3530137.200 8  -2727771.65845  23985761.942    23985762.7054   23985771.6874
      4514.397        3517.712
   1229659.573 9    957986.40748  21730760.968    21730761.2704   21730767.9304
      -572.206        -445.875
  -6111505.714 9  -4755151.29148  19951345.959    19951346.2184   19951352.7754
      1005.682         783.648
  -4577766.770 9  -3556178.56747  23138352.049    23138352.6184   23138359.5014
      -109.635         -85.430
 -12300589.253 9  -9567836.82948  19551018.000    19551018.3794   19551025.1454
      1876.468        1462.183
 96 11  4 17 32 59.9970000  0  8 17 31  3 25 23 21  9  1            -0.002570126
   5784670.867 9   4503834.01947  22898760.115    22898760.7374   22898769.3464
     -2064.465       -1608.674
 -11220445.810 9  -8725447.81547  21903360.257    21903360.4864   21903367.3824
      1456.937        1135.275
  -1990485.883 9  -1537669.03448  21276695.583    21276696.3094   21276703.3914
      -754.561        -587.970
  -3665599.493 8  -2833326.57645  23959984.222    23959984.9814   23959993.9984
      4516.284        3519.182
   1246899.565 9    971420.14748  21734041.569    21734041.9474   21734048.6234
      -577.159        -449.734
  -6141563.501 9  -4778572.94748  19945626.131    19945626.4254   19945632.9804
       997.937         777.613
  -4574204.480 9  -3553402.77847  23139029.904    23139030.5544   23139037.5034
      -127.923         -99.680
 -12356599.366 9  -9611481.06548  19540359.579    19540360.0034   19540366.7744
      1857.499        1447.402
 96 11  4 17 33 29.9970000  0  8 17 31  3 25 23 21  9  1            -0.002593902
   5846745.845 9   4552204.01946  22910572.883    22910573.4044   22910582.0564
     -2073.257       -1615.525
 -11263851.445 9  -8759270.39847  21895100.230    21895100.6974   21895107.5654
      1437.440        1120.083
  -1967611.594 9  -1519844.93248  21281048.452    21281049.1674   21281056.2424
      -769.794        -599.839
  -3801124.826 8  -2938930.78645  23934194.620    23934195.4444   23934204.4434
      4519.214        3521.465
   1264277.131 9    984961.08748  21737348.338    21737348.7844   21737355.4984
      -580.790        -452.564
  -6171399.982 9  -4801822.15248  19939948.524    19939948.7434   19939955.2744
       991.674         772.733
  -4570102.091 9  -3550206.12447  23139810.608    23139811.2544   23139818.2754
      -145.061        -113.035
 -12412059.502 9  -9654696.74748  19529805.909    19529806.2754   19529813.0614
      1840.469        1434.132
 96 11  4 17 33 59.9970000  0  8 17 31  3 25 23 21  9  1            -0.002617673
   5909064.202 8   4600763.74246  22922431.727    22922432.1664   22922440.6354
     -2081.508       -1621.954
 -11306696.847 9  -8792656.43847  21886947.179    21886947.5334   21886954.4524
      1418.574        1105.382
  -1944302.133 9  -1501681.74248  21285484.008    21285484.8254   21285491.9074
      -784.296        -611.140
  -3936748.541 8  -3044611.48645  23908386.145    23908386.9534   23908395.8084
      4522.246        3523.828
   1281754.099 9    998579.47848  21740674.121    21740674.5784   21740681.2904
      -584.559        -455.501
  -6201057.492 9  -4824931.89748  19934304.807    19934305.0984   19934311.6414
       985.047         767.569
  -4565491.166 9  -3546613.20947  23140688.019    23140688.7614   23140695.7234
      -162.682        -126.765
 -12467029.235 9  -9697530.29548  19519345.465    19519345.8684   19519352.6924
      1824.054        1421.341
 96 11  4 17 34 29.9970000  0  8 17 31  3 25 23 21  9  1            -0.002641429
   5971635.026 9   4649520.17746  22934338.563    22934339.1064   22934347.5974
     -2090.364       -1628.855
 -11348965.102 9  -8825592.75848  21878903.927    21878904.1404   21878911.0664
      1398.640        1089.849
  -1920557.091 9  -1483179.13848  21290002.533    21290003.3584   21290010.4364
      -799.162        -622.724
  -4072456.342 8  -3150357.77945  23882561.801    23882562.6834   23882571.3354
      4524.333        3525.454
   1299363.669 9   1012301.19848  21744025.113    21744025.5824   21744032.3174
      -589.849        -459.623
  -6230490.019 9  -4847866.33248  19928703.938    19928704.2654   19928710.8244
       976.581         760.972
  -4560338.764 9  -3542598.36847  23141668.655    23141669.2814   23141676.2134
      -181.359        -141.319
 -12521492.219 9  -9739968.97648  19508981.576    19508981.9114   19508988.7184
      1806.362        1407.555
 96 11  4 17 34 59.9970000  0  8 17 31  3 25 23 21  9  1            -0.002665169
   6034456.026 9   4698471.45546  22946293.041    22946293.6404   22946302.3304
     -2097.713       -1634.582
 -11390650.102 9  -8858074.59147  21870971.427    21870971.7424   21870978.6634
      1380.092        1075.396
  -1896383.306 9  -1464342.44248  21294602.641    21294603.5094   21294610.5804
      -812.519        -633.132
  -4208237.844 8  -3256161.52645  23856723.351    23856724.3564   23856732.7594
      4527.585        3527.988
   1317111.948 9   1026131.00548  21747402.587    21747403.0084   21747409.7264
      -593.331        -462.336
  -6259688.675 9  -4870618.53148  19923147.559    19923147.9324   19923154.4794
       969.757         755.655
  -4554642.133 9  -3538159.44747  23142752.686    23142753.3334   23142760.2274
      -198.502        -154.677
 -12575443.986 9  -9782009.30748  19498714.856    19498715.2354   19498722.0454
      1790.435        1395.144
 96 11  4 17 35 29.9970000  0  8 17 31  3 25 23 21  9  1            -0.002688904
   6097490.870 9   4747589.44246  22958288.294    22958288.8454   22958297.5014
     -2104.681       -1640.011
 -11431771.700 9  -8890117.40848  21863146.060    21863146.5404   21863153.4504
      1361.241        1060.707
  -1871809.157 9  -1445193.78248  21299278.996    21299279.8364   21299286.9264
      -825.897        -643.556
  -4344101.867 9  -3362029.49646  23830869.246    23830870.2154   23830878.4214
      4529.999        3529.869
   1334968.491 9   1040045.16748  21750800.579    21750801.0114   21750807.7344
      -597.164        -465.323
  -6288667.280 9  -4893199.26048  19917633.114    19917633.4754   19917640.0224
       962.135         749.716
  -4548420.186 9  -3533311.17847  23143936.629    23143937.3604   23143944.2274
      -216.251        -168.507
 -12628917.033 9  -9823676.60848  19488539.319    19488539.6564   19488546.4724
      1774.285        1382.560
 96 11  4 17 35 59.9970000  0  8 17 31  3 25 23 21  9  1            -0.002712631
   6160736.855 9   4796872.00446  22970323.668    22970324.2394   22970332.7044
     -2112.175       -1645.851
 -11472321.458 9  -8921714.63447  21855429.901    21855430.2384   21855437.1394
      1341.500        1045.325
  -1846826.500 9  -1425726.80648  21304033.103    21304033.9134   21304040.9834
      -840.080        -654.608
  -4480034.804 9  -3467951.19345  23805002.261    23805003.2054   23805011.4674
      4531.863        3531.322
   1352943.654 9   1054051.75848  21754221.199    21754221.5754   21754228.3304
      -601.462        -468.672
  -6317408.860 9  -4915595.29548  19912163.710    19912164.1074   19912170.6874
       953.758         743.188
  -4541668.168 9  -3528049.88847  23145221.461    23145222.2314   23145229.1074
      -234.238        -182.523
 -12681895.790 9  -9864958.74648  19478457.752    19478458.1244   19478464.9374
      1757.300        1369.325
 96 11  4 17 36 29.9970000  0  8 17 31  3 25 23 21  9  1            -0.002736344
   6224201.368 9   4846324.76846  22982400.673    22982401.1944   22982409.8984
     -2119.237       -1651.354
 -11512276.893 9  -8952848.75347  21847826.874    21847827.0274   21847833.8884
      1321.698        1029.895
  -1821413.532 9  -1405924.52248  21308868.979    21308869.8514   21308876.9154
      -854.536        -665.872
  -4616026.496 9  -3573918.66946  23779123.956    23779124.8194   23779132.9894
      4533.896        3532.906
   1371033.288 9   1068147.55248  21757663.570    21757663.9484   21757670.7004
      -604.809        -471.280
  -6345913.778 9  -4937806.91748  19906739.426    19906739.7964   19906746.3814
       946.310         737.384
  -4534393.698 9  -3522381.47647  23146605.843    23146606.5604   23146613.4104
      -251.076        -195.644
 -12734369.141 9  -9905847.06248  19468472.237    19468472.7704   19468479.5694
      1740.620        1356.327
 96 11  4 17 36 59.9970000  0  8 17 31  3 25 23 21  9  1            -0.002760044
   6287879.296 9   4895943.76946  22994518.005    22994518.6554   22994527.4844
     -2126.174       -1656.759
 -11551638.359 9  -8983520.04148  21840336.637    21840336.8134   21840343.6474
      1302.139        1014.654
  -1795565.370 9  -1385783.12448  21313787.682    21313788.6194   21313795.6754
      -869.076        -677.202
  -4752072.403 9  -3679928.41946  23753235.389    23753236.2224   23753244.3924
      4535.522        3534.173
   1389214.882 9   1082314.99748  21761123.353    21761123.7794   21761130.5724
      -607.550        -473.416
  -6374207.223 9  -4959853.75948  19901355.391    19901355.7214   19901362.3284
       939.471         732.055
  -4526622.392 9  -3516325.92747  23148084.664    23148085.3854   23148092.2224
      -267.410        -208.371
 -12786345.582 9  -9946348.17748  19458581.402    19458581.9974   19458588.7834
      1723.935        1343.326
 96 11  4 17 37 29.9970000  0  8 17 31  3 25 23 21  9  1            -0.002783750
   6351752.702 9   4945715.32746  23006672.897    23006673.6314   23006681.8474
     -2132.777       -1661.904
 -11590425.021 9  -9013743.42947  21832955.727    21832956.0374   21832962.8444
      1282.911         999.671
  -1769287.041 9  -1365306.53548  21318788.325    21318789.2724   21318796.3244
      -883.442        -688.396
  -4888168.899 9  -3785977.55046  23727337.134    23727337.9464   23727346.0974
      4536.918        3535.261
   1407463.856 9   1096534.94148  21764596.033    21764596.4424   21764603.2544
      -609.711        -475.099
  -6402293.010 9  -4981738.78548  19896010.808    19896011.1644   19896017.7704
       932.395         726.542
  -4518362.277 9  -3509889.48647  23149656.616    23149657.2504   23149664.0964
      -283.957        -221.265
 -12837815.554 9  -9986454.63848  19448787.097    19448787.6004   19448794.3674
      1706.592        1329.812
 96 11  4 17 37 59.9970000  0  8 17 31  3 25 23 21  9  1            -0.002807465
   6415828.779 9   4995644.62746  23018866.343    23018866.9634   23018875.3714
     -2139.228       -1666.931
 -11628631.785 9  -9043514.95048  21825685.277    21825685.5354   21825692.3494
      1263.776         984.761
  -1742578.904 9  -1344495.03248  21323870.812    21323871.7224   21323878.7444
      -897.442        -699.305
  -5024307.015 9  -3892059.15746  23701430.810    23701431.7004   23701439.7924
      4538.543        3536.527
   1425773.812 9   1110802.40348  21768080.371    21768080.7374   21768087.5604
      -611.444        -476.450
  -6430176.689 9  -5003466.32348  19890704.728    19890705.0694   19890711.6914
       926.127         721.657
  -4509606.545 9  -3503066.85947  23151322.689    23151323.3864   23151330.3104
      -300.378        -234.061
 -12888759.121 9 -10026150.92048  19439092.844    19439093.3674   19439100.1144
      1689.271        1316.315
 96 11  4 17 38 29.9970000  0  8 17 31  3 25 23 21  9  1            -0.002831182
   6480110.747 9   5045734.31646  23031098.813    23031099.3664   23031108.0164
     -2146.385       -1672.508
 -11666251.649 9  -9072829.14747  21818526.403    21818526.6864   21818533.4584
      1244.132         969.454
  -1715430.393 9  -1323340.37748  21329037.051    21329037.9624   21329044.9754
      -912.308        -710.889
  -5160469.525 9  -3998159.72646  23675519.971    23675520.6874   23675528.9374
      4538.883        3536.792
   1444160.719 9   1125129.83248  21771579.260    21771579.6824   21771586.4944
      -614.435        -478.781
  -6457854.238 9  -5025033.24648  19885437.737    19885438.2104   19885444.7924
       918.951         716.066
  -4500333.092 9  -3495840.80047  23153087.318    23153088.0274   23153094.9874
      -317.904        -247.717
 -12939160.309 9 -10065424.56448  19429501.789    19429502.3684   19429509.0874
      1670.820        1301.938
 96 11  4 17 38 59.9970000  0  8 17 31  3 25 23 21  9  1            -0.002854903
   6544604.700 9   5095989.31746  23043371.761    23043372.3164   23043380.6784
     -2153.641       -1678.162
 -11703292.333 9  -9101692.03548  21811478.006    21811478.0544   21811484.8504
      1224.737         954.341
  -1687854.647 9  -1301852.80848  21334284.618    21334285.4694   21334292.4724
      -926.503        -721.950
  -5296649.027 9  -4104273.61846  23649605.793    23649606.6134   23649614.7964
      4539.335        3537.144
   1462634.697 9   1139525.11048  21775094.770    21775095.1914   21775101.9834
      -617.679        -481.308
  -6485320.344 9  -5046435.40548  19880211.191    19880211.6014   19880218.1724
       911.573         710.317
  -4490539.560 9  -3488209.49047  23154951.023    23154951.7144   23154958.7224
      -335.648        -261.544
 -12989017.276 9 -10104274.14248  19420014.543    19420014.9014   19420021.6054
      1652.582        1287.726
 96 11  4 17 39 29.9970000  0  8 17 31  3 25 23 21  9  1            -0.002878624
   6609307.981 9   5146407.41446  23055684.513    23055685.1024   23055693.4494
     -2160.984       -1683.884
 -11739765.744 9  -9130112.89647  21804537.250    21804537.3894   21804544.2274
      1205.786         939.574
  -1659876.945 9  -1280052.03148  21339608.584    21339609.4684   21339616.4774
      -939.555        -732.121
  -5432855.015 9  -4210408.05346  23623686.701    23623687.3934   23623695.5324
      4540.090        3537.732
   1481198.141 9   1153990.10248  21778627.315    21778627.7054   21778634.5214
      -621.026        -483.916
  -6512574.487 9  -5067672.39848  19875024.950    19875025.3304   19875031.8714
       904.456         704.771
  -4480215.049 9  -3480164.43647  23156915.766    23156916.4174   23156923.4234
      -353.455        -275.419
 -13038353.803 9 -10142718.17848  19410626.152    19410626.4724   19410633.1854
      1635.646        1274.529
 96 11  4 17 39 59.9970000  0  9 17 31  3 25 23 15 21  9  1         -0.002902339
   6674232.082 9   5196997.48046  23068039.188    23068039.6874   23068048.2164
     -2167.601       -1689.040
 -11775682.307 9  -9158099.84348  21797702.519    21797702.7264   21797709.5864
      1188.070         925.769
  -1631519.714 9  -1257955.52248  21345004.842    21345005.7054   21345012.7054
      -951.493        -741.423
  -5569095.538 9  -4316569.49746  23597760.710    23597761.6804   23597769.8314
      4542.087        3539.289
   1499872.303 9   1168541.36347  21782180.867    21782181.2804   21782188.1074
      -624.433        -486.571
  -2208388.33419  -1701059.63356  24098784.404    24098786.2345   24098794.4385
      4830.373        3763.927
  -6539627.572 9  -5088752.72548  19869876.892    19869877.3064   19869883.8164
       898.529         700.152
  -4469372.833 9  -3471715.97647  23158979.074    23158979.6614   23158986.6554
      -369.704        -288.081
 -13087196.412 9 -10180777.34948  19401331.748    19401332.0214   19401338.7524
      1620.077        1262.398
 96 11  4 17 40 29.9970000  0  9 17 31  3 25 23 15 21  9  1         -0.002926046
   6739378.554 9   5247760.89346  23080436.244    23080436.8204   23080445.2484
     -2175.353       -1695.080
 -11811046.239 9  -9185656.16548  21790972.938    21790973.2244   21790980.1044
      1169.413         911.231
  -1602777.832 9  -1235559.28148  21350474.288    21350475.1214   21350482.1284
      -964.527        -751.579
  -5705367.642 9  -4422755.47046  23571829.046    23571829.8934   23571838.1564
      4542.895        3539.918
   1518670.401 9   1183189.19747  21785757.976    21785758.4414   21785765.2804
      -628.524        -489.759
  -2353304.515 9  -1813981.33246  24071208.072    24071209.5964   24071217.8434
      4830.862        3764.308
  -6566472.281 9  -5109670.68148  19864768.578    19864768.9284   19864775.4254
       891.241         694.474
  -4458029.650 9  -3462877.14747  23161137.548    23161138.2004   23161145.2004
      -386.368        -301.066
 -13135552.162 9 -10218457.14648  19392129.965    19392130.2234   19392136.9654
      1603.845        1249.749
 96 11  4 17 40 59.9970000  0  9 17 31  3 25 23 15 21  9  1         -0.002949732
   6804759.441 9   5298706.99746  23092878.007    23092878.4634   23092886.7894
     -2183.051       -1701.079
 -11845838.963 9  -9212767.39148  21784352.115    21784352.4064   21784359.2914
      1150.168         896.235
  -1573644.421 9  -1212857.95448  21356018.147    21356019.0474   21356026.0454
      -977.685        -761.832
  -5841661.460 9  -4528958.43046  23545893.200    23545894.0334   23545902.2014
      4543.485        3540.378
   1537591.514 9   1197932.88347  21789358.567    21789359.0364   21789365.8424
      -632.815        -493.103
  -2498234.928 8  -1926914.09946  24043628.411    24043630.1974   24043638.5404
      4831.310        3764.657
  -6593092.612 9  -5130413.80548  19859702.911    19859703.2474   19859709.7334
       883.602         688.521
  -4446180.911 9  -3453644.38147  23163392.297    23163392.9634   23163399.9684
      -403.368        -314.313
 -13183424.844 9 -10255760.53048  19383020.035    19383020.3564   19383027.1134
      1587.627        1237.112
 96 11  4 17 41 29.9970000  0  9 17 31  3 25 23 15 21  9  1         -0.002973383
   6870388.893 8   5349846.69146  23105366.781    23105367.2974   23105375.7974
     -2191.314       -1707.517
 -11880030.254 9  -9239409.96348  21777845.669    21777846.0144   21777852.9134
      1130.081         880.583
  -1544089.667 9  -1189828.31048  21361642.237    21361643.1134   21361650.0954
      -991.780        -772.816
  -5977949.757 9  -4635157.08846  23519958.196    23519959.1844   23519967.2764
      4543.278        3540.217
   1556665.802 9   1212795.92147  21792988.360    21792988.7934   21792995.5724
      -637.852        -497.028
  -2643148.740 8  -2039833.94246  24016052.129    24016054.0314   24016062.4514
      4830.497        3764.024
  -6619464.453 9  -5150963.29648  19854684.529    19854684.8564   19854691.3454
       875.460         682.177
  -4433807.469 9  -3444002.75447  23165746.937    23165747.5594   23165754.5664
      -420.511        -327.671
 -13230780.812 9 -10292661.27448  19374008.364    19374008.8094   19374015.5604
      1570.174        1223.512
 96 11  4 17 41 59.9970000  0  9 17 31  3 25 23 15 21  9  1         -0.002997021
   6936244.253 9   5401162.44446  23117898.777    23117899.3404   23117907.8694
     -2199.342       -1713.773
 -11913633.805 9  -9265594.55848  21771451.042    21771451.4654   21771458.3784
      1109.461         864.515
  -1514116.762 9  -1166472.82848  21367345.958    21367346.7774   21367353.7494
     -1006.927        -784.618
  -6114247.398 9  -4741362.96546  23494021.533    23494022.5334   23494030.8314
      4542.750        3539.805
   1575870.025 9   1227760.21947  21796642.884    21796643.2894   21796650.0514
      -642.799        -500.882
  -2788060.086 9  -2152751.85145  23988477.051    23988478.3184   23988486.7664
      4829.542        3763.279
  -6645611.516 9  -5171337.63648  19849708.796    19849709.2394   19849715.7214
       867.150         675.701
  -4420946.469 9  -3433981.20747  23168194.206    23168194.9114   23168201.9434
      -437.551        -340.949
 -13277618.473 9 -10329158.14348  19365095.397    19365095.8994   19365102.6584
      1551.847        1209.231
 96 11  4 17 42 29.9970000  0  9 17 31  3 25 23 15 21  9  1         -0.003020633
   7002318.351 9   5452648.75946  23130472.495    23130472.9704   23130481.4134
     -2206.335       -1719.222
 -11946625.964 9  -9291302.74948  21765173.000    21765173.2824   21765180.2204
      1089.167         848.702
  -1483706.613 9  -1142776.64348  21373132.862    21373133.6544   21373140.6274
     -1021.101        -795.663
  -6250544.533 9  -4847568.53646  23468085.194    23468086.1114   23468094.2164
      4542.953        3539.963
   1595197.232 9   1242820.34647  21800320.763    21800321.1634   21800327.9294
      -646.486        -503.755
  -2932953.845 9  -2265656.06545  23960905.215    23960905.8374   23960914.3774
      4829.270        3763.068
  -6671524.057 9  -5191529.23148  19844777.869    19844778.2644   19844784.7444
       859.622         669.835
  -4407574.077 9  -3423561.17746  23170738.915    23170739.5944   23170746.5844
      -454.789        -354.381
 -13323925.875 9 -10365241.82948  19356283.420    19356283.8834   19356290.6384
      1534.486        1195.703
 96 11  4 17 42 59.9960000  0  9 17 31  3 25 23 15 21  9  1         -0.003044226
   7068587.751 8   5504287.07245  23143083.018    23143083.3494   23143092.1944
     -2211.370       -1723.145
 -11979016.404 9  -9316542.07048  21759009.398    21759009.6514   21759016.5584
      1070.656         834.277
  -1452886.362 9  -1118760.90148  21378997.730    21378998.6054   21379005.5544
     -1033.254        -805.133
  -6386858.721 9  -4953787.27646  23442145.497    23442146.3674   23442154.4694
      4545.058        3541.604
   1614638.762 9   1257969.55647  21804020.456    21804020.8164   21804027.5694
      -649.499        -506.103
  -3077831.233 8  -2378547.52445  23933335.726    23933336.5354   23933345.1334
      4829.854        3763.523
  -6697214.542 9  -5211547.79848  19839889.260    19839889.5524   19839896.0184
       853.418         665.001
  -4393684.816 9  -3412738.38846  23173382.059    23173382.6654   23173389.6304
      -470.786        -366.846
 -13369713.450 9 -10400920.45448  19347570.150    19347570.7774   19347577.5174
      1518.263        1183.062
 96 11  4 17 43 29.9960000  0  9 17 31  3 25 23 15 21  9  1         -0.003067831
   7135018.906 9   5556051.50946  23155724.302    23155724.8684   23155733.5954
     -2216.562       -1727.191
 -12010851.300 9  -9341348.50248  21752951.436    21752951.7124   21752958.6054
      1052.394         820.047
  -1421701.351 9  -1094460.91748  21384932.142    21384932.9504   21384939.9134
     -1044.930        -814.231
  -6523235.581 9  -5060054.95746  23416193.959    23416194.7354   23416202.7974
      4547.458        3543.474
   1634178.108 9   1273194.99247  21807738.698    21807739.0474   21807745.8314
      -652.216        -508.220
  -3222726.229 8  -2491452.69345  23905762.769    23905763.9644   23905772.5844
      4830.498        3764.024
  -6722715.600 9  -5231418.76148  19835036.620    19835036.8534   19835043.3064
       847.368         660.287
  -4379308.458 9  -3401536.05246  23176117.836    23176118.4054   23176125.3904
      -486.893        -379.397
 -13415009.476 9 -10436216.05448  19338950.626    19338951.2184   19338957.9654
      1502.298        1170.622
 96 11  4 17 43 59.9960000  0  9 17 31  3 25 23 15 21  9  1         -0.003091442
   7201614.416 9   5607944.09446  23168397.286    23168397.7224   23168406.3554
     -2222.901       -1732.131
 -12042131.489 9  -9365722.68648  21746998.998    21746999.2904   21747006.1714
      1033.112         805.022
  -1390152.985 9  -1069877.80648  21390935.628    21390936.4514   21390943.4014
     -1058.104        -824.497
  -6659676.694 9  -5166372.63446  23390230.173    23390230.9014   23390238.9114
      4548.803        3544.522
   1653806.533 9   1288489.83847  21811473.860    21811474.2404   21811481.0164
      -656.184        -511.312
  -3367628.139 9  -2604363.24345  23878189.046    23878190.0524   23878198.6814
      4829.695        3763.399
  -6748025.769 9  -5251140.97648  19830220.230    19830220.5074   19830226.9374
       840.283         654.766
  -4364427.651 9  -3389940.62746  23178949.637    23178950.1944   23178957.1524
      -505.024        -393.525
 -13459816.283 9 -10471130.44448  19330424.301    19330424.7734   19330431.5204
      1485.049        1157.181
 96 11  4 17 44 29.9960000  0  9 17 31  3 25 23 15 21  9  1         -0.003115051
   7268381.412 8   5659970.24546  23181102.668    23181103.0744   23181111.7974
     -2228.871       -1736.783
 -12072853.389 9  -9389661.84048  21741152.945    21741153.1314   21741160.0224
      1014.606         790.602
  -1358234.742 9  -1045006.47548  21397009.385    21397010.3124   21397017.2564
     -1070.250        -833.961
  -6796180.351 9  -5272739.09646  23364254.408    23364255.0424   23364263.0914
      4551.027        3546.255
   1673537.279 9   1303864.42147  21815228.562    21815228.9124   21815235.6734
      -659.689        -514.043
  -3512522.110 8  -2717267.60445  23850616.678    23850617.5814   23850626.1944
      4829.448        3763.206
  -6773144.217 9  -5270713.79848  19825440.397    19825440.6494   19825447.0744
       833.805         649.718
  -4349020.270 9  -3377934.88946  23181881.482    23181882.1594   23181889.1164
      -522.301        -406.988
 -13504126.018 9 -10505657.50148  19321992.418    19321992.9044   19321999.6754
      1468.475        1144.266
 96 11  4 17 44 59.9960000  0  9 17 31  3 25 23 15 21  9  1         -0.003138675
   7335328.336 9   5712136.46546  23193842.054    23193842.5954   23193851.4474
     -2234.763       -1741.374
 -12103040.512 9  -9413184.29548  21735408.595    21735408.7344   21735415.6534
       997.423         777.213
  -1325955.940 9  -1019854.19448  21403151.829    21403152.7774   21403159.7444
     -1082.128        -843.217
  -6932753.003 9  -5379159.25946  23338265.421    23338266.0414   23338274.2414
      4553.264        3547.998
   1693367.447 9   1319316.47147  21819002.119    21819002.5154   21819009.2514
      -662.611        -516.320
  -3657414.260 8  -2830170.56245  23823044.459    23823045.5574   23823054.1884
      4829.692        3763.396
  -6798071.061 9  -5290137.32648  19820696.925    19820697.2234   19820703.6394
       827.566         644.857
  -4333116.859 9  -3365542.63546  23184907.799    23184908.4594   23184915.4914
      -538.231        -419.401
 -13547936.867 9 -10539795.82548  19313655.382    19313655.9944   19313662.7524
      1451.937        1131.379
 96 11  4 17 45 29.9960000  0  9 17 31  3 25 23 15 21  9  1         -0.003162313
   7402477.351 9   5764460.32546  23206620.357    23206620.8744   23206629.5544
     -2241.461       -1746.593
 -12132694.089 9  -9436290.99548  21729765.581    21729765.8394   21729772.7514
       979.692         763.396
  -1293298.427 9   -994406.81648  21409366.440    21409367.3384   21409374.2934
     -1094.795        -853.087
  -7069375.230 9  -5485618.08846  23312266.815    23312267.6094   23312275.7494
      4555.093        3549.423
   1713288.481 9   1334839.32547  21822793.004    21822793.4054   21822800.1544
      -664.959        -518.150
  -3802303.422 9  -2943071.20845  23795472.779    23795474.1024   23795482.8784
      4829.779        3763.464
  -6822805.071 9  -5309410.59448  19815990.193    19815990.5044   19815996.9254
       821.672         640.264
  -4316729.719 9  -3352773.45046  23188026.049    23188026.8444   23188033.9074
      -553.930        -431.634
 -13591245.334 9 -10573542.68048  19305414.083    19305414.6844   19305421.4374
      1435.608        1118.656
 96 11  4 17 45 59.9960000  0  9 17 31  3 25 23 15 21  9  1         -0.003185957
   7469830.450 8   5816943.27346  23219437.437    23219437.9114   23219446.3884
     -2248.100       -1751.766
 -12161802.257 9  -9458972.70848  21724226.543    21724226.7224   21724233.6394
       961.418         749.157
  -1260245.431 9   -968651.26448  21415656.332    21415657.1384   21415664.1074
     -1107.970        -863.353
  -7206028.263 9  -5592100.88946  23286262.438    23286263.3064   23286271.5194
      4555.698        3549.895
   1733293.073 9   1350427.29247  21826599.732    21826600.1614   21826606.9364
      -668.107        -520.603
  -3947189.568 8  -3055969.45945  23767902.640    23767902.9594   23767911.8634
      4829.725        3763.422
  -6847353.811 9  -5328539.49048  19811318.735    19811319.0644   19811325.4674
       815.426         635.397
  -4299870.552 9  -3339636.45446  23191234.245    23191235.0204   23191242.1084
      -569.410        -443.696
 -13634047.053 9 -10606894.66548  19297269.261    19297269.8174   19297276.5554
      1418.526        1105.345
 96 11  4 17 46 29.9960000  0  9 17 31  3 25 23 15 21  9  1         -0.003209607
   7537387.039 8   5869584.56045  23232292.886    23232293.2374   23232302.0414
     -2255.331       -1757.401
 -12190352.183 9  -9481219.42048  21718793.433    21718793.8594   21718800.7704
       942.143         734.137
  -1226803.576 9   -942592.70148  21422020.035    21422020.9384   21422027.9244
     -1121.056        -873.550
  -7342681.007 9  -5698583.49946  23260258.361    23260259.0834   23260267.1704
      4554.665        3549.090
   1753406.948 9   1366100.40447  21830427.329    21830427.7344   21830434.5154
      -672.384        -523.936
  -4092062.400 9  -3168857.35645  23740334.724    23740334.5894   23740343.5054
      4828.810        3762.709
  -6871689.668 9  -5347502.50648  19806687.775    19806688.1244   19806694.5134
       807.174         628.967
  -4282542.171 9  -3326133.84046  23194531.667    23194532.5344   23194539.5504
      -585.379        -456.139
 -13676329.353 9 -10639841.91248  19289223.303    19289223.7814   19289230.5064
      1400.730        1091.478
 96 11  4 17 46 59.9960000  0  9 17 31  3 25 23 15 21  9  1         -0.003233259
   7605144.961 9   5922382.83146  23245186.889    23245187.4634   23245196.1774
     -2261.326       -1762.072
 -12218336.777 9  -9503025.61448  21713468.240    21713468.5724   21713475.4964
       923.560         719.657
  -1192989.568 9   -916244.15748  21428454.662    21428455.5474   21428462.5514
     -1132.936        -882.807
  -7479305.145 9  -5805043.80846  23234259.455    23234260.2624   23234268.4374
      4553.734        3548.364
   1773632.993 9   1381860.93547  21834276.178    21834276.6444   21834283.4464
      -675.751        -526.559
  -4236915.623 8  -3281729.97345  23712770.003    23712769.7804   23712778.6694
      4828.443        3762.423
  -6895788.009 9  -5366280.44148  19802102.018    19802102.3814   19802108.7714
       799.748         623.180
  -4264746.327 9  -3312266.95546  23197918.083    23197918.9854   23197925.9334
      -600.895        -468.230
 -13718088.708 9 -10672381.66448  19281276.800    19281277.2174   19281283.9444
      1383.651        1078.170
 96 11  4 17 47 29.9960000  0  9 17 31  3 25 23 15 21  9  1         -0.003256908
   7673075.552 9   5975315.70946  23258113.901    23258114.4224   23258123.1264
     -2267.663       -1767.010
 -12245746.614 9  -9524383.94748  21708252.408    21708252.6744   21708259.6184
       903.433         703.974
  -1158824.160 9   -889621.80348  21434956.175    21434957.0054   21434964.0244
     -1144.977        -892.190
  -7615894.858 9  -5911477.30246  23208267.351    23208268.2104   23208276.3754
      4551.944        3546.969
   1793965.508 9   1397704.42747  21838145.292    21838145.8074   21838152.6384
      -680.102        -529.950
  -4381752.926 8  -3394590.18345  23685207.745    23685208.1774   23685217.0454
      4827.187        3761.444
  -6919664.749 9  -5384885.70448  19797558.322    19797558.7844   19797565.2034
       791.617         616.844
  -4246476.911 9  -3298031.07046  23201394.557    23201395.5424   23201402.4844
      -617.515        -481.180
 -13759341.453 9 -10704526.66248  19273426.626    19273427.0774   19273433.7924
      1366.056        1064.459
 96 11  4 17 47 59.9960000  0  9 17 31  3 25 23 15 21  9  1         -0.003280554
   7741171.536 8   6028377.43945  23271072.148    23271072.4734   23271081.3384
     -2272.512       -1770.789
 -12272575.547 9  -9545289.63248  21703147.050    21703147.2944   21703154.3004
       884.890         689.525
  -1124325.254 9   -862739.57148  21441521.037    21441521.9744   21441528.9974
     -1155.155        -900.121
  -7752447.127 9  -6017881.61246  23182282.112    23182283.0164   23182291.2824
      4551.493        3546.618
   1814417.734 9   1413641.20147  21842037.312    21842037.7944   21842044.6084
      -683.524        -532.616
  -4526562.287 8  -3507428.61245  23657651.517    23657651.9144   23657660.9284
      4826.694        3761.060
  -6943308.765 9  -5403309.62148  19793059.025    19793059.4764   19793065.8894
       784.320         611.158
  -4227716.887 9  -3283412.89646  23204964.552    23204965.4014   23204972.3854
      -633.417        -493.572
 -13800077.829 9 -10736269.29448  19265674.754    19265675.1944   19265681.9104
      1349.611        1051.645
 96 11  4 17 48 29.9960000  0  9 17 31  3 25 23 15 21  9  1         -0.003304205
   7809421.216 9   6081558.87246  23284059.454    23284059.9044   23284068.8814
     -2277.934       -1775.014
 -12298855.041 9  -9565767.17748  21698146.269    21698146.4994   21698153.5074
       866.512         675.204
  -1089521.733 9   -835619.97848  21448144.014    21448144.9004   21448151.9284
     -1165.563        -908.231
  -7888991.832 9  -6124279.99246  23156298.270    23156299.2124   23156307.6774
      4551.196        3546.386
   1834960.627 9   1429648.62347  21845946.552    21845947.0224   21845953.8524
      -686.221        -534.718
  -4671362.536 8  -3620259.93645  23630097.261    23630097.2164   23630106.3184
      4826.220        3760.691
  -6966734.287 9  -5421563.28348  19788601.277    19788601.7504   19788608.1714
       777.176         605.592
  -4208477.315 9  -3268421.04746  23208625.689    23208626.5264   23208633.5374
      -649.406        -506.031
 -13840335.986 9 -10767639.28748  19258013.894    19258014.3354   19258021.0334
      1334.012        1039.490
 96 11  4 17 48 59.9960000  0  9 17 31  3 25 23 15 21  9  1         -0.003327835
   7877868.236 9   6134894.14746  23297084.793    23297085.1224   23297094.1324
     -2284.890       -1780.434
 -12324548.971 9  -9585788.44348  21693256.913    21693257.1374   21693264.1664
       846.514         659.621
  -1054369.566 9   -808228.72148  21454833.173    21454834.1714   21454841.2074
     -1177.729        -917.711
  -8025505.389 9  -6230654.16446  23130320.683    23130321.5794   23130329.9484
      4550.052        3545.495
   1855604.367 9   1445734.62747  21849874.910    21849875.4124   21849882.2674
      -689.849        -537.545
  -4816123.374 8  -3733060.54945  23602549.145    23602550.1924   23602559.0724
      4824.656        3759.472
  -6989927.493 9  -5439635.91848  19784187.776    19784188.2254   19784194.6424
       769.185         599.365
  -4188734.850 9  -3253037.33746  23212382.571    23212383.4024   23212390.4444
      -666.594        -519.424
 -13880103.151 9 -10798626.68648  19250446.501    19250446.8984   19250453.5834
      1317.313        1026.478
 96 11  4 17 49 29.9960000  0  9 17 31  3 25 23 15 21  9  1         -0.003351451
   7946497.917 9   6188371.73046  23310144.688    23310145.0644   23310154.0994
     -2291.985       -1785.962
 -12349673.807 9  -9605366.25948  21688475.842    21688476.0194   21688483.0274
       826.903         644.340
  -1018879.047 9   -780573.81248  21461586.690    21461587.8004   21461594.8704
     -1189.861        -927.164
  -8162021.227 9  -6337030.08246  23104342.542    23104343.3774   23104351.7084
      4549.593        3545.137
   1876324.745 9   1461880.35547  21853817.972    21853818.3934   21853825.2874
      -693.101        -540.079
  -4960862.596 8  -3845844.32745  23575006.050    23575007.1984   23575015.9174
      4823.181        3758.323
  -7012909.641 9  -5457544.09348  19779814.363    19779814.8564   19779821.3094
       761.311         593.229
  -4168511.408 9  -3237278.83146  23216230.962    23216231.7654   23216238.8324
      -683.303        -532.444
 -13919404.446 9 -10829251.06848  19242967.662    19242968.1194   19242974.7884
      1301.085        1013.832
 96 11  4 17 49 59.9960000  0  9 17 31  3 25 23 15 21  9  1         -0.003375045
   8015334.674 8   6242010.62745  23323243.828    23323244.2144   23323253.4254
     -2297.971       -1790.627
 -12374219.712 9  -9624492.95548  21683804.931    21683805.0824   21683812.1114
       808.513         630.010
   -983024.081 9   -752634.91348  21468409.625    21468410.7774   21468417.8574
     -1201.388        -936.146
  -8298531.028 9  -6443401.28846  23078365.384    23078366.2484   23078374.7014
      4550.266        3545.662
   1897138.553 9   1478098.87747  21857778.758    21857779.1394   21857786.0324
      -695.322        -541.809
  -5105560.530 8  -3958595.93145  23547471.828    23547472.0634   23547480.7194
      4822.561        3757.840
  -7035655.162 9  -5475267.88448  19775485.993    19775486.5164   19775492.9834
       754.284         587.754
  -4147791.712 9  -3221133.66046  23220173.775    23220174.5764   23220181.7104
      -698.705        -544.445
 -13958220.621 9 -10859497.43748  19235581.246    19235581.6654   19235588.3004
      1285.933        1002.026
 96 11  4 17 50 29.9960000  0  9 17 31  3 25 23 15 21  9  1         -0.003398615
   8084370.331 8   6295804.51045  23336380.837    23336381.0734   23336390.1944
     -2303.538       -1794.965
 -12398187.162 9  -9643168.91048  21679243.950    21679244.2294   21679251.2974
       790.084         615.650
   -946799.272 9   -724407.81848  21475303.202    21475304.1594   21475311.2444
     -1212.687        -944.951
  -8435030.408 9  -6549764.40846  23052390.233    23052391.2174   23052399.6644
      4550.540        3545.875
   1918048.212 9   1494392.09247  21861757.728    21861758.1534   21861765.0484
      -698.011        -543.905
  -5250215.810 8  -4071314.28845  23519944.701    23519945.0544   23519953.5474
      4821.855        3757.290
  -7058165.954 9  -5492808.76448  19771202.326    19771202.8624   19771209.3314
       747.234         582.260
  -4126593.595 9  -3204615.67046  23224207.766    23224208.5594   23224215.6244
      -713.818        -556.222
 -13996560.101 9 -10889372.35248  19228285.469    19228285.9084   19228292.5184
      1270.620         990.094
 96 11  4 17 50 59.9960000  0  9 17 31  3 25 23 15 21  9  1         -0.003422185
   8153572.123 9   6349727.95746  23349549.775    23349549.9954   23349559.0544
     -2309.077       -1799.281
 -12421604.483 9  -9661416.19348  21674787.786    21674788.1174   21674795.1524
       771.895         601.477
   -910242.439 9   -695922.00748  21482259.646    21482260.7274   21482267.8234
     -1223.672        -953.511
  -8571534.968 9  -6656131.53546  23026414.409    23026415.2534   23026423.7604
      4550.535        3545.871
   1939056.810 9   1510762.40647  21865755.587    21865755.9974   21865762.9194
      -701.862        -546.905
  -5394843.030 8  -4184010.79445  23492423.165    23492423.4604   23492431.8534
      4820.747        3756.426
  -7080454.419 9  -5510176.40248  19766960.947    19766961.5304   19766967.9854
       739.511         576.242
  -4104929.061 9  -3187734.24646  23228330.472    23228331.2064   23228338.2644
      -729.766        -568.649
 -14034418.814 9 -10918872.64448  19221081.137    19221081.6484   19221088.2494
      1254.083         977.208
 96 11  4 17 51 29.9960000  0  9 17 31  3 25 23 15 21  9  1         -0.003445750
   8222948.713 9   6403787.57246  23362751.853    23362752.1404   23362761.3714
     -2314.805       -1803.744
 -12444481.117 9  -9679242.16948  21670434.667    21670434.8304   21670441.8474
       754.475         587.903
   -873349.767 9   -667174.50048  21489280.130    21489281.1974   21489288.2804
     -1234.575        -962.006
  -8708029.238 9  -6762490.64546  23000440.327    23000441.1484   23000449.6634
      4550.336        3545.716
   1960197.430 9   1527235.58747  21869778.498    21869778.9624   21869785.8664
      -706.165        -550.258
  -5539424.568 8  -4296671.70945  23464910.343    23464910.4484   23464918.8294
      4819.376        3755.358
  -7102508.639 9  -5527361.51348  19762764.244    19762764.7584   19762771.2114
       732.119         570.482
  -4082771.986 9  -3170469.03046  23232546.775    23232547.6024   23232554.6784
      -746.010        -581.306
 -14071776.232 9 -10947982.31848  19213972.233    19213972.7764   19213979.3554
      1237.774         964.499
 96 11  4 17 51 59.9960000  0  9 17 31  3 25 23 15 21  9  1         -0.003469333
   8292472.984 8   6457962.20145  23375981.913    23375982.3384   23375991.5714
     -2319.524       -1807.421
 -12466859.872 9  -9696680.18248  21666175.859    21666176.2884   21666183.2974
       738.040         575.096
   -836155.272 9   -638191.81948  21496358.099    21496359.1244   21496366.1864
     -1244.512        -969.750
  -8844534.242 9  -6868858.09446  22974464.150    22974465.0164   22974473.7134
      4550.445        3545.801
   1981447.434 9   1543794.00847  21873822.241    21873822.7274   21873829.6474
      -709.828        -553.113
  -5683990.198 8  -4409320.20445  23437400.296    23437400.7414   23437408.9474
      4818.900        3754.987
  -7124370.537 9  -5544396.77048  19758604.089    19758604.6144   19758611.0364
       725.956         565.680
  -4060156.128 9  -3152846.31146  23236850.320    23236851.2354   23236858.3754
      -761.047        -593.024
 -14108666.667 9 -10976728.11248  19206952.101    19206952.7614   19206959.3284
      1222.232         952.389
 96 11  4 17 52 29.9960000  0  9 17 31  3 25 23 15 21  9  1         -0.003492921
   8362161.346 8   6512264.53845  23389242.913    23389243.2774   23389252.7784
     -2325.138       -1811.796
 -12488734.388 9  -9713725.28148  21662013.414    21662013.7254   21662020.7294
       721.451         562.170
   -798650.025 9   -608966.97648  21503495.085    21503496.1464   21503503.2334
     -1254.637        -977.639
  -8981023.554 9  -6975213.36246  22948490.984    22948492.0564   22948500.4984
      4550.119        3545.547
   2002818.678 9   1560446.91047  21877888.959    21877889.5754   21877896.4964
      -713.538        -556.004
  -5828525.201 8  -4521944.87245  23409896.262    23409896.4784   23409905.0214
      4818.082        3754.350
  -7146034.339 9  -5561277.65648  19754481.560    19754482.1174   19754488.5434
       719.530         560.673
  -4037068.442 9  -3134855.93546  23241243.685    23241244.6704   23241251.8844
      -776.896        -605.374
 -14145079.693 9 -11005101.89448  19200022.848    19200023.5774   19200030.1474
      1206.431         940.076
 96 11  4 17 52 59.9960000  0  9 17 31  3 25 23 15 21  9  1         -0.003516521
   8432018.331 9   6566698.54446  23402536.402    23402536.8934   23402545.9714
     -2331.191       -1816.512
 -12510106.024 9  -9730378.51448  21657946.398    21657946.8594   21657953.8674
       703.863         548.465
   -760831.733 9   -579498.20948  21510691.813    21510692.7234   21510699.8264
     -1265.914        -986.426
  -9117504.071 9  -7081561.73346  22922519.443    22922520.6134   22922529.1014
      4549.303        3544.911
   2024294.681 9   1577181.42747  21881975.661    21881976.3424   21881983.2834
      -717.321        -558.951
  -5973033.820 8  -4634548.95045  23382397.265    23382397.5664   23382405.7804
      4816.597        3753.192
  -7167502.219 9  -5578005.88648  19750396.346    19750396.9084   19750403.3364
       712.515         555.206
  -4013509.578 9  -3116498.41046  23245726.761    23245727.7454   23245734.9724
      -792.703        -617.691
 -14181012.103 9 -11033101.17248  19193185.150    19193185.8394   19193192.4424
      1190.034         927.299
 96 11  4 17 53 29.9960000  0  9 17 31  3 25 23 15 21  9  1         -0.003540098
   8502066.179 9   6621281.31046  23415866.272    23415866.9024   23415875.7484
     -2338.429       -1822.152
 -12530934.316 9  -9746608.36248  21653982.792    21653983.3754   21653990.4124
       684.756         533.576
   -722664.439 9   -549757.49248  21517954.800    21517955.7414   21517962.8374
     -1278.386        -996.145
  -9253948.940 9  -7187882.33446  22896554.896    22896556.0154   22896564.4184
      4547.166        3543.246
   2045876.255 9   1593998.22147  21886082.403    21886083.1684   21886090.1414
      -721.199        -561.973
  -6117497.832 8  -4747118.28145  23354907.074    23354906.8704   23354915.2394
      4814.422        3751.498
  -7188763.380 9  -5594573.03248  19746350.440    19746351.0524   19746357.4674
       704.896         549.270
  -3989482.121 9  -3097775.74246  23250298.975    23250299.9644   23250307.2654
      -808.890        -630.304
 -14216455.458 9 -11060719.36648  19186440.404    19186441.2004   19186447.8054
      1172.932         913.973
 96 11  4 17 53 59.9960000  0  9 17 31  3 25 23 15 21  9  1         -0.003563673
   8572299.929 8   6676008.83845  23429231.348    23429232.0394   23429241.2004
     -2344.096       -1826.568
 -12551196.042 9  -9762396.74648  21650127.068    21650127.6884   21650134.7574
       665.629         518.672
   -684144.507 9   -519741.99048  21525284.795    21525285.8474   21525292.9134
     -1289.939       -1005.147
  -9390347.395 9  -7294166.76546  22870599.062    22870600.2674   22870608.6014
      4545.617        3542.039
   2067548.624 9   1610885.75247  21890206.437    21890207.2954   21890214.3014
      -724.030        -564.179
  -6261915.908 8  -4859651.82045  23327425.061    23327424.9054   23327433.1794
      4812.969        3750.365
  -7209803.290 9  -5610967.78048  19742346.655    19742347.3214   19742353.7294
       697.320         543.366
  -3964994.396 9  -3078694.42246  23254958.854    23254959.9014   23254967.1374
      -824.150        -642.195
 -14251396.063 9 -11087945.80948  19179791.261    19179792.1924   19179798.8074
      1156.048         900.817
 96 11  4 17 54 29.9960000  0  9 17 31  3 25 23 15 21  9  1         -0.003587239
   8642715.40218   6730877.76155  23442630.780    23442631.2105   23442641.0305
     -2348.930       -1830.335
 -12570870.374 9  -9777727.41148  21646383.115    21646383.8394   21646390.9044
       647.103         504.236
   -645268.845 9   -489449.30048  21532682.531    21532683.6474   21532690.6944
     -1300.409       -1013.306
  -9526686.871 9  -7400405.25046  22844654.594    22844655.8124   22844664.0594
      4545.093        3541.631
   2089319.031 9   1627849.67447  21894349.181    21894350.0524   21894357.0864
      -726.152        -565.833
  -6406273.069 9  -4972137.88145  23299954.574    23299954.6034   23299963.0254
      4812.020        3749.626
  -7230594.707 9  -5627168.89648  19738390.201    19738390.8684   19738397.2614
       690.077         537.722
  -3940034.165 9  -3059244.91446  23259708.715    23259709.7274   23259716.9844
      -838.571        -653.432
 -14285811.978 9 -11114763.40648  19173242.206    19173243.0464   19173249.6544
      1139.583         887.987
 96 11  4 17 54 59.9960000  0  9 17 31  3 25 23 15 21  9  1         -0.003610808
   8713287.876 9   6785869.13746  23456060.332    23456061.0134   23456070.5634
     -2354.606       -1834.758
 -12589959.469 9  -9792602.04548  21642750.629    21642751.3084   21642758.3744
       626.694         488.333
   -606062.772 9   -458899.14947  21540143.156    21540144.3464   21540151.3774
     -1312.049       -1022.376
  -9662992.899 9  -7506617.64446  22818716.251    22818717.5204   22818725.8404
      4542.912        3539.931
   2111178.141 9   1644882.72247  21898508.849    21898509.7124   21898516.7604
      -730.086        -568.898
  -6550582.957 9  -5084587.11645  23272493.283    23272493.2284   23272501.8134
      4809.653        3747.782
  -7251154.109 9  -5643189.21348  19734477.780    19734478.5364   19734484.9424
       681.625         531.136
  -3914629.240 9  -3039448.89146  23264542.996    23264544.2074   23264551.3934
      -854.046        -665.490
 -14319713.375 9 -11141180.07048  19166790.970    19166791.8034   19166798.4234
      1121.833         874.156
 96 11  4 17 55 29.9960000  0  9 17 31  3 25 23 15 21  9  1         -0.003634393
   8783978.526 9   6840952.70046  23469512.610    23469513.2554   23469522.6514
     -2358.415       -1837.726
 -12608496.266 9  -9807046.31748  21639223.109    21639223.9104   21639230.9774
       608.877         474.450
   -566568.568 9   -428124.47047  21547658.719    21547659.8874   21547666.9314
     -1321.124       -1029.447
  -9799275.409 9  -7612811.69546  22792782.426    22792783.8094   22792792.1374
      4542.335        3539.482
   2133105.220 9   1661968.73047  21902681.378    21902682.3184   21902689.3764
      -732.238        -570.575
  -6694866.728 9  -5197015.99045  23245037.527    23245036.8034   23245045.5044
      4808.877        3747.177
  -7271513.202 9  -5659053.44748  19730603.627    19730604.3314   19730610.7264
       675.124         526.071
  -3888801.566 9  -3019323.44746  23269457.900    23269459.0434   23269466.2334
      -868.065        -676.414
 -14353141.727 9 -11167228.13448  19160429.712    19160430.5784   19160437.1924
      1106.359         862.098
 96 11  4 17 55 59.9960000  0  9 17 31  3 25 23 15 21  9  1         -0.003657995
   8854781.955 9   6896124.14546  23482986.076    23482986.8564   23482996.1194
     -2362.676       -1841.046
 -12626498.421 9  -9821073.98947  21635797.294    21635798.2354   21635805.2674
       590.473         460.109
   -526801.449 9   -397137.14247  21555226.123    21555227.3794   21555234.4354
     -1330.740       -1036.940
  -9935539.650 9  -7718991.52646  22766852.246    22766853.4404   22766861.8134
      4541.204        3538.601
   2155118.116 9   1679121.61447  21906870.306    21906871.2334   21906878.2894
      -736.075        -573.565
  -6839117.454 9  -5309419.13345  23217586.416    23217586.8324   23217595.4324
      4807.017        3745.727
  -7291661.491 9  -5674753.41448  19726769.472    19726770.2264   19726776.6314
       667.508         520.136
  -3862550.408 9  -2998868.01846  23274453.217    23274454.4964   23274461.6414
      -882.719        -687.833
 -14386098.393 9 -11192908.64848  19154158.187    19154159.1414   19154165.7464
      1090.113         849.439
 96 11  4 17 56 29.9960000  0  9 17 31  3 25 23 15 21  9  1         -0.003681605
   8925707.879 8   6951391.17045  23496482.955    23496483.5294   23496492.6474
     -2366.537       -1844.055
 -12643971.078 9  -9834689.06848  21632472.453    21632473.2894   21632480.3394
       573.732         447.064
   -486754.074 9   -365931.43047  21562846.930    21562848.1644   21562855.2384
     -1339.718       -1043.936
 -10071782.899 9  -7825155.02946  22740925.821    22740927.2364   22740935.5124
      4541.107        3538.525
   2177241.970 9   1696360.93847  21911080.301    21911081.2574   21911088.3634
      -739.398        -576.154
  -6983319.361 9  -5421784.20645  23190145.410    23190146.0644   23190154.6974
      4805.965        3744.908
  -7311607.500 9  -5690295.76948  19722973.863    19722974.6514   19722981.0314
       661.706         515.615
  -3835879.529 9  -2978085.54146  23279528.559    23279529.8264   23279536.8904
      -896.020        -698.197
 -14418588.127 9 -11218225.32148  19147975.468    19147976.5544   19147983.1264
      1075.370         837.951
 96 11  4 17 56 59.9960000  0  8 31  3 25 23 15 21  9  1            -0.003705209
 -12660913.383 9  -9847890.87748  21629248.362    21629249.2754   21629256.3374
       555.761         433.061
   -446401.529 9   -334487.92847  21570525.836    21570527.0074   21570534.0964
     -1350.476       -1052.319
 -10207982.564 9  -7931284.55646  22715007.806    22715009.3694   22715017.5354
      4538.749        3536.688
   2199491.096 9   1713697.89147  21915314.246    21915315.1824   21915322.2514
      -743.809        -579.591
  -7127460.667 9  -5534102.06945  23162715.836    23162716.9074   23162725.2844
      4803.386        3742.898
  -7331352.838 9  -5705681.75648  19719216.433    19719217.2344   19719223.6124
       654.509         510.007
  -3808768.089 9  -2956959.76646  23284687.653    23284688.9444   23284696.1064
      -911.527        -710.281
 -14450615.741 9 -11243181.90648  19141880.684    19141881.8934   19141888.4414
      1059.878         825.879
 96 11  4 17 57 29.9960000  0  8 31  3 25 23 15 21  9  1            -0.003728787
 -12677329.491 9  -9860682.66848  21626124.496    21626125.4084   21626132.4614
       537.733         419.013
   -405732.753 9   -302798.00947  21578264.827    21578266.0104   21578273.1264
     -1361.545       -1060.944
 -10344120.642 9  -8037366.06946  22689101.623    22689102.9194   22689111.2344
      4536.654        3535.055
   2221862.288 9   1731129.95547  21919571.398    21919572.2944   21919579.3744
      -748.345        -583.126
  -7271531.730 9  -5646365.20546  23135300.211    23135301.0384   23135309.5524
      4800.583        3740.714
  -7350879.391 9  -5720897.25348  19715500.639    19715501.4634   19715507.8484
       646.506         503.771
  -3781195.781 9  -2935474.86846  23289934.568    23289935.8514   23289942.9434
      -927.269        -722.547
 -14482184.981 9 -11267781.30648  19135873.287    19135874.4474   19135881.0124
      1043.909         813.436
 96 11  4 17 57 59.9960000  0  9 17 31  3 25 23 15 21  9  1         -0.003752338
     77414.08919     48729.15654  23537158.654           0.0005          0.0005
     -2383.551       -1857.312
 -12693192.854 9  -9873043.74747  21623105.845    21623106.7154   21623113.8034
       520.041         405.227
   -364724.230 9   -270843.34947  21586068.504    21586069.6774   21586076.8134
     -1372.049       -1069.129
 -10480188.513 9  -8143392.88546  22663208.661    22663209.9664   22663218.2524
      4534.952        3533.729
   2244371.505 9   1748669.56347  21923854.859    21923855.7444   21923862.7884
      -751.840        -585.849
  -7415511.890 9  -5758557.50946  23107901.564    23107902.4674   23107910.9204
      4798.389        3739.004
  -7370162.418 9  -5735922.99248  19711831.189    19711832.0254   19711838.3994
       639.559         498.358
  -3753145.661 9  -2913617.66346  23295272.283    23295273.6914   23295280.8004
      -942.487        -734.405
 -14513265.754 9 -11292000.08448  19129958.867    19129959.9924   19129966.5314
      1028.496         801.425
 96 11  4 17 58 29.9960000  0  9 17 31  3 25 23 15 21  9  1         -0.003775865
    149026.138 9    104530.86556  23550785.570           0.0004          0.0005
     -2390.493       -1862.722
 -12708512.787 9  -9884981.36948  21620190.671    21620191.4034   21620198.5204
       501.335         390.651
   -323386.660 9   -238632.29347  21593934.541    21593935.9854   21593943.1294
     -1383.521       -1078.068
 -10616189.215 9  -8249367.35146  22637328.522    22637329.7374   22637338.1484
      4531.919        3531.365
   2266992.538 9   1766296.30647  21928159.580    21928160.4194   21928167.4394
      -756.008        -589.097
  -7559414.473 9  -5870689.35746  23080517.667    23080518.6924   23080527.1724
      4795.350        3736.636
  -7389232.003 9  -5750782.41348  19708202.324    19708203.2004   19708209.5994
       631.727         492.255
  -3724613.110 9  -2891384.52446  23300701.944    23300703.2704   23300710.4394
      -959.548        -747.700
 -14543873.046 9 -11315849.91948  19124134.444    19124135.6004   19124142.1454
      1012.052         788.612
 96 11  4 17 58 59.9960000  0  9 17 31  3 25 23 15 21  9  1         -0.003799359
    220843.507 8    160492.29156  23564449.923           0.0005   23564459.7895
     -2396.480       -1867.387
 -12723259.527 9  -9896472.35648  21617384.383    21617385.1884   21617392.3354
       482.630         376.075
   -281709.064 9   -206156.28847  21601865.652    21601866.9574   21601874.1464
     -1394.021       -1086.250
 -10752093.310 9  -8355266.55546  22611466.668    22611467.9764   22611476.3674
      4529.254        3529.289
   2289726.096 9   1784010.73147  21932485.633    21932486.5424   21932493.5204
      -758.832        -591.298
  -7703221.861 9  -5982747.02346  23053152.164    23053153.0664   23053161.4904
      4792.684        3734.559
  -7408053.645 9  -5765448.63248  19704620.629    19704621.5524   19704627.9454
       623.760         486.047
  -3695564.459 9  -2868749.23246  23306229.908    23306231.1384   23306238.2784
      -975.911        -760.450
 -14573982.958 9 -11339312.18448  19118404.725    19118405.8594   19118412.3954
       995.990         776.096
 96 11  4 17 59 29.9960000  0  9 17 31  3 25 23 15 21  9  1         -0.003822859
    292813.695 7    216572.84545  23578142.674    23578145.8285   23578158.4524
     -2402.126       -1871.786
 -12737475.104 9  -9907549.44648  21614679.294    21614680.0544   21614687.2324
       464.392         361.864
   -239751.688 9   -173462.25847  21609849.819    21609851.1484   21609858.3984
     -1403.781       -1093.855
 -10887950.595 9  -8461129.31746  22585613.809    22585615.1144   22585623.4254
      4527.149        3527.649
   2312529.896 9   1801779.88847  21936825.073    21936826.0274   21936832.9634
      -762.197        -593.920
  -7846971.282 9  -6094759.53146  23025797.628    23025798.4754   23025806.8164
      4789.951        3732.429
  -7426662.394 9  -5779948.95448  19701079.605    19701080.4224   19701086.8174
       616.196         480.153
  -3666069.749 9  -2845766.37146  23311842.633    23311843.7994   23311850.9414
      -991.006        -772.212
 -14603626.481 9 -11362411.03148  19112763.812    19112764.8874   19112771.4334
       979.534         763.273
 96 11  4 17 59 59.9960000  0  9 17 31  3 25 23 15 21  9  1         -0.003846376
    364906.67817    272748.97155  23591863.584    23591862.8955   23591874.7445
     -2404.959       -1873.994
 -12751182.917 9  -9918230.88548  21612070.863    21612071.5474   21612078.7514
       448.626         349.579
   -197541.457 9   -140571.22547  21617882.186    21617883.5014   21617890.8094
     -1411.101       -1099.559
 -11023769.122 9  -8566961.84046  22559768.468    22559769.6554   22559777.9794
      4526.496        3527.140
   2335411.325 9   1819609.53247  21941179.311    21941180.2684   21941187.1854
      -764.228        -595.502
  -7990674.668 9  -6206736.16146  22998451.589    22998452.6364   22998461.0024
      4789.283        3731.909
  -7445083.804 9  -5794303.30648  19697574.121    19697574.9574   19697581.3544
       610.807         475.954
  -3636157.595 9  -2822458.21046  23317534.598    23317535.8964   23317542.9504
     -1004.019        -782.352
 -14632812.033 9 -11385153.01948  19107209.938    19107211.0704   19107217.6414
       965.298         752.180
 96 11  4 18  0 29.9960000  0  9 17 31  3 25 23 15 21  9  1         -0.003869908
    437105.392 8    329007.73245  23605602.311    23605604.8534   23605612.8904
     -2408.792       -1876.981
 -12764398.326 9  -9928528.62848  21609555.880    21609556.7544   21609563.9644
       431.970         336.600
   -155091.370 9   -107493.27047  21625960.151    21625961.5254   21625968.8334
     -1419.297       -1105.946
 -11159543.172 9  -8672759.71347  22533931.624    22533932.6934   22533940.9444
      4524.688        3525.731
   2358380.400 9   1837507.47447  21945550.249    21945551.1614   21945558.1084
      -767.391        -597.967
  -8134332.822 9  -6318677.54846  22971114.354    22971115.3214   22971123.6654
      4787.449        3730.480
  -7463310.469 9  -5808505.90648  19694105.697    19694106.5534   19694112.9354
       603.810         470.501
  -3605835.700 9  -2798830.78346  23323304.611    23323305.8844   23323313.0944
     -1017.667        -792.987
 -14661551.564 9 -11407547.45548  19101740.891    19101742.1164   19101748.6774
       950.211         740.424
 96 11  4 18  0 59.9960000  0  9 17 31  3 25 23 15 21  9  1         -0.003893477
    509382.759 8    385327.79845  23619356.447    23619358.7074   23619367.5774
     -2411.309       -1878.942
 -12777151.098 9  -9938465.86548  21607129.338    21607130.0044   21607137.1984
       416.647         324.660
   -112427.795 9    -74248.96847  21634078.739    21634080.1294   21634087.4864
     -1426.455       -1111.523
 -11295297.591 9  -8778542.30646  22508098.307    22508099.3544   22508107.5894
      4524.022        3525.212
   2381409.462 9   1855452.17147  21949932.573    21949933.4664   21949940.4374
      -769.604        -599.691
  -8277967.336 9  -6430600.50546  22943781.676    22943782.5874   22943790.8874
      4786.451        3729.702
  -7481356.543 9  -5822567.78648  19690671.648    19690672.4994   19690678.8844
       597.714         465.751
  -3575153.445 9  -2774922.53946  23329143.333    23329144.5724   23329151.7584
     -1029.349        -802.090
 -14689868.810 9 -11429612.83848  19096352.324    19096353.5244   19096360.0914
       936.063         729.400
 96 11  4 18  1 29.9960000  0  9 17 31  3 25 23 15 21  9  1         -0.003917050
    581781.299 8    441742.16746  23633133.605    23633135.4984   23633145.0074
     -2414.648       -1881.544
 -12789398.575 9  -9948009.38248  21604798.706    21604799.3994   21604806.6164
       400.278         311.905
    -69506.363 9    -40803.74047  21642246.286    21642247.8074   21642255.2464
     -1434.397       -1117.712
 -11430984.946 9  -8884272.64047  22482277.637    22482278.8854   22482287.1434
      4522.269        3523.846
   2404570.149 9   1873499.42047  21954339.977    21954340.8504   21954347.8544
      -773.792        -602.955
  -8421522.330 9  -6542461.50746  22916463.718    22916465.0264   22916473.3024
      4784.351        3728.066
  -7499170.696 9  -5836448.95148  19687281.725    19687282.5754   19687288.9704
       590.346         460.010
  -3544071.291 9  -2750702.68646  23335057.976    23335059.3664   23335066.5734
     -1042.436        -812.288
 -14717713.670 9 -11451310.13548  19091053.656    19091054.8194   19091061.3994
       920.850         717.545
 96 11  4 18  1 59.9960000  0  9 17 31  3 25 23 15 21  9  1         -0.003940635
    654272.331 8    498228.59346  23646928.427    23646930.0704   23646939.6054
     -2418.558       -1884.591
 -12801158.549 9  -9957173.01848  21602560.935    21602561.5784   21602568.7944
       383.072         298.498
    -26353.166 9     -7177.93247  21650458.185    21650459.6114   21650467.0744
     -1443.056       -1124.459
 -11566622.763 9  -8989964.39047  22456466.490    22456467.8324   22456476.1024
      4519.868        3521.975
   2427843.088 9   1891634.15347  21958768.650    21958769.5744   21958776.5944
      -778.061        -606.281
  -8565019.760 9  -6654277.64846  22889157.528    22889158.3884   22889166.6254
      4781.679        3725.984
  -7516769.036 9  -5850161.94848  19683932.832    19683933.7294   19683940.1304
       582.368         453.793
  -3512592.908 9  -2726174.08446  23341048.208    23341049.5554   23341056.7864
     -1056.572        -823.303
 -14745109.424 9 -11472657.47648  19085840.457    19085841.5844   19085848.1734
       905.070         705.249
 96 11  4 18  2 29.9960000  0  9 17 31  3 25 23 15 21  9  1         -0.003964218
    726891.530 8    554814.88746  23660747.797    23660749.0124   23660758.7424
     -2422.313       -1887.517
 -12812384.663 9  -9965920.65947  21600424.557    21600425.3274   21600432.5514
       365.661         284.931
     17074.684 9     26661.91947  21658722.298    21658723.6904   21658731.2014
     -1451.674       -1131.175
 -11702187.641 9  -9095599.35547  22430669.313    22430670.6634   22430678.7784
      4518.083        3520.584
   2451233.485 9   1909860.39447  21963219.690    21963220.6174   21963227.7254
      -780.872        -608.472
  -8708432.203 9  -6766027.56646  22861867.072    22861867.8204   22861876.0284
      4779.627        3724.385
  -7534126.987 9  -5863687.63248  19680629.654    19680630.5994   19680637.0114
       575.382         448.350
  -3480691.782 9  -2701316.07046  23347118.953    23347120.1594   23347127.3144
     -1069.774        -833.590
 -14772022.649 9 -11493628.81948  19080719.069    19080720.1524   19080726.7314
       889.610         693.202
 96 11  4 18  2 59.9960000  0  9 17 31  3 25 23 15 21  9  1         -0.003987792
    799654.09217    611512.82155  23674593.072    23674594.9065   23674605.1255
     -2427.365       -1891.453
 -12823055.312 9  -9974235.47048  21598393.933    21598394.7894   21598401.9794
       346.636         270.106
     60789.128 9     60725.08447  21667040.876    21667042.2834   21667049.8274
     -1461.408       -1138.759
 -11837663.632 9  -9201164.98847  22404888.865    22404890.3994   22404898.5714
      4514.660        3517.917
   2474749.567 9   1928184.57247  21967694.589    21967695.5874   21967702.7094
      -785.851        -612.351
  -8851749.258 9  -6877703.15546  22834594.348    22834595.4594   22834603.6564
      4775.940        3721.512
  -7551241.691 9  -5877023.77148  19677372.825    19677373.7734   19677380.1974
       566.609         441.514
  -3448357.768 9  -2676120.74946  23353271.909    23353273.1194   23353280.2624
     -1084.853        -845.340
 -14798441.812 9 -11514215.17848  19075691.556    19075692.7354   19075699.3334
       872.820         680.119
 96 11  4 18  3 29.9960000  0  9 17 31  3 25 23 15 21  9  1         -0.004011360
    872538.62518    668306.08055  23688462.195    23688463.9985   23688474.3345
     -2432.144       -1895.177
 -12833176.577 9  -9982122.18347  21596467.975    21596468.8014   21596475.9914
       327.424         255.136
    104756.669 9     94985.47147  21675407.533    21675409.0134   21675416.6134
     -1470.541       -1145.876
 -11973066.610 9  -9306673.79747  22379122.561    22379124.0114   22379132.0644
      4511.382        3515.363
   2498387.429 9   1946603.64847  21972192.821    21972193.7494   21972200.8734
      -790.544        -616.008
  -8994983.971 9  -6989314.59346  22807337.522    22807338.7424   22807347.0264
      4772.341        3718.707
  -7568119.147 9  -5890175.04148  19674161.147    19674162.1114   19674168.5274
       557.989         434.797
  -3415590.575 8  -2650587.86546  23359507.255    23359508.6294   23359515.7184
     -1100.415        -857.466
 -14824389.889 9 -11534434.45648  19070753.835    19070754.9684   19070761.5544
       856.350         667.286
 96 11  4 18  3 59.9960000  0  9 17 31  3 25 23 15 21  9  1         -0.004034884
    945603.331 8    725239.52245  23702366.707    23702368.0114   23702378.2614
     -2437.898       -1899.661
 -12842695.042 9  -9989539.19148  21594656.729    21594657.5034   21594664.7204
       308.011         240.008
    149035.259 9    129488.20647  21683833.491    21683834.9224   21683842.5414
     -1480.473       -1153.615
 -12108329.437 9  -9412073.34647  22353382.951    22353384.3064   22353392.3954
      4507.089        3512.017
   2522184.217 9   1965146.56847  21976721.178    21976722.1254   21976729.3054
      -794.933        -619.428
  -9138078.844 9  -7100817.04446  22780107.755    22780108.6514   22780117.0134
      4768.215        3715.492
  -7584718.819 9  -5903109.85348  19671002.367    19671003.3074   19671009.7194
       549.485         428.170
  -3382321.269 8  -2624663.73946  23365838.237    23365839.6294   23365846.7114
     -1116.367        -869.896
 -14849813.796 9 -11554245.29548  19065915.682    19065916.9484   19065923.5414
       839.654         654.276
 96 11  4 18  4 29.9950000  0  9 17 31  3 25 23 15 21  9  1         -0.004058400
   1018804.540 8    782279.41645  23716296.540    23716297.8604   23716307.8774
     -2442.101       -1902.936
 -12851672.786 9  -9996534.85447  21592948.233    21592949.1184   21592956.3454
       290.865         226.648
    193574.269 9    164193.91047  21692308.970    21692310.3914   21692318.0804
     -1488.507       -1159.876
 -12243496.763 9  -9517398.50247  22327661.238    22327662.7714   22327670.7304
      4504.417        3509.935
   2546063.931 9   1983754.10047  21981265.362    21981266.3164   21981273.5094
      -797.122        -621.134
  -9281080.939 9  -7212247.21446  22752895.310    22752896.2644   22752904.5854
      4765.675        3713.513
  -7601091.645 9  -5915867.90448  19667886.753    19667887.6764   19667894.0704
       542.152         422.456
  -3348618.873 8  -2598402.14046  23372251.581    23372252.9484   23372260.0274
     -1130.482        -880.895
 -14874784.361 9 -11573702.87648  19061164.006    19061165.1854   19061171.7834
       825.355         643.134
 96 11  4 18  4 59.9950000  0  9 17 31  3 25 23 15 21  9  1         -0.004081920
   1092116.235 8    839405.44945  23730247.424    23730248.6654   23730258.6324
     -2444.762       -1905.009
 -12860159.927 9 -10003148.23248  21591333.125    21591334.0854   21591341.2764
       275.467         214.650
    238334.574 9    199072.01947  21700826.726    21700828.0114   21700835.7774
     -1495.048       -1164.972
 -12378597.860 9  -9622672.04447  22301952.319    22301953.9264   22301961.8044
      4502.965        3508.804
   2570006.110 9   2002410.30947  21985821.401    21985822.3764   21985829.6004
      -798.348        -622.089
  -9424018.743 9  -7323627.28246  22725695.413    22725696.0974   22725704.3504
      4764.007        3712.213
  -7617249.600 9  -5928458.52348  19664812.040    19664812.9264   19664819.3294
       535.651         417.390
  -3314499.559 8  -2571815.68046  23378744.241    23378745.5424   23378752.6474
     -1143.554        -891.081
 -14899346.438 9 -11592842.15748  19056490.131    19056491.1954   19056497.7764
       812.512         633.126
 96 11  4 18  5 29.9950000  0  9 17 31  3 25 23 15 21  9  1         -0.004105445
   1165551.109 8    896627.45445  23744221.875    23744222.9874   23744233.0554
     -2451.007       -1909.876
 -12868154.304 9 -10009377.63647  21589811.847    21589812.8354   21589820.0294
       257.325         200.513
    283328.024 9    234131.81347  21709388.821    21709390.0334   21709397.7644
     -1505.019       -1172.742
 -12513621.100 9  -9727884.93347  22276258.217    22276259.8854   22276267.7144
      4498.273        3505.148
   2594003.038 9   2021109.17647  21990387.927    21990388.8934   21990396.1184
      -801.731        -624.725
  -9566868.775 9  -7434938.95846  22698511.982    22698512.6704   22698520.8864
      4759.100        3708.390
  -7633191.834 9  -5940881.05448  19661778.361    19661779.2524   19661785.6304
       526.928         410.593
  -3279958.874 8  -2544900.86846  23385316.932    23385318.4514   23385325.6144
     -1159.347        -903.387
 -14923483.171 9 -11611650.00348  19051897.120    19051898.1494   19051904.7014
       796.307         620.499
 96 11  4 18  5 59.9950000  0  9 17 31  3 25 23 15 21  9  1         -0.004128938
   1239177.194 8    953998.35445  23758232.793    23758234.0654   23758243.8934
     -2456.507       -1914.161
 -12875612.109 9 -10015188.93547  21588392.693    21588393.6224   21588400.8854
       240.499         187.402
    328638.606 9    269438.71547  21718011.016    21718012.3844   21718020.1504
     -1514.911       -1180.450
 -12648497.607 9  -9832983.48547  22250592.194    22250593.7604   22250601.5834
      4494.319        3502.067
   2618110.845 9   2039894.44847  21994975.537    21994976.5044   21994983.7334
      -804.881        -627.180
  -9709568.645 9  -7546133.62846  22671357.094    22671357.7704   22671365.9784
      4754.950        3705.156
  -7648866.851 9  -5953095.36048  19658795.572    19658796.4124   19658802.7924
       518.705         404.186
  -3244949.217 8  -2517620.61546  23391978.987    23391980.5444   23391987.6084
     -1173.634        -914.520
 -14947128.658 9 -11630075.05948  19047397.572    19047398.5704   19047405.1054
       780.827         608.437
 96 11  4 18  6 29.9950000  0  9 17 31  3 25 23 15 21  9  1         -0.004152430
   1312937.484 8   1011473.75745  23772269.113    23772269.9764   23772280.1054
     -2460.192       -1917.033
 -12882584.612 9 -10020622.07947  21587065.936    21587066.8014   21587074.0684
       224.788         175.159
    374219.626 9    304956.35147  21726684.901    21726686.2124   21726693.9724
     -1523.072       -1186.809
 -12783283.263 9  -9938011.24747  22224943.292    22224944.8554   22224952.6484
      4491.991        3500.253
   2642303.387 9   2058745.74847  21999579.233    21999580.2224   21999587.4104
      -807.624        -629.317
  -9852166.602 9  -7657248.88246  22644221.434    22644222.3124   22644230.4834
      4752.101        3702.936
  -7664315.452 9  -5965133.23848  19655855.828    19655856.6984   19655863.0264
       511.902         398.885
  -3209533.923 8  -2490024.30546  23398718.371    23398719.7514   23398726.9264
     -1186.843        -924.813
 -14970331.742 9 -11648155.38448  19042982.196    19042983.2014   19042989.7084
       766.451         597.235
 96 11  4 18  6 59.9950000  0  9 17 31  3 25 23 15 21  9  1         -0.004175925
   1386811.372 7   1069037.70945  23786326.969    23786327.8434   23786337.6334
     -2463.954       -1919.964
 -12889073.547 9 -10025678.41847  21585831.050    21585831.9784   21585839.2994
       208.409         162.397
    420043.843 9    340663.48347  21735404.910    21735406.3104   21735414.0774
     -1531.199       -1193.142
 -12917990.906 9 -10042978.21047  22199309.210    22199310.8894   22199318.6064
      4489.250        3498.117
   2666605.574 9   2077682.48947  22004203.791    22004204.8514   22004212.0114
      -811.617        -632.429
  -9994669.497 9  -7768290.05046  22617103.896    22617104.8614   22617113.0904
      4748.802        3700.365
  -7679566.320 9  -5977017.04248  19652953.705    19652954.5654   19652960.8654
       505.557         393.941
  -3173712.735 8  -2462111.71446  23405534.865    23405536.2104   23405543.5184
     -1200.348        -935.336
 -14993086.783 9 -11665886.58448  19038652.100    19038653.0724   19038659.5624
       751.274         585.408
 96 11  4 18  7 29.9950000  0  9 17 31  3 25 23 15 21  9  1         -0.004199420
   1460801.035 8   1126691.86545  23800406.968    23800407.8194   23800417.5174
     -2468.454       -1923.471
 -12895066.083 9 -10030347.95247  21584690.709    21584691.6324   21584698.9924
       191.097         148.907
    466117.003 9    376564.58547  21744172.306    21744173.7644   21744181.5464
     -1540.276       -1200.215
 -13052610.600 9 -10147876.63947  22173692.003    22173693.6274   22173701.2484
      4485.348        3495.076
   2691037.267 9   2096720.13747  22008853.047    22008854.1004   22008861.2074
      -817.173        -636.758
 -10137070.968 9  -7879252.20546  22590005.544    22590006.7324   22590014.9334
      4744.683        3697.156
  -7694617.088 9  -5988744.93148  19650089.588    19650090.5034   19650096.8124
       497.885         387.962
  -3137490.269 8  -2433886.41746  23412428.034    23412429.2164   23412436.4004
     -1214.468        -946.339
 -15015379.249 9 -11683257.34548  19034409.881    19034410.9474   19034417.4194
       735.026         572.748
 96 11  4 18  7 59.9950000  0  9 17 31  3 25 23 15 21  9  1         -0.004222883
   1534932.455 8   1184456.50845  23814513.511    23814514.7594   23814524.2514
     -2473.268       -1927.222
 -12900521.705 9 -10034599.10447  21583652.371    21583653.4634   21583660.8014
       172.839         134.680
    512475.211 9    412687.82047  21752993.995    21752995.4854   21753003.2754
     -1549.640       -1207.512
 -13187092.427 9 -10252667.64347  22148101.086    22148102.6444   22148110.1294
      4480.371        3491.198
   2715667.789 9   2115912.71847  22013540.092    22013541.1274   22013548.2904
      -824.347        -642.348
 -10279332.162 9  -7990105.03846  22562934.147    22562935.2554   22562943.4324
      4739.727        3693.294
  -7709413.729 9  -6000274.78748  19647273.917    19647274.7964   19647281.1324
       488.917         380.974
  -3100830.068 8  -2405320.06045  23419404.429    23419405.4884   23419412.6454
     -1229.189        -957.810
 -15037170.550 9 -11700237.57648  19030263.076    19030264.1874   19030270.6624
       718.137         559.587
 96 11  4 18  8 29.9950000  0  9 17 31  3 25 23 15 21  9  1         -0.004246331
   1609157.201 8   1242293.90746  23828638.012    23828639.2154   23828648.8234
     -2476.043       -1929.384
 -12905470.323 9 -10038455.20047  21582710.979    21582711.7464   21582719.1204
       156.114         121.647
    559048.358 9    448978.52647  21761856.756    21761858.1044   21761865.9054
     -1556.144       -1212.580
 -13321464.262 9 -10357372.90747  22122530.894    22122532.4334   22122540.0984
      4476.826        3488.436
   2740452.504 9   2135225.44547  22018256.543    22018257.5374   22018264.6744
      -828.747        -645.777
 -10421490.716 9  -8100877.89946  22535882.233    22535883.3904   22535891.5844
      4736.563        3690.828
  -7723993.166 9  -6011635.40548  19644499.598    19644500.4534   19644506.7874
       482.050         375.623
  -3063773.443 8  -2376444.77145  23426455.956    23426457.0584   23426464.2764
     -1242.183        -967.935
 -15058508.220 9 -11716864.33448  19026202.739    19026203.7874   19026210.2354
       703.435         548.131
 96 11  4 18  8 59.9950000  0  9 17 31  3 25 23 15 21  9  1         -0.004269764
   1683481.275 8   1300208.66446  23842781.588    23842782.6574   23842792.4924
     -2479.596       -1932.153
 -12909913.069 9 -10041917.10047  21581865.426    21581866.3614   21581873.7064
       139.313         108.556
    605830.705 9    485432.24747  21770759.147    21770760.5074   21770768.3234
     -1563.442       -1218.266
 -13455707.818 9 -10461978.23047  22096985.170    22096986.7004   22096994.3144
      4472.026        3484.696
   2765376.589 9   2154646.77147  22022999.483    22023000.4624   22023007.5784
      -833.183        -649.234
 -10563539.497 9  -8211565.23146  22508851.466    22508852.3354   22508860.5984
      4732.749        3687.856
  -7738348.662 9  -6022821.52948  19641767.795    19641768.7014   19641775.0264
       474.254         369.548
  -3026315.566 8  -2347256.83845  23433583.881    23433584.9674   23433592.2854
     -1255.571        -978.367
 -15079393.185 9 -11733138.34048  19022228.411    19022229.5204   19022235.9604
       688.302         536.339
 96 11  4 18  9 29.9950000  0  9 17 31  3 25 23 15 21  9  1         -0.004293174
   1757934.376 9   1358223.96546  23856949.563    23856950.6654   23856960.5404
     -2483.480       -1935.179
 -12913833.936 9 -10044972.35847  21581119.537    21581120.2814   21581127.6304
       122.424          95.395
    652852.527 9    522072.58047  21779707.190    21779708.4464   21779716.3234
     -1570.964       -1224.128
 -13589782.489 9 -10566451.96447  22071471.675    22071473.1994   22071480.6344
      4466.627        3480.489
   2790435.910 9   2174173.46947  22027768.151    22027769.1294   22027776.2754
      -837.100        -652.286
 -10705452.819 9  -8322147.00946  22481845.899    22481847.0664   22481855.3144
      4728.514        3684.556
  -7752444.940 9  -6033805.65648  19639085.381    19639086.3024   19639092.6064
       465.894         363.034
  -2988444.353 8  -2317746.82045  23440790.346    23440791.7704   23440798.9574
     -1268.938        -988.783
 -15099807.735 9 -11749045.78548  19018343.599    19018344.7434   19018351.1964
       672.948         524.375
 96 11  4 18  9 59.9950000  0  9 17 31  3 25 23 15 21  9  1         -0.004316575
   1832497.614 9   1416325.10046  23871138.400    23871139.6314   23871149.5084
     -2487.040       -1937.953
 -12917249.636 9 -10047633.96647  21580469.240    21580470.3204   21580477.6734
       105.628          82.308
    700086.173 9    558877.96547  21788695.479    21788696.7474   21788704.6644
     -1577.484       -1229.208
 -13723692.762 9 -10670797.57347  22045989.161    22045990.9094   22045998.2704
      4461.203        3476.262
   2815601.345 9   2193782.85747  22032557.045    22032557.9254   22032565.1254
      -840.159        -654.669
 -10847240.584 9  -8432630.94846  22454864.764    22454865.7324   22454873.9794
      4724.373        3681.330
  -7766295.779 9  -6044598.52548  19636449.717    19636450.5894   19636456.9114
       457.865         356.778
  -2950167.142 8  -2287920.44445  23448074.383    23448075.6784   23448083.0184
     -1282.508        -999.357
 -15119767.068 9 -11764598.51248  19014545.453    19014546.6254   19014553.0654
       658.104         512.808
 96 11  4 18 10 29.9950000  0  9 17 31  3 25 23 15 21  9  1         -0.004339974
   1907164.465 8   1474506.97246  23885347.214    23885348.2824   23885358.1074
     -2490.492       -1940.643
 -12920165.412 9 -10049906.02147  21579914.399    21579915.4764   21579922.8254
        89.087          69.418
    747512.627 9    595833.58547  21797720.469    21797721.7384   21797729.6444
     -1584.108       -1234.370
 -13857446.700 9 -10775021.35647  22020536.641    22020538.3124   22020545.7174
      4456.232        3472.389
   2840851.768 9   2213458.47847  22037362.061    22037362.9314   22037370.1734
      -843.030        -656.906
 -10988904.198 9  -8543018.14946  22427907.063    22427908.0524   22427916.2724
      4720.182        3678.064
  -7779912.871 9  -6055209.25548  19633858.494    19633859.3414   19633865.6654
       450.178         350.788
  -2911484.388 8  -2257778.05445  23455435.526    23455436.7664   23455444.2594
     -1296.043       -1009.904
 -15139283.398 9 -11779806.04548  19010831.711    19010832.8084   19010839.2304
       643.310         501.281
 96 11  4 18 10 59.9950000  0  8 31  3 25 23 15 21  9  1            -0.004363359
 -12922562.245 9 -10051773.71347  21579458.468    21579459.4284   21579466.7744
        72.245          56.295
    795169.910 9    632969.06747  21806789.378    21806790.6524   21806798.6094
     -1591.409       -1240.059
 -13991035.964 9 -10879116.83147  21995115.558    21995117.0844   21995124.5184
      4451.402        3468.625
   2866220.662 9   2233226.39847  22042189.572    22042190.4884   22042197.7734
      -846.618        -659.702
 -11130416.251 9  -8653287.24046  22400978.166    22400979.1944   22400987.4594
      4715.578        3674.476
  -7793269.950 9  -6065617.38348  19631316.721    19631317.5874   19631323.9074
       441.904         344.341
  -2872376.874 8  -2227304.68945  23462877.528    23462878.6594   23462886.2324
     -1309.542       -1020.422
 -15158324.549 9 -11794643.30948  19007208.264    19007209.4334   19007215.8334
       627.718         489.131
 96 11  4 18 11 29.9950000  0  8 31  3 25 23 15 21  9  1            -0.004386761
 -12924484.564 9 -10053271.65047  21579092.625    21579093.6394   21579100.9984
        56.041          43.668
    843015.189 9    670251.05647  21815894.151    21815895.3854   21815903.3344
     -1598.157       -1245.317
 -14124512.990 9 -10983124.85947  21969715.829    21969717.2564   21969724.6374
      4447.380        3465.491
   2891670.297 9   2253057.23647  22047032.453    22047033.4014   22047040.7594
      -850.005        -662.341
 -11271817.291 9  -8763469.83146  22374070.297    22374071.4854   22374079.7344
      4711.317        3671.156
  -7806407.978 9  -6075854.82148  19628816.681    19628817.5024   19628823.8264
       434.132         338.285
  -2832890.288 8  -2196535.93645  23470391.342    23470392.7894   23470400.2834
     -1322.670       -1030.652
 -15176928.461 9 -11809139.86249  19003668.084    19003669.2514   19003675.6584
       612.737         477.457
 96 11  4 18 11 59.9950000  0  8 31  3 25 23 15 21  9  1            -0.004410171
 -12925932.998 9 -10054400.32847  21578817.018    21578818.0444   21578825.3964
        39.874          31.071
    891054.285 9    707684.04247  21825035.813    21825036.9574   21825044.9654
     -1605.095       -1250.723
 -14257881.439 9 -11087048.24847  21944336.678    21944338.0214   21944345.4534
      4443.466        3462.441
   2917217.399 9   2272964.03347  22051893.995    22051894.8804   22051902.2514
      -853.699        -665.220
 -11413101.149 9  -8873561.11646  22347185.007    22347186.0474   22347194.2404
      4707.013        3667.802
  -7819325.688 9  -6085920.57848  19626358.450    19626359.3414   19626365.6944
       426.469         332.314
  -2793025.346 8  -2165472.36445  23477977.396    23477978.8314   23477986.2544
     -1335.503       -1040.652
 -15195097.015 9 -11823297.17949  19000210.755    19000211.9154   19000218.2794
       598.004         465.977
 96 11  4 18 12 29.9950000  0  8 31  3 25 23 15 21  9  1            -0.004433565
 -12926870.605 9 -10055130.96447  21578638.614    21578639.6424   21578647.0154
        23.851          18.585
    939341.611 9    745310.47947  21834224.472    21834225.7724   21834233.7594
     -1612.847       -1256.764
 -14391119.583 9 -11190870.11247  21918982.174    21918983.5744   21918991.0624
      4440.091        3459.811
   2942906.654 9   2292981.58747  22056782.482    22056783.4104   22056790.7994
      -857.672        -668.316
 -11554226.677 9  -8983529.02046  22320329.683    22320330.7544   22320338.8774
      4702.506        3664.290
  -7831983.342 9  -6095783.69348  19623949.673    19623950.6424   19623957.0314
       418.455         326.069
  -2752749.812 8  -2134088.86845  23485641.503    23485642.9814   23485650.5054
     -1348.441       -1050.733
 -15212791.883 9 -11837085.39049  18996843.621    18996844.7174   18996851.0484
       582.791         454.123
 96 11  4 18 12 59.9950000  0  8 31  3 25 23 15 21  9  1            -0.004456978
 -12927354.639 9 -10055508.16447  21578546.503    21578547.5724   21578554.9254
         8.406           6.550
    987830.780 9    783094.19047  21843451.741    21843453.0444   21843461.0374
     -1619.722       -1262.121
 -14524274.619 9 -11294627.26247  21893643.515    21893644.9724   21893652.3534
      4436.799        3457.246
   2968678.477 9   2313063.46447  22061686.676    22061687.6654   22061695.0714
      -860.495        -670.516
 -11695243.011 9  -9093411.84146  22293495.296    22293496.2044   22293504.3424
      4698.534        3661.195
  -7844425.997 9  -6105479.28048  19621581.950    19621582.8764   19621589.2844
       411.111         320.346
  -2712112.098 8  -2102423.13845  23493374.515    23493376.0324   23493383.3924
     -1360.888       -1060.432
 -15230061.321 9 -11850542.10149  18993557.283    18993558.4584   18993564.7884
       568.423         442.927
 96 11  4 18 13 29.9950000  0  8 31  3 25 23 15 21  9  1            -0.004480410
 -12927389.294 9 -10055535.17947  21578539.993    21578540.9684   21578548.3704
        -6.626          -5.163
   1036513.302 9    821028.56547  21852715.721    21852717.0674   21852725.0554
     -1626.218       -1267.183
 -14657332.011 9 -11398308.26147  21868323.348    21868324.9014   21868332.2914
      4433.146        3454.399
   2994524.780 9   2333203.39147  22066605.103    22066606.0694   22066613.4994
      -863.020        -672.483
 -11836148.683 9  -9203208.42646  22266681.441    22266682.7374   22266690.8514
      4694.740        3658.239
  -7856662.491 9  -6115014.21648  19619253.443    19619254.3534   19619260.7824
       404.220         314.977
  -2671113.462 8  -2070476.18745  23501176.324    23501177.8114   23501185.1674
     -1372.745       -1069.671
 -15246917.678 9 -11863676.92049  18990349.625    18990350.8084   18990357.1484
       554.966         432.441
 96 11  4 18 13 59.9950000  0  8 31  3 25 23 15 21  9  1            -0.004503842
 -12926961.424 9 -10055201.80647  21578621.355    21578622.3914   21578629.7984
       -21.405         -16.679
   1085399.215 9    859121.41647  21862018.449    21862019.8104   21862027.7534
     -1632.088       -1271.757
 -14790264.305 9 -11501891.83647  21843026.881    21843028.6684   21843036.1004
      4429.559        3451.604
   3020459.232 9   2353411.99247  22071540.267    22071541.2824   22071548.6884
      -865.344        -674.294
 -11976925.714 9  -9312904.78246  22239892.600    22239893.7174   22239901.8724
      4691.038        3655.354
  -7868682.106 9  -6124380.16948  19616966.166    19616967.0924   19616973.5544
       397.595         309.814
  -2629750.291 8  -2038245.18345  23509047.402    23509048.8834   23509056.2534
     -1384.245       -1078.632
 -15263360.491 9 -11876489.50549  18987220.528    18987221.8344   18987228.1864
       541.852         422.222
 96 11  4 18 14 29.9950000  0  8 31  3 25 23 15 21  9  1            -0.004527263
 -12926048.100 9 -10054490.14347  21578795.190    21578796.2134   21578803.6524
       -38.461         -29.970
   1134489.704 9    897373.69447  21871360.166    21871361.4784   21871369.4094
     -1639.596       -1277.607
 -14923047.718 9 -11605359.38747  21817758.893    21817760.8014   21817768.1634
      4423.413        3446.815
   3046503.866 9   2373706.46447  22076496.419    22076497.4974   22076504.8834
      -870.038        -677.952
 -12117551.329 9  -9422483.13746  22213132.770    22213133.4934   22213141.6564
      4685.013        3650.659
  -7880462.487 9  -6133559.69248  19614724.433    19614725.3394   19614731.8344
       388.741         302.915
  -2588000.041 8  -2005712.54945  23516992.122    23516993.7224   23517001.2264
     -1398.089       -1089.420
 -15279372.039 9 -11888966.03449  18984173.615    18984174.9274   18984181.2944
       526.577         410.320
 96 11  4 18 14 59.9950000  0  8 31  3 25 23 15 21  9  1            -0.004550665
 -12924651.764 9 -10053402.11847  21579060.958    21579061.9354   21579069.4034
       -55.118         -42.949
   1183768.813 9    935772.94347  21880737.658    21880739.0184   21880746.9324
     -1646.226       -1282.774
 -15055659.947 9 -11708693.52447  21792523.708    21792525.4594   21792532.8834
      4416.974        3441.798
   3072663.942 9   2394090.88647  22081474.603    22081475.6394   22081483.0284
      -874.618        -681.521
 -12258023.736 9  -9531942.11346  22186401.290    22186402.4384   22186410.5744
      4679.331        3646.232
  -7892009.406 9  -6142557.30448  19612527.146    19612528.0414   19612534.5594
       380.667         296.624
  -2545873.076 8  -1972886.38145  23525008.613    23525010.2184   23525017.7684
     -1410.682       -1099.233
 -15294963.352 9 -11901115.11649  18981206.613    18981208.0084   18981214.3934
       512.307         399.200
 96 11  4 18 15 29.9950000  0  8 31  3 25 23 15 21  9  1            -0.004574033
 -12922761.500 9 -10051929.21647  21579420.639    21579421.6694   21579429.1074
       -70.266         -54.753
   1233241.438 9    974322.97547  21890152.076    21890153.4154   21890161.2954
     -1651.304       -1286.730
 -15188085.468 9 -11811882.20447  21767323.973    21767325.6744   21767333.1274
      4412.030        3437.945
   3098971.393 9   2414590.13747  22086480.750    22086481.8194   22086489.2244
      -878.452        -684.508
 -12398326.846 9  -9641269.17146  22159702.818    22159703.6104   22159711.7014
      4674.879        3642.763
  -7903319.434 9  -6151370.32348  19610374.843    19610375.8114   19610382.3444
       373.933         291.376
  -2503375.801 8  -1939771.66045  23533095.627    23533097.1084   23533104.7394
     -1421.772       -1107.874
 -15310127.913 9 -11912931.66349  18978320.910    18978322.2884   18978328.6674
       499.305         389.069
 96 11  4 18 15 59.9950000  0  8 31  3 25 23 15 21  9  1            -0.004597400
 -12920424.295 9 -10050108.03547  21579865.505    21579866.4444   21579873.8554
       -85.371         -66.523
   1282856.239 9   1012983.78947  21899593.496    21899594.8694   21899602.7154
     -1656.003       -1290.392
 -15320378.284 9 -11914967.45247  21742149.483    21742151.1604   21742158.6494
      4407.892        3434.721
   3125387.695 9   2435174.21847  22091507.657    22091508.7484   22091516.1584
      -882.354        -687.548
 -12538505.857 9  -9750499.53846  22133027.590    22133028.4194   22133036.5184
      4670.711        3639.515
  -7914433.826 9  -6160030.90148  19608259.798    19608260.8254   19608267.3404
       367.318         286.222
  -2460540.913 8  -1906393.87445  23541247.015    23541248.3614   23541255.9794
     -1433.508       -1117.019
 -15324901.755 9 -11924443.74749  18975509.628    18975510.9074   18975517.3084
       485.937         378.652
 96 11  4 18 16 29.9950000  0  8 31  3 25 23 15 21  9  1            -0.004620763
 -12917614.037 9 -10047918.24947  21580400.255    21580401.3014   21580408.6844
      -101.591         -79.162
   1332627.280 9   1051766.35647  21909064.726    21909066.0514   21909073.8504
     -1661.906       -1294.992
 -15452539.424 9 -12017950.10647  21717000.107    21717001.7034   21717009.1994
      4403.065        3430.960
   3151937.129 9   2455862.03047  22096559.898    22096560.9634   22096568.4114
      -887.117        -691.260
 -12678544.538 9  -9859620.54546  22106378.892    22106379.8944   22106388.0614
      4665.483        3635.441
  -7925336.589 9  -6168526.56448  19606185.108    19606186.1154   19606192.6264
       359.796         280.361
  -2417342.087 8  -1872732.49145  23549467.522    23549468.9264   23549476.6214
     -1446.058       -1126.798
 -15339253.524 9 -11935626.94649  18972778.717    18972779.8754   18972786.2584
       471.147         367.127
 96 11  4 18 16 59.9950000  0  8 31  3 25 23 15 21  9  1            -0.004644117
 -12914317.099 9 -10045349.23947  21581027.748    21581028.7284   21581036.0844
      -118.352         -92.222
   1382589.613 9   1090697.99247  21918572.385    21918573.6114   21918581.4464
     -1668.952       -1300.482
 -15584547.075 9 -12120813.16047  21691879.946    21691881.4704   21691888.9304
      4397.492        3426.617
   3178626.380 9   2476658.79747  22101638.750    22101639.7974   22101647.2814
      -892.198        -695.219
 -12818420.699 9  -9968614.92446  22079761.285    22079762.2854   22079770.4614
      4659.515        3630.791
  -7936006.832 9  -6176841.05048  19604154.728    19604155.6544   19604162.1404
       351.476         273.877
  -2373761.621 8  -1838773.72246  23557760.452    23557762.1064   23557769.6934
     -1459.353       -1137.158
 -15353155.692 9 -11946459.80749  18970133.283    18970134.3754   18970140.7654
       455.594         355.008
 96 11  4 18 17 29.9950000  0  8 31  3 25 23 15 21  9  1            -0.004667461
 -12910522.955 9 -10042392.79247  21581749.927    21581750.7804   21581758.1354
      -134.329        -104.672
   1432760.053 9   1129791.78247  21928119.674    21928120.8174   21928128.5764
     -1675.403       -1305.509
 -15716396.163 9 -12223552.67147  21666789.942    21666791.3994   21666798.7974
      4392.776        3422.942
   3205460.154 9   2497568.17147  22106745.105    22106746.1454   22106753.5694
      -896.234        -698.364
 -12958126.116 9 -10077476.25546  22053176.007    22053177.1504   22053185.3574
      4654.450        3626.844
  -7946428.339 9  -6184961.71548  19602171.578    19602172.5354   19602179.0024
       343.478         267.645
  -2329780.241 8  -1804502.55646  23566129.908    23566131.5474   23566138.9624
     -1472.375       -1147.305
 -15366591.708 9 -11956929.44149  18967576.411    18967577.6114   18967583.9864
       440.547         343.283
 96 11  4 18 17 59.9950000  0  8 31  3 25 23 15 21  9  1            -0.004690818
 -12906260.955 9 -10039071.79047  21582560.964    21582561.8444   21582569.2254
      -150.299        -117.116
   1483111.984 9   1169027.00647  21937701.372    21937702.5414   21937710.3204
     -1681.691       -1310.409
 -15848117.996 9 -12326193.00547  21641724.009    21641725.4434   21641732.8694
      4388.251        3419.416
   3232402.184 9   2518561.90547  22111872.088    22111873.0824   22111880.5244
      -900.251        -701.494
 -13097687.224 9 -10186225.13746  22026618.669    22026619.4544   22026627.7974
      4649.162        3622.724
  -7956612.994 9  -6192897.82148  19600233.555    19600234.4774   19600240.9244
       335.140         261.148
  -2285418.738 8  -1769935.18445  23574571.770    23574573.2104   23574580.6924
     -1485.213       -1157.309
 -15379587.202 9 -11967055.80049  18965103.498    18965104.6564   18965111.0464
       425.497         331.556
 96 11  4 18 18 29.9950000  0  8 31  3 25 23 15 21  9  1            -0.004714185
 -12901534.583 9 -10035388.93047  21583460.370    21583461.2404   21583468.6744
      -165.353        -128.846
   1533642.153 9   1208401.08547  21947316.964    21947318.1294   21947325.9764
     -1687.635       -1315.040
 -15979702.489 9 -12428726.32247  21616684.097    21616685.6034   21616693.1484
      4383.264        3415.530
   3259449.439 9   2539637.63447  22117019.138    22117020.0584   22117027.4634
      -903.438        -703.978
 -13237096.924 9 -10294856.03946  22000090.181    22000090.6114   22000098.9604
      4644.111        3618.788
  -7966554.502 9  -6200644.45748  19598341.816    19598342.6794   19598349.1394
       326.895         254.723
  -2240698.567 8  -1735088.32745  23583081.860    23583083.0754   23583090.6894
     -1496.725       -1166.279
 -15392146.227 9 -11976842.05649  18962713.678    18962714.7514   18962721.1404
       411.164         320.387
 96 11  4 18 18 59.9950000  0  8 31  3 25 23 15 21  9  1            -0.004737562
 -12896371.208 9 -10031365.56247  21584442.996    21584443.8494   21584451.2704
      -179.846        -140.140
   1584333.336 9   1247900.64347  21956963.185    21956964.4004   21956972.2104
     -1692.530       -1318.855
 -16111137.117 9 -12531142.87547  21591672.803    21591674.4664   21591681.9324
      4378.227        3411.605
   3286589.359 9   2560785.55847  22122183.761    22122184.7154   22122192.0924
      -906.814        -706.608
 -13376362.435 9 -10403374.58446  21973588.466    21973589.2274   21973597.6074
      4639.456        3615.160
  -7976248.258 9  -6208198.04248  19596497.240    19596498.0614   19596504.4874
       318.642         248.292
  -2195636.467 8  -1699975.03246  23591657.048    23591658.1624   23591665.8444
     -1508.009       -1175.072
 -15404292.825 9 -11986306.94149  18960402.251    18960403.3264   18960409.7064
       397.771         309.951
 96 11  4 18 19 29.9950000  0  8 31  3 25 23 15 21  9  1            -0.004760926
 -12890747.318 9 -10026983.34047  21585513.316    21585514.0654   21585521.5004
      -194.421        -151.497
   1635196.853 9   1287534.50547  21966642.321    21966643.4554   21966651.2974
     -1697.665       -1322.856
 -16242392.700 9 -12633419.89747  21566695.590    21566697.2844   21566704.7834
      4372.781        3407.362
   3313861.805 9   2582036.75447  22127373.580    22127374.5064   22127381.9124
      -910.611        -709.567
 -13515458.703 9 -10511761.25446  21947119.117    21947120.0634   21947128.4524
      4634.200        3611.065
  -7985664.573 9  -6215535.44548  19594705.424    19594706.2304   19594712.6484
       309.777         241.385
  -2150215.159 8  -1664581.83646  23600300.383    23600301.5074   23600309.2924
     -1519.474       -1184.006
 -15416007.593 9 -11995435.33949  18958173.015    18958174.0764   18958180.4714
       383.852         299.105
 96 11  4 18 19 59.9950000  0  8 31  3 25 23 15 21  9  1            -0.004784294
 -12884697.980 9 -10022269.60047  21586664.452    21586665.1854   21586672.6424
      -208.841        -162.733
   1686201.113 9   1327277.99547  21976348.163    21976349.2744   21976357.1904
     -1702.455       -1326.588
 -16373494.754 9 -12735577.30647  21541747.834    21541749.3694   21541756.8594
      4367.384        3403.156
   3341232.794 9   2603364.73547  22132582.192    22132583.0374   22132590.4724
      -913.827        -712.073
 -13654403.117 9 -10620029.60446  21920678.500    21920679.7724   21920688.1954
      4628.924        3606.954
  -7994830.022 9  -6222677.36148  19592961.270    19592962.1104   19592968.5344
       301.538         234.965
  -2104465.395 8  -1628932.68746  23609006.487    23609007.5064   23609015.2084
     -1530.317       -1192.455
 -15427323.090 9 -12004252.61649  18956019.746    18956020.8324   18956027.2034
       370.703         288.859
 96 11  4 18 20 29.9950000  0  8 31  3 25 23 15 21  9  1            -0.004807652
 -12878200.177 9 -10017206.40247  21587900.877    21587901.6584   21587909.1374
      -224.769        -175.145
   1737366.593 9   1367147.15047  21986084.560    21986085.7924   21986093.6904
     -1708.967       -1331.663
 -16504404.253 9 -12837584.65847  21516836.551    21516838.1354   21516845.5614
      4359.527        3397.034
   3368708.968 9   2624774.67647  22137810.752    22137811.6384   22137819.0624
      -918.322        -715.576
 -13793176.068 9 -10728164.33246  21894270.899    21894272.1184   21894280.5784
      4622.174        3601.694
  -8003738.832 9  -6229619.30048  19591266.073    19591266.8424   19591273.2514
       291.964         227.504
  -2058365.650 8  -1593010.83046  23617778.913    23617780.0494   23617787.6454
     -1543.386       -1202.638
 -15438232.754 9 -12012753.65349  18953943.840    18953944.7954   18953951.1764
       356.217         277.572
 96 11  4 18 20 59.9950000  0  8 31  3 25 23 15 21  9  1            -0.004831000
 -12871250.371 9 -10011791.01147  21589223.363    21589224.1624   21589231.6444
      -239.008        -186.240
   1788687.915 9   1407137.71447  21995850.567    21995851.9484   21995859.8574
     -1712.804       -1334.652
 -16635112.714 9 -12939435.37247  21491963.491    21491965.1124   21491972.5504
      4353.960        3392.696
   3396289.655 9   2646266.07247  22143059.284    22143060.1464   22143067.5694
      -920.635        -717.378
 -13931775.305 9 -10836163.71547  21867896.422    21867897.5434   21867906.0234
      4617.405        3597.978
  -8012397.490 9  -6236366.32048  19589618.371    19589619.1814   19589625.5764
       285.181         222.219
  -2011904.798 8  -1556807.61146  23626620.132    23626621.2924   23626628.9234
     -1554.316       -1211.155
 -15448737.549 9 -12020939.21349  18951944.799    18951945.8164   18951952.1774
       343.751         267.858
 96 11  4 18 21 29.9950000  0  8 31  3 25 23 15 21  9  1            -0.004854362
 -12863865.594 9 -10006036.65747  21590628.536    21590629.4714   21590636.9584
      -253.530        -197.556
   1840135.646 9   1447226.79647  22005640.803    22005642.1954   22005650.1464
     -1717.149       -1338.038
 -16765640.515 9 -13041145.30147  21467124.824    21467126.4574   21467133.8534
      4347.760        3387.865
   3423940.801 9   2667812.37447  22148321.108    22148321.9884   22148329.4394
      -922.965        -719.194
 -14070218.625 9 -10944041.59746  21841551.273    21841552.6114   21841561.0804
      4611.927        3593.709
  -8020858.057 9  -6242958.98048  19588008.385    19588009.2064   19588015.5864
       278.613         217.101
  -1965107.694 8  -1520342.34646  23635525.282    23635526.4754   23635534.0664
     -1565.628       -1219.970
 -15458856.826 9 -12028824.36649  18950019.129    18950020.1834   18950026.5504
       330.711         257.697
 96 11  4 18 21 59.9950000  0  8 31  3 25 23 15 21  9  1            -0.004877726
 -12856031.715 9  -9999932.36647  21592119.152    21592120.2314   21592127.7514
      -268.571        -209.276
   1891716.305 9   1487419.44147  22015456.358    22015457.7484   22015465.6404
     -1721.291       -1341.266
 -16895971.677 9 -13142702.01147  21442323.750    21442325.2814   21442332.5664
      4341.072        3382.654
   3451676.024 9   2689424.19247  22153598.946    22153599.8684   22153607.3534
      -925.996        -721.555
 -14208485.401 9 -11051781.91047  21815239.824    21815241.3624   21815249.7574
      4606.116        3589.181
  -8029112.387 9  -6249390.93648  19586437.630    19586438.4664   19586444.8544
       271.810         211.800
  -1917961.798 8  -1483605.30546  23644496.583    23644497.9904   23644505.6424
     -1577.122       -1228.926
 -15468583.048 9 -12036403.24749  18948168.141    18948169.3414   18948175.7084
       317.838         247.666
 96 11  4 18 22 29.9950000  0  8 31  3 25 23 15 21  9  1            -0.004901103
 -12847771.009 9  -9993495.47647  21593691.319    21593692.1784   21593699.7584
      -282.342        -220.007
   1943401.219 9   1527693.34947  22025291.587    22025293.1064   22025301.0904
     -1724.399       -1343.688
 -17026116.606 9 -13244113.60147  21417557.940    21417559.4724   21417566.8204
      4335.207        3378.083
   3479497.909 9   2711103.53447  22158893.227    22158894.2184   22158901.7324
      -929.099        -723.973
 -14346596.111 9 -11159400.60747  21788958.530    21788959.7474   21788968.1114
      4601.021        3585.211
  -8037178.454 9  -6255676.19448  19584902.654    19584903.5544   19584909.9314
       265.677         207.021
  -1870494.742 8  -1446618.01546  23653529.182    23653530.6744   23653538.3494
     -1587.282       -1236.843
 -15477927.311 9 -12043684.49349  18946389.923    18946391.1794   18946397.5644
       304.999         237.662
 96 11  4 18 22 59.9950000  0  8 31  3 25 23 15 21  9  1            -0.004924490
 -12839086.856 9  -9986728.64647  21595343.793    21595344.7444   21595352.3294
      -296.097        -230.725
   1995194.687 9   1568051.81947  22035147.551    22035149.1454   22035157.1614
     -1728.076       -1346.553
 -17156076.131 9 -13345380.72047  21392827.374    21392829.0094   21392836.3084
      4329.333        3373.506
   3507431.928 9   2732870.24947  22164208.874    22164209.9344   22164217.4294
      -932.609        -726.708
 -14484536.789 9 -11266886.82247  21762709.259    21762710.5454   21762718.8334
      4595.482        3580.895
  -8045045.328 9  -6261806.23648  19583405.583    19583406.5444   19583412.9204
       259.274         202.032
  -1822720.993 8  -1409391.74846  23662620.305    23662621.7444   23662629.4534
     -1596.987       -1244.405
 -15486870.521 9 -12050653.23849  18944688.135    18944689.3424   18944695.7484
       291.795         227.373
 96 11  4 18 23 29.9950000  0  8 31  3 25 23 15 21  9  1            -0.004947874
 -12829980.016 9  -9979632.43347  21597076.788    21597077.7504   21597085.3604
      -310.307        -241.798
   2047129.563 9   1608520.48747  22045030.518    22045032.0584   22045040.0964
     -1733.507       -1350.785
 -17285849.094 9 -13446502.48047  21368132.214    21368133.9504   21368141.2364
      4323.041        3368.603
   3535488.774 9   2754732.67447  22169547.898    22169549.0074   22169556.5104
      -937.207        -730.291
 -14622292.752 9 -11374229.09847  21736495.295    21736496.4304   21736504.7244
      4588.904        3575.769
  -8052695.866 9  -6267767.69848  19581949.633    19581950.7084   19581957.0884
       251.169         195.716
  -1774642.352 8  -1371927.89046  23671769.383    23671770.9654   23671778.5034
     -1607.529       -1252.620
 -15495410.265 9 -12057307.58749  18943063.092    18943064.2744   18943070.6854
       278.242         216.812
 96 11  4 18 23 59.9950000  0  8 31  3 25 23 15 21  9  1            -0.004971255
 -12820468.179 9  -9972220.64247  21598886.730    21598887.8224   21598895.4224
      -324.011        -252.476
   2099196.230 9   1649091.85247  22054938.368    22054940.0374   22054948.1054
     -1737.833       -1354.156
 -17415461.077 9 -13547498.77947  21343467.826    21343469.5414   21343476.8254
      4317.508        3364.292
   3563660.210 9   2776684.38747  22174908.641    22174909.8844   22174917.3854
      -940.993        -733.241
 -14759877.042 9 -11481437.60747  21710314.007    21710315.0054   21710323.2464
      4583.178        3571.308
  -8060115.191 9  -6273549.00248  19580537.744    19580538.8654   19580545.2734
       243.343         189.618
  -1726276.075 8  -1334239.90446  23680973.118    23680974.8824   23680982.4174
     -1617.068       -1260.053
 -15503570.898 9 -12063666.53149  18941510.016    18941511.3374   18941517.7424
       265.536         206.911
 96 11  4 18 24 29.9950000  0  8 31  3 25 23 15 21  9  1            -0.004994633
 -12810535.797 9  -9964481.16647  21600776.783    21600777.9194   21600785.5284
      -337.587        -263.055
   2151406.584 9   1689775.16946  22064873.550    22064875.3634   22064883.4244
     -1742.115       -1357.492
 -17544896.898 9 -13648357.83147  21318836.936    21318838.6594   21318845.9964
      4312.187        3360.146
   3591949.039 9   2798727.57847  22180291.731    22180293.0974   22180300.6134
      -944.151        -735.702
 -14897274.010 9 -11588500.13747  21684167.986    21684169.2044   21684177.4384
      4577.233        3566.675
  -8067290.823 9  -6279140.41248  19579172.217    19579173.3984   19579179.8114
       235.659         183.630
  -1677611.219 8  -1296319.26946  23690233.791    23690235.5074   23690243.0684
     -1626.592       -1267.474
 -15511336.294 9 -12069717.49449  18940032.222    18940033.6334   18940040.0344
       253.014         197.154
 96 11  4 18 24 59.9950000  0  8 31  3 25 23 15 21  9  1            -0.005018009
 -12800187.581 9  -9956417.64347  21602746.022    21602747.1534   21602754.7734
      -352.170        -274.418
   2203748.353 9   1730560.91047  22074833.979    22074835.6824   22074843.8034
     -1747.048       -1361.336
 -17674171.203 9 -13749091.01147  21294236.632    21294238.4964   21294245.8964
      4306.113        3355.413
   3620328.672 9   2820841.53047  22185692.223    22185693.5634   22185701.1234
      -947.705        -738.471
 -15034489.105 9 -11695420.96647  21658056.687    21658057.9984   21658066.2454
      4570.577        3561.489
  -8074229.745 9  -6284547.37848  19577851.697    19577852.9674   19577859.4104
       227.025         176.903
  -1628652.833 8  -1258169.90146  23699550.178    23699551.9954   23699559.5534
     -1637.325       -1275.838
 -15518731.837 9 -12075480.26249  18938624.774    18938626.3004   18938632.7434
       240.173         187.148
 96 11  4 18 25 29.9940000  0  8 31  3 25 23 15 21  9  1            -0.005041361
 -12789395.634 9  -9948008.38047  21604799.638    21604800.8294   21604808.4314
      -367.255        -286.173
   2256223.796 9   1771450.77646  22084819.662    22084821.5114   22084829.6174
     -1751.035       -1364.443
 -17803243.255 9 -13849666.60547  21269674.949    21269676.8774   21269684.2224
      4299.032        3349.895
   3648828.166 9   2843048.89247  22191115.483    22191116.8504   22191124.4264
      -952.201        -741.975
 -15171490.214 9 -11802175.03747  21631986.240    21631987.5214   21631995.7864
      4563.268        3555.793
  -8080898.179 9  -6289743.57148  19576582.691    19576583.9964   19576590.4434
       217.727         169.657
  -1579354.579 8  -1219755.70846  23708931.295    23708933.1654   23708940.7174
     -1649.287       -1285.159
 -15525741.684 9 -12080942.48649  18937290.816    18937292.3854   18937298.8124
       227.140         176.992
 96 11  4 18 25 59.9940000  0  7 31  3 25 23 15 21  1               -0.005064700
 -12778155.951 9  -9939250.21947  21606938.542    21606939.7434   21606947.3404
      -381.610        -297.358
   2308790.360 9   1812411.66046  22094822.814    22094824.6674   22094832.7914
     -1753.193       -1366.124
 -17932107.532 9 -13950080.30647  21245152.891    21245154.7884   21245162.1204
      4292.180        3344.556
   3677450.127 9   2865351.66147  22196562.039    22196563.4324   22196571.0324
      -955.637        -744.652
 -15308291.017 9 -11908773.03447  21605953.857    21605955.1734   21605963.4604
      4557.135        3551.014
  -8087305.800 9  -6294736.53148  19575363.342    19575364.6754   19575371.1244
       210.002         163.638
 -15532365.020 9 -12086103.53349  18936030.436    18936032.0124   18936038.4214
       214.715         167.310
 96 11  4 18 26 29.9940000  0  7 31  3 25 23 15 21  1               -0.005088034
 -12766487.568 9  -9930157.99947  21609158.949    21609160.2164   21609167.8374
      -396.134        -308.676
   2361439.335 9   1853436.78846  22104841.486    22104843.4554   22104851.5934
     -1756.675       -1368.838
 -18060746.213 9 -14050318.19747  21220673.725    21220675.6704   21220682.9734
      4284.029        3338.204
   3706194.513 9   2887749.83147  22202031.892    22202033.3614   22202041.0064
      -960.407        -748.369
 -15444893.379 9 -12015216.40847  21579959.207    21579960.5824   21579968.8634
      4549.873        3545.356
  -8093476.382 9  -6299544.78648  19574189.039    19574190.4584   19574196.8984
       201.481         156.998
 -15538598.324 9 -12090960.65649  18934844.305    18934845.8434   18934852.2494
       201.068         156.676
 96 11  4 18 26 59.9940000  0  7 31  3 25 23 15 21  1               -0.005111363
 -12754399.638 9  -9920738.86447  21611459.167    21611460.5734   21611468.1204
      -410.411        -319.801
   2414173.168 9   1894527.99946  22114876.479    22114878.4134   22114886.5854
     -1759.645       -1371.152
 -18189154.403 9 -14150376.48747  21196238.271    21196240.3604   21196247.6174
      4275.881        3331.855
   3735068.535 9   2910249.02147  22207526.496    22207527.9854   22207535.6234
      -965.105        -752.030
 -15581295.096 9 -12121503.42547  21554002.806    21554004.2084   21554012.4334
      4542.863        3539.893
  -8099405.654 9  -6304165.01448  19573060.710    19573062.1684   19573068.6054
       193.103         150.470
 -15544436.393 9 -12095509.80549  18933733.323    18933734.9134   18933741.3044
       187.310         145.956
 96 11  4 18 27 29.9940000  0  7 31  3 25 23 15 21  1               -0.005134687
 -12741880.870 9  -9910984.01447  21613841.361    21613842.8204   21613850.3654
      -424.134        -330.494
   2467007.137 9   1935697.25646  22124930.700    22124932.3824   22124940.6074
     -1762.485       -1373.365
 -18317310.340 9 -14250238.20947  21171850.975    21171853.0614   21171860.3144
      4268.204        3325.873
   3764082.786 9   2932857.45947  22213047.742    22213049.2854   22213056.8784
      -968.811        -754.918
 -15717476.384 9 -12227618.67747  21528088.355    21528089.7524   21528097.9614
      4536.110        3534.631
  -8105081.465 9  -6308587.73548  19571980.669    19571982.0994   19571988.5484
       185.531         144.570
 -15549851.038 9 -12099729.01149  18932702.897    18932704.5244   18932710.9274
       173.809         135.436
 96 11  4 18 27 59.9940000  0  7 31  3 25 23 15 21  1               -0.005158025
 -12728951.480 9  -9900909.20147  21616301.759    21616303.1624   21616310.7064
      -437.575        -340.968
   2519944.795 9   1976947.31346  22135004.381    22135006.1084   22135014.4194
     -1766.549       -1376.532
 -18445243.214 9 -14349926.12947  21147506.237    21147508.2454   21147515.4634
      4260.965        3320.232
   3793204.363 9   2955549.54247  22218589.454    22218590.9974   22218598.5794
      -972.405        -757.718
 -15853454.769 9 -12333575.83247  21502212.494    21502213.8904   21502222.1044
      4529.357        3529.369
  -8110526.387 9  -6312830.54448  19570944.527    19570945.9724   19570952.4354
       177.674         138.447
 -15554858.114 9 -12103630.63249  18931750.069    18931751.7134   18931758.1154
       160.383         124.974
 96 11  4 18 28 29.9940000  0  7 31  3 25 23 15 21  1               -0.005181375
 -12715628.118 9  -9890527.39947  21618836.992    21618838.4734   21618846.0684
      -450.978        -351.411
   2572995.189 9   2018285.19346  22145099.582    22145101.2704   22145109.6704
     -1770.160       -1379.345
 -18572975.629 9 -14449457.83647  21123199.635    21123201.5564   21123208.7834
      4254.436        3315.145
   3822422.405 9   2978316.79347  22224149.507    22224151.0854   22224158.6534
      -975.542        -760.163
 -15989235.531 9 -12439378.99747  21476374.293    21476375.6484   21476383.8184
      4522.496        3524.023
  -8115734.654 9  -6316888.95048  19569953.469    19569954.8744   19569961.3364
       169.314         131.933
 -15559476.789 9 -12107229.60549  18930871.048    18930872.8264   18930879.1974
       147.520         114.951
 96 11  4 18 28 59.9940000  0  7 31  3 25 23 15 21  1               -0.005204719
 -12701875.840 9  -9879811.37847  21621453.920    21621455.4694   21621463.0844
      -465.549        -362.765
   2626159.136 9   2059711.58346  22155216.304    22155218.0714   22155226.4684
     -1773.946       -1382.296
 -18700496.524 9 -14548824.73747  21098933.302    21098935.1094   21098942.3384
      4247.098        3309.427
   3851746.434 9   3001166.63747  22229729.748    22229731.2604   22229738.9114
      -979.275        -763.071
 -16124793.609 9 -12545008.64047  21450578.211    21450579.7734   21450587.9094
      4514.903        3518.106
  -8120679.013 9  -6320741.70748  19569012.581    19569013.9884   19569020.4714
       160.459         125.033
 -15563707.318 9 -12110526.12549  18930065.990    18930067.7994   18930074.1584
       134.644         104.917
 96 11  4 18 29 29.9940000  0  7 31  3 25 23 15 21  1               -0.005228056
 -12687706.219 9  -9868770.15247  21624150.423    21624151.8774   21624159.5344
      -479.925        -373.968
   2679426.507 9   2101218.53046  22165352.612    22165354.5334   22165362.9584
     -1777.852       -1385.339
 -18827808.997 9 -14648029.22747  21074706.576    21074708.3194   21074715.5204
      4239.536        3303.535
   3881171.336 9   3024095.06047  22235329.210    22235330.6454   22235338.3404
      -983.297        -766.205
 -16260137.843 9 -12650471.65147  21424823.252    21424824.5964   21424832.6834
      4507.242        3512.137
  -8125377.543 9  -6324402.91848  19568118.481    19568119.8874   19568126.3854
       152.118         118.534
 -15567573.362 9 -12113538.62949  18929330.387    18929332.1284   18929338.4774
       122.433          95.402
 96 11  4 18 29 59.9940000  0  7 31  3 25 23 15 21  1               -0.005251374
 -12673120.787 9  -9857404.91947  21626925.909    21626927.4154   21626935.0464
      -493.665        -384.674
   2732790.746 9   2142801.00746  22175507.756    22175509.5904   22175517.9344
     -1780.955       -1387.757
 -18954901.791 9 -14747062.53247  21050521.531    21050523.3284   21050530.5314
      4232.053        3297.704
   3910715.442 9   3047116.37347  22240951.207    22240952.7194   22240960.3904
      -987.605        -769.562
 -16395269.586 9 -12755769.08947  21399108.257    21399109.8794   21399117.9324
      4500.205        3506.653
  -8129841.212 9  -6327881.11548  19567269.079    19567270.4994   19567276.9924
       144.196         112.361
 -15571092.827 9 -12116281.07549  18928660.648    18928662.4064   18928668.7384
       110.890          86.408
 96 11  4 18 30 29.9940000  0  7 31  3 25 23 15 21  1               -0.005274680
 -12658132.245 9  -9845725.57247  21629778.170    21629779.7074   21629787.3364
      -505.678        -394.035
   2786235.086 9   2184445.84346  22185677.985    22185679.7464   22185688.1914
     -1782.063       -1388.620
 -19081776.707 9 -14845926.06147  21026378.140    21026379.8444   21026387.0394
      4226.096        3293.062
   3940375.906 9   3070228.36247  22246595.474    22246596.9334   22246604.6504
      -989.835        -771.300
 -16530194.719 9 -12860905.52847  21373432.875    21373434.4554   21373442.4864
      4494.708        3502.370
  -8134081.705 9  -6331185.41148  19566462.175    19566463.5864   19566470.0554
       138.561         107.970
 -15574267.995 9 -12118755.23749  18928056.366    18928058.1814   18928064.5224
       100.671          78.445
 96 11  4 18 30 59.9940000  0  7 31  3 25 23 15 21  1               -0.005297958
 -12642701.294 9  -9833701.49847  21632714.641    21632716.1714   21632723.7934
      -521.395        -406.282
   2839805.353 9   2226188.85146  22195871.965    22195873.8644   22195882.3604
     -1787.848       -1393.128
 -19208376.484 9 -14944575.18847  21002286.829    21002288.6124   21002295.8884
      4215.491        3284.798
   3970194.987 9   3093463.94047  22252269.850    22252271.3324   22252279.0814
      -996.588        -776.562
 -16664867.429 9 -12965845.26647  21347805.520    21347807.0564   21347815.0764
      4485.028        3494.827
  -8138078.301 9  -6334299.65848  19565701.667    19565703.1174   19565709.5644
       129.289         100.745
 -15577042.950 9 -12120917.54449  18927528.413    18927530.1224   18927536.4784
        85.733          66.805
 96 11  4 18 31 29.9940000  0  7 31  3 25 23 15 21  1               -0.005321217
 -12626845.135 9  -9821346.08147  21635732.065    21635733.5294   21635741.1724
      -535.048        -416.921
   2893513.378 9   2268039.16446  22206092.318    22206094.2354   22206102.7914
     -1791.815       -1396.219
 -19334700.328 9 -15043009.32347  20978248.133    20978249.9604   20978257.2054
      4206.859        3278.072
   4000175.780 9   3116825.54047  22257975.055    22257976.5554   22257984.2734
     -1001.317        -780.247
 -16799285.359 9 -13070586.48447  21322226.573    21322228.1624   21322236.1844
      4476.893        3488.488
  -8141826.713 9  -6337220.51648  19564988.392    19564989.8384   19564996.2824
       121.193          94.436
 -15579396.581 9 -12122751.54749  18927080.656    18927082.2114   18927088.5814
        71.863          55.997
 96 11  4 18 31 59.9940000  0  7 31  3 25 23 15 21  1               -0.005344500
 -12610616.916 9  -9808700.74447  21638820.169    21638821.6844   21638829.3544
      -546.873        -426.135
   2947302.744 9   2309952.87146  22216328.155    22216330.0424   22216338.6244
     -1794.227       -1398.099
 -19460805.109 9 -15141272.74347  20954251.228    20954253.0054   20954260.2204
      4200.142        3272.838
   4030258.076 9   3140266.22547  22263699.626    22263701.1394   22263708.8564
     -1004.141        -782.447
 -16933489.233 9 -13175160.89547  21296688.474    21296690.0074   21296697.9914
      4469.939        3483.069
  -8145347.997 9  -6339964.38248  19564318.273    19564319.7724   19564326.2184
       113.511          88.450
 -15581355.622 9 -12124278.07249  18926707.792    18926709.3914   18926715.7924
        58.694          45.736
 96 11  4 18 32 29.9940000  0  7 31  3 25 23 15 21  1               -0.005367822
 -12594037.398 9  -9795781.68247  21641975.167    21641976.7104   21641984.3664
      -558.569        -435.249
   3001168.587 9   2351926.18946  22226578.447    22226580.4024   22226589.0724
     -1796.809       -1400.111
 -19586705.225 9 -15239376.69347  20930293.150    20930295.0074   20930302.2214
      4192.953        3267.236
   4060420.172 9   3163769.11247  22269439.367    22269440.8404   22269448.6264
     -1006.761        -784.489
 -17067477.198 9 -13279567.07847  21271191.176    21271192.9074   21271200.9054
      4462.479        3477.256
  -8148636.696 9  -6342527.02448  19563692.514    19563693.9794   19563700.4024
       105.670          82.340
 -15582913.802 9 -12125492.24849  18926411.340    18926412.8634   18926419.2864
        45.240          35.252
 96 11  4 18 32 59.9940000  0  7 31  3 25 23 15 21  1               -0.005391182
 -12577113.980 9  -9782594.63647  21645195.785    21645197.1694   21645204.8194
      -569.591        -443.837
   3055099.428 9   2393950.12146  22236841.069    22236843.1184   22236851.8744
     -1798.551       -1401.468
 -19712386.260 9 -15337309.92247  20906376.749    20906378.6864   20906385.8794
      4185.964        3261.790
   4090657.092 9   3187330.29147  22275193.233    22275194.7924   22275202.6474
     -1009.036        -786.262
 -17201241.637 9 -13383799.07147  21245736.693    21245738.3544   21245746.3274
      4455.185        3471.573
  -8151688.793 9  -6344905.29748  19563111.687    19563113.2174   19563119.6254
        97.714          76.141
 -15584077.577 9 -12126399.09049  18926189.705    18926191.4034   18926197.8394
        32.504          25.328
 96 11  4 18 33 29.9940000  0  7 31  3 25 23 15 21  1               -0.005414573
 -12559854.830 9  -9769145.98947  21648480.024    21648481.5324   21648489.1554
      -580.990        -452.719
   3109083.785 9   2436015.78246  22247113.944    22247116.0894   22247124.8624
     -1800.235       -1402.781
 -19837853.571 9 -15435076.64148  20882500.931    20882503.0134   20882510.1654
      4178.518        3255.988
   4120971.087 9   3210951.51147  22280961.849    22280963.4584   22280971.2434
     -1011.912        -788.503
 -17334780.115 9 -13487854.99947  21220325.148    21220326.7984   21220334.7784
      4447.408        3465.513
  -8154489.642 9  -6347087.79648  19562578.747    19562580.2374   19562586.6574
        89.180          69.491
 -15584860.680 9 -12127009.30849  18926040.739    18926042.3944   18926048.8214
        19.914          15.517
 96 11  4 18 33 59.9940000  0  7 31  3 25 23 15 21  1               -0.005437975
 -12542246.365 9  -9755425.14047  21651830.917    21651832.3194   21651839.9914
      -593.243        -462.267
   3163119.222 9   2478121.23246  22257396.735    22257398.7544   22257407.4754
     -1802.569       -1404.599
 -19963091.927 9 -15532664.92747  20858668.745    20858670.9084   20858678.1054
      4170.278        3249.567
   4151380.055 9   3234646.73747  22286748.561    22286750.1244   22286757.9424
     -1015.793        -791.527
 -17468083.824 9 -13591727.99347  21194958.295    21194959.9514   21194967.8694
      4439.156        3459.082
  -8157034.656 9  -6349070.93548  19562094.441    19562095.9804   19562102.3544
        80.393          62.644
 -15585280.194 9 -12127336.20849  18925960.904    18925962.5574   18925968.9934
         7.837           6.107
 96 11  4 18 34 29.9940000  0  7 31  3 25 23 15 21  1               -0.005461369
 -12524283.151 9  -9741427.87547  21655249.189    21655250.6454   21655258.3164
      -604.822        -471.290
   3217210.967 9   2520270.53246  22267690.040    22267692.0994   22267700.9254
     -1803.863       -1405.608
 -20088082.808 9 -15630060.37748  20834883.845    20834885.9654   20834893.0954
      4162.138        3243.224
   4181903.890 9   3258431.48347  22292557.252    22292558.6974   22292566.5324
     -1019.379        -794.321
 -17601147.403 9 -13695413.86747  21169637.242    21169638.7594   21169646.6744
      4431.474        3453.097
  -8159334.266 9  -6350862.85148  19561656.854    19561658.4054   19561664.7884
        72.593          56.566
 -15585358.058 9 -12127396.89149  18925946.043    18925947.7824   18925954.1914
        -2.852          -2.222
 96 11  4 18 34 59.9940000  0  7 31  3 25 23 15 21  1               -0.005484749
 -12505964.721 9  -9727153.80547  21658735.002    21658736.5564   21658744.2244
      -616.863        -480.672
   3271341.766 9   2562450.29346  22277990.904    22277992.9464   22278001.6904
     -1805.297       -1406.725
 -20212833.267 9 -15727268.48848  20811144.509    20811146.6884   20811153.8264
      4154.267        3237.091
   4212541.206 9   3282304.68046  22298387.389    22298388.8824   22298396.6244
     -1023.672        -797.666
 -17733982.391 9 -13798921.61647  21144359.488    21144361.0824   21144368.9424
      4423.741        3447.071
  -8161392.947 9  -6352467.03748  19561265.143    19561266.6744   19561273.0374
        64.239          50.056
 -15585123.398 9 -12127214.04649  18925990.847    18925992.4314   18925998.8394
       -13.213         -10.296
 96 11  4 18 35 29.9940000  0  7 31  3 25 23 15 21  1               -0.005508083
 -12487256.912 9  -9712576.32147  21662294.906    21662296.5104   21662304.2204
      -629.643        -490.631
   3325538.474 9   2604681.41446  22288304.148    22288306.2614   22288315.1324
     -1807.129       -1408.152
 -20337318.615 9 -15824270.03648  20787455.694    20787457.8984   20787464.9864
      4145.300        3230.104
   4243346.198 9   3306308.50846  22304249.346    22304250.9654   22304258.7004
     -1029.080        -801.880
 -17866556.667 9 -13902226.21447  21119131.614    21119133.0344   21119140.8944
      4415.270        3440.470
  -8163175.059 9  -6353855.70948  19560926.046    19560927.5324   19560933.9214
        55.457          43.213
 -15584552.570 9 -12126769.25449  18926099.361    18926101.0654   18926107.4304
       -24.231         -18.881
 96 11  4 18 35 59.9940000  0  7 31  3 25 23 15 21  1               -0.005531368
 -12468136.559 9  -9697677.38347  21665933.522    21665935.0304   21665942.7344
      -643.724        -501.603
   3379817.546 9   2646976.72146  22298633.314    22298635.3444   22298644.1924
     -1810.343       -1410.657
 -20461501.771 9 -15921036.10248  20763824.514    20763826.6334   20763833.6774
      4134.747        3221.881
   4274326.553 9   3330448.97847  22310144.667    22310146.3534   22310154.0284
     -1034.950        -806.455
 -17998850.529 9 -14005312.32047  21093956.695    21093958.3244   21093966.1334
      4405.491        3432.850
  -8164672.447 9  -6355022.51948  19560641.052    19560642.6074   19560649.0004
        45.744          35.645
 -15583622.386 9 -12126044.44349  18926276.406    18926278.0614   18926284.4154
       -36.737         -28.626
 96 11  4 18 36 29.9940000  0  7 31  3 25 23 15 21  1               -0.005554625
 -12448618.036 9  -9682468.17847  21669647.716    21669649.2834   21669657.0014
      -657.381        -512.245
   3434171.638 9   2689330.45146  22308976.649    22308978.6464   22308987.4954
     -1812.948       -1412.687
 -20585385.170 9 -16017568.58948  20740250.238    20740252.3874   20740259.4014
      4124.413        3213.828
   4305461.719 9   3354710.08446  22316069.479    22316071.1974   22316078.8924
     -1040.265        -810.596
 -18130866.247 9 -14108181.67547  21068834.909    21068836.5554   21068844.3384
      4395.764        3425.271
  -8165904.765 9  -6355982.78248  19560406.573    19560408.1164   19560414.5114
        36.489          28.433
 -15582323.571 9 -12125032.38649  18926523.514    18926525.2244   18926531.5614
       -49.668         -38.702
 96 11  4 18 36 59.9940000  0  7 31  3 25 23 15 21  1               -0.005577875
 -12428710.615 9  -9666955.93547  21673435.957    21673437.6134   21673445.3194
      -669.431        -521.635
   3488569.067 9   2731717.94946  22319328.209    22319330.2084   22319339.0784
     -1813.237       -1412.912
 -20708989.285 9 -16113883.45548  20716729.138    20716731.3164   20716738.3314
      4116.101        3207.351
   4336724.549 9   3379070.68846  22322018.641    22322020.3264   22322028.0814
     -1043.646        -813.231
 -18262620.244 9 -14210847.09447  21043763.048    21043764.5904   21043772.3824
      4388.076        3419.280
  -8166892.276 9  -6356752.28748  19560218.664    19560220.1964   19560226.6074
        29.688          23.134
 -15580662.241 9 -12123737.85049  18926839.685    18926841.3864   18926847.7174
       -60.832         -47.402
 96 11  4 18 37 29.9940000  0  7 31  3 25 23 15 21  1               -0.005601132
 -12408414.363 9  -9651140.71347  21677298.363    21677299.8904   21677307.5624
      -683.588        -532.666
   3543003.565 9   2774134.36246  22329686.850    22329688.9164   22329697.6694
     -1815.588       -1414.744
 -20832305.087 9 -16209973.64148  20693262.748    20693265.0074   20693272.0774
      4105.029        3198.724
   4368108.314 9   3403525.52146  22327990.855    22327992.5244   22328000.3384
     -1048.273        -816.836
 -18394111.251 9 -14313307.59347  21018741.206    21018742.6814   21018750.4584
      4378.098        3411.505
  -8167646.786 9  -6357340.23048  19560075.089    19560076.6124   19560083.0454
        20.724          16.149
 -15578627.339 9 -12122152.21949  18927226.985    18927228.6294   18927234.9594
       -74.721         -58.224
 96 11  4 18 37 59.9940000  0  7 31  3 25 23 15 21  1               -0.005624414
 -12387735.543 9  -9635027.38047  21681233.408    21681234.9534   21681242.6294
      -695.476        -541.929
   3597462.936 9   2816570.15546  22340050.215    22340052.2714   22340061.0134
     -1815.403       -1414.600
 -20955337.104 9 -16305842.74648  20669850.701    20669852.8194   20669859.8094
      4096.778        3192.294
   4399577.564 9   3428046.97346  22333979.374    22333981.0054   22333988.8034
     -1050.412        -818.503
 -18525346.141 9 -14415568.51647  20993767.912    20993769.4924   20993777.2404
      4370.373        3405.485
  -8168171.535 9  -6357749.13748  19559975.253    19559976.7824   19559983.2054
        13.692          10.669
 -15576224.363 9 -12120279.77349  18927684.207    18927685.9304   18927692.2334
       -85.781         -66.842
 96 11  4 18 38 29.9940000  0  7 31  3 25 23 15 21  1               -0.005647708
 -12366681.566 9  -9618621.71747  21685240.007    21685241.4174   21685249.1294
      -707.851        -551.572
   3651928.896 9   2859011.06446  22350414.861    22350416.8174   22350425.6464
     -1815.365       -1414.570
 -21078108.498 9 -16401508.72448  20646488.170    20646490.1774   20646497.1374
      4088.260        3185.657
   4431142.156 9   3452642.68047  22339985.860    22339987.5364   22339995.4204
     -1053.657        -821.031
 -18656328.176 9 -14517632.41847  20968842.801    20968844.4294   20968852.1534
      4362.010        3398.969
  -8168457.213 9  -6357971.75848  19559920.936    19559922.4424   19559928.8474
         5.454           4.250
 -15573477.621 9 -12118139.46149  18928206.981    18928208.6184   18928214.9304
       -96.921         -75.523
 96 11  4 18 38 59.9940000  0  7 31  3 25 23 15 21  1               -0.005670998
 -12345253.150 9  -9601924.29547  21689317.625    21689319.1194   21689326.8234
      -720.204        -561.198
   3706406.276 9   2901460.87946  22360781.574    22360783.6254   22360792.4104
     -1816.202       -1415.222
 -21200610.199 9 -16496964.56548  20623176.748    20623178.7964   20623185.8244
      4078.857        3178.330
   4462821.786 9   3477328.04646  22346014.382    22346015.9794   22346023.9434
     -1057.931        -824.362
 -18787047.613 9 -14619491.69047  20943967.628    20943969.3104   20943977.0364
      4352.992        3391.942
  -8168479.429 9  -6357989.08148  19559916.652    19559918.2064   19559924.6294
        -3.502          -2.729
 -15570391.413 9 -12115734.62849  18928794.199    18928795.8814   18928802.2074
      -108.331         -84.414
 96 11  4 18 39 29.9940000  0  7 31  3 25 23 15 21  1               -0.005694281
 -12323471.889 9  -9584951.92247  21693462.439    21693463.9494   21693471.7124
      -731.606        -570.082
   3760905.786 9   2943927.94446  22371152.543    22371154.6044   22371163.3974
     -1816.868       -1415.741
 -21322830.060 9 -16592200.80248  20599919.046    20599921.1024   20599928.1174
      4069.466        3171.012
   4494619.516 9   3502105.43546  22352065.325    22352066.9534   22352074.9474
     -1061.641        -827.253
 -18917501.802 9 -14721144.28747  20919143.014    20919144.6864   20919152.3874
      4344.146        3385.049
  -8168238.627 9  -6357801.45648  19559962.473    19559964.0564   19559970.4974
       -12.413          -9.672
 -15566972.823 9 -12113070.79449  18929444.720    18929446.4164   18929452.7404
      -119.357         -93.005
 96 11  4 18 39 59.9940000  0  7 31  3 25 23 15 21  1               -0.005717558
 -12301364.229 9  -9567725.20447  21697669.402    21697670.9504   21697678.7034
      -742.770        -578.782
   3815426.572 9   2986411.58746  22381527.531    22381529.7084   22381538.4134
     -1818.354       -1416.899
 -21444777.141 9 -16687224.46248  20576713.304    20576715.3074   20576722.3164
      4059.911        3163.567
   4526530.934 9   3526971.42246  22358137.912    22358139.5114   22358147.4874
     -1066.390        -830.953
 -19047693.353 9 -14822592.21947  20894368.280    20894370.0234   20894377.7544
      4334.805        3377.770
  -8167734.581 9  -6357408.70548  19560058.428    19560059.9844   19560066.4494
       -21.555         -16.796
 -15563234.932 9 -12110158.15249  18930155.884    18930157.6834   18930164.0234
      -130.283        -101.519
 96 11  4 18 40 29.9940000  0  8 29 31  3 25 23 15 21  1            -0.005740820
  -2533283.74319  -1943795.29856  23512437.126    23512439.0485   23512448.8335
      4273.476        3329.981
 -12278934.149 9  -9550247.26547  21701937.725    21701939.2574   21701946.9864
      -752.375        -586.266
   3869990.919 9   3028929.17446  22391910.806    22391913.0184   22391921.7214
     -1819.185       -1417.547
 -21566437.827 9 -16782024.98848  20553562.046    20553564.0544   20553571.0254
      4051.047        3156.660
   4558575.941 9   3551941.48546  22364235.878    22364237.4544   22364245.5174
     -1069.617        -833.468
 -19177608.948 9 -14923825.13047  20869646.253    20869647.8874   20869655.6114
      4326.508        3371.305
  -8166968.600 9  -6356811.85048  19560204.227    19560205.7834   19560212.2434
       -29.134         -22.702
 -15559167.708 9 -12106988.89349  18930929.814    18930931.6524   18930937.9924
      -140.691        -109.629
 96 11  4 18 40 59.9940000  0  8 29 31  3 25 23 15 21  1            -0.005764100
  -2661429.806 9  -2043649.23846  23488051.789    23488053.5774   23488063.3724
      4269.500        3326.883
 -12256216.454 9  -9532545.20047  21706260.759    21706262.3134   21706270.0594
      -762.324        -594.019
   3924588.916 9   3071472.97046  22402300.521    22402302.7484   22402311.4374
     -1820.684       -1418.715
 -21687825.391 9 -16876612.66348  20530462.663    20530464.7354   20530471.7344
      4041.491        3149.214
   4590716.530 9   3576986.04846  22370352.069    22370353.6554   22370361.7304
     -1073.154        -836.224
 -19307272.176 9 -15024861.38347  20844971.971    20844973.7844   20844981.4834
      4317.672        3364.420
  -8165980.184 9  -6356041.67448  19560392.336    19560393.9034   19560400.3644
       -36.797         -28.673
 -15554784.427 9 -12103573.35049  18931763.878    18931765.7734   18931772.1084
      -151.510        -118.060
 96 11  4 18 41 29.9940000  0  8 29 31  3 25 23 15 21  1            -0.005787397
  -2789474.208 9  -2143423.98846  23463685.579    23463687.4454   23463697.2054
      4265.844        3324.034
 -12233217.595 9  -9514624.04947  21710637.101    21710638.8604   21710646.6204
      -771.962        -601.529
   3979206.903 9   3114032.34246  22412694.047    22412696.3024   22412705.0484
     -1821.448       -1419.310
 -21808953.981 9 -16970998.54348  20507412.665    20507414.7034   20507421.7374
      4032.920        3142.535
   4622939.677 9   3602094.93246  22376483.926    22376485.5784   22376493.5924
     -1076.056        -838.485
 -19436687.973 9 -15125704.83347  20820344.987    20820346.7444   20820354.4394
      4309.100        3357.740
  -8164779.525 9  -6355106.11348  19560620.786    19560622.3844   19560628.8524
       -44.244         -34.476
 -15550100.925 9 -12099923.87149  18932655.115    18932657.0204   18932663.3664
      -161.616        -125.934
 96 11  4 18 41 59.9940000  0  8 29 31  3 25 23 15 21  1            -0.005810680
  -2917374.261 9  -2243086.27146  23439346.755    23439348.7884   23439358.4844
      4261.241        3320.448
 -12209893.398 9  -9496449.39247  21715075.508    21715077.3474   21715085.1334
      -782.890        -610.044
   4033878.379 9   3156633.38846  22423097.818    22423100.0184   22423108.8634
     -1822.972       -1420.498
 -21929804.036 9 -17065167.41148  20484415.658    20484417.7384   20484424.6804
      4023.971        3135.562
   4655285.169 9   3627299.14546  22382639.018    22382640.7744   22382648.9094
     -1080.135        -841.664
 -19565815.059 9 -15226323.32547  20795772.802    20795774.6844   20795782.3314
      4299.569        3350.314
  -8163327.247 9  -6353974.49648  19560897.126    19560898.7674   19560905.2454
       -52.278         -40.736
 -15545091.198 9 -12096020.19849  18933608.427    18933610.3484   18933616.7084
      -172.185        -134.170
 96 11  4 18 42 29.9940000  0  8 29 31  3 25 23 15 21  1            -0.005833927
  -3045111.833 9  -2342621.95046  23415039.014    23415040.9284   23415050.7964
      4255.341        3315.850
 -12186198.771 9  -9477986.07847  21719584.443    21719586.2944   21719594.0824
      -795.910        -620.190
   4088622.616 9   3199291.15546  22433515.356    22433517.5654   22433526.3434
     -1825.691       -1422.616
 -22050350.039 9 -17159099.31448  20461476.149    20461478.5254   20461485.5324
      4013.280        3127.231
   4687791.861 9   3652628.98046  22388824.867    22388826.6544   22388834.7534
     -1086.055        -846.277
 -19694618.177 9 -15326689.36647  20771262.300    20771264.2234   20771271.8844
      4288.170        3341.431
  -8161594.797 9  -6352624.55548  19561226.785    19561228.4484   19561234.9614
       -62.391         -48.616
 -15539722.632 9 -12091836.90549  18934630.080    18934631.9344   18934638.2914
      -184.861        -144.048
 96 11  4 18 42 59.9940000  0  8 29 31  3 25 23 15 21  1            -0.005857136
  -3172687.339 9  -2442031.35046  23390761.969    23390764.0624   23390773.9364
      4249.420        3311.236
 -12162127.512 9  -9459229.29947  21724165.157    21724166.9074   21724174.7444
      -808.990        -630.382
   4143418.633 9   3241989.26846  22443942.733    22443944.9644   22443953.8294
     -1827.301       -1423.871
 -22170599.012 9 -17252799.78448  20438593.563    20438595.9034   20438602.8844
      4003.116        3119.311
   4720458.841 9   3678083.70246  22395041.233    22395042.9664   22395051.1604
     -1091.840        -850.784
 -19823095.558 9 -15426801.58647  20746813.695    20746815.7484   20746823.4054
      4276.892        3332.643
  -8159579.973 9  -6351054.58148  19561610.203    19561611.8534   19561618.3934
       -72.106         -56.186
 -15533998.148 9 -12087376.27349  18935719.366    18935721.2444   18935727.6254
      -196.893        -153.423
 96 11  4 18 43 29.9940000  0  8 29 31  3 25 23 15 21  1            -0.005880328
  -3300100.229 9  -2541314.02846  23366516.039    23366518.1744   23366527.9734
      4244.503        3307.405
 -12137693.042 9  -9440189.49547  21728814.782    21728816.6674   21728824.5014
      -820.253        -639.158
   4198225.561 9   3284695.87946  22454372.168    22454374.4214   22454383.2974
     -1826.852       -1423.521
 -22290564.723 9 -17346279.54048  20415764.948    20415767.2034   20415774.1364
      3994.237        3112.392
   4753256.876 9   3703640.55346  22401282.619    22401284.3304   22401292.4474
     -1094.938        -853.198
 -19951265.757 9 -15526674.43947  20722423.843    20722425.7394   20722433.4264
      4267.488        3325.315
  -8157300.092 9  -6349278.06948  19562044.083    19562045.7054   19562052.2714
       -80.106         -62.420
 -15527938.018 9 -12082654.10049  18936872.599    18936874.4474   18936880.8474
      -207.463        -161.659
 96 11  4 18 43 59.9940000  0  8 29 31  3 25 23 15 21  1            -0.005903534
  -3427368.115 9  -2640483.73146  23342297.781    23342299.8274   23342309.5484
      4239.376        3303.410
 -12112922.037 9  -9420887.45247  21733528.767    21733530.4904   21733538.3174
      -831.824        -648.175
   4253013.823 9   3327387.94346  22464798.083    22464800.3164   22464809.2694
     -1826.295       -1423.087
 -22410258.747 9 -17439547.57848  20392987.932    20392990.1544   20392997.1144
      3984.538        3104.835
   4786144.721 9   3729267.35946  22407540.986    22407542.6934   22407550.9624
     -1098.089        -855.654
 -20079154.058 9 -15626327.64047  20698087.569    20698089.3724   20698097.0734
      4257.722        3317.705
  -8154784.555 9  -6347317.93048  19562522.761    19562524.4094   19562530.9844
       -88.274         -68.785
 -15521552.600 9 -12077678.45449  18938087.694    18938089.5674   18938095.9524
      -218.952        -170.612
 96 11  4 18 44 29.9940000  0  8 29 31  3 25 23 15 21  1            -0.005926778
  -3554505.513 9  -2739551.77446  23318104.291    23318106.3514   23318116.0134
      4235.523        3300.408
 -12087832.409 9  -9401337.13247  21738303.155    21738304.8594   21738312.7534
      -841.454        -655.678
   4307756.861 9   3370044.73846  22475215.520    22475217.6694   22475226.6384
     -1824.031       -1421.323
 -22529671.619 9 -17532596.53048  20370264.431    20370266.5864   20370273.5614
      3975.484        3097.780
   4819099.273 9   3754946.18146  22413812.189    22413813.8314   22413822.0954
     -1099.486        -856.742
 -20206771.302 9 -15725769.63247  20673802.795    20673804.5834   20673812.2754
      4249.399        3311.220
  -8152043.444 9  -6345182.02148  19563044.407    19563046.0574   19563052.6554
       -95.164         -74.154
 -15514841.232 9 -12072448.82749  18939364.954    18939366.6934   18939373.1044
      -229.060        -178.488
 96 11  4 18 44 59.9940000  0  8 29 31  3 25 23 15 21  1            -0.005950027
  -3681438.214 9  -2838460.29446  23293949.584    23293951.8114   23293961.4714
      4228.619        3295.028
 -12062376.060 9  -9381501.05547  21743147.536    21743149.0884   21743156.9464
      -853.850        -665.338
   4362519.996 9   3412717.23046  22485636.877    22485638.9004   22485647.7904
     -1825.186       -1422.223
 -22648721.056 9 -17625362.31048  20347610.115    20347612.2374   20347619.1794
      3962.861        3087.944
   4852171.143 9   3780716.41446  22420105.702    22420107.2504   22420115.5144
     -1103.763        -860.075
 -20334058.545 9 -15824954.46547  20649580.885    20649582.6374   20649590.3204
      4238.160        3302.462
  -8149020.862 9  -6342826.77948  19563619.680    19563621.2624   19563627.8874
      -104.743         -81.618
 -15507753.321 9 -12066925.78549  18940713.835    18940715.5144   18940721.9204
      -241.684        -188.325
 96 11  4 18 45 29.9940000  0  8 29 31  3 25 23 15 21  1            -0.005973303
  -3808234.789 9  -2937262.77346  23269821.067    23269823.1494   23269832.7644
      4224.337        3291.691
 -12036610.645 9  -9361424.13947  21748050.542    21748052.1404   21748059.9604
      -864.206        -673.407
   4417267.880 9   3455377.82746  22496055.162    22496057.1954   22496065.8854
     -1825.193       -1422.228
 -22767449.297 9 -17717877.80548  20325016.945    20325019.0314   20325025.9214
      3952.135        3079.586
   4885328.578 9   3806553.27446  22426415.520    22426416.9434   22426425.3164
     -1107.316        -862.844
 -20461062.356 9 -15923918.45547  20625412.899    20625414.5784   20625422.2894
      4228.361        3294.827
  -8145755.493 9  -6340282.35448  19564241.077    19564242.6584   19564249.3004
      -113.252         -88.248
 -15500340.072 9 -12061149.23449  18942124.476    18942126.2374   18942132.6334
      -252.801        -196.988
 96 11  4 18 45 59.9940000  0  8 29 31  3 25 23 15 21  1            -0.005996579
  -3934924.843 9  -3035982.22946  23245712.755    23245714.7434   23245724.4074
      4221.127        3289.190
 -12010536.077 9  -9341106.34647  21753012.227    21753013.9984   21753021.8324
      -874.497        -681.426
   4472019.351 9   3498041.20346  22506474.139    22506476.1174   22506484.8264
     -1825.413       -1422.400
 -22885862.328 9 -17810147.65548  20302483.628    20302485.7334   20302492.6534
      3941.677        3071.437
   4918614.552 9   3832490.35046  22432749.629    22432751.1614   22432759.4144
     -1112.252        -866.690
 -20587767.429 9 -16022649.65947  20601301.658    20601303.4064   20601311.0884
      4218.154        3286.873
  -8142235.251 9  -6337539.32548  19564910.989    19564912.5474   19564919.1704
      -121.835         -94.936
 -15492598.193 9 -12055116.60749  18943597.811    18943599.4764   18943605.8794
      -263.682        -205.466
 96 11  4 18 46 29.9940000  0  8 29 31  3 25 23 15 21  1            -0.006019835
  -4061510.270 9  -3134620.16146  23221624.228    23221626.2954   23221635.9134
      4217.275        3286.188
 -11984157.484 9  -9320551.63447  21758032.091    21758033.7184   21758041.5254
      -884.785        -689.443
   4526785.306 9   3540715.85346  22516895.806    22516897.7744   22516906.6214
     -1826.244       -1423.047
 -23003958.755 9 -17902170.81248  20280010.512    20280012.7074   20280019.6444
      3930.872        3063.017
   4952062.349 9   3858553.48546  22439114.510    22439116.1194   22439124.3964
     -1118.131        -871.271
 -20714160.990 9 -16121138.11747  20577249.805    20577251.4894   20577259.1714
      4207.477        3278.553
  -8138455.011 9  -6334593.69648  19565630.368    19565631.9044   19565638.5444
      -130.725        -101.864
 -15484528.143 9 -12048828.26449  18945133.488    18945135.1444   18945141.5514
      -274.792        -214.124
 96 11  4 18 46 59.9930000  0  8 29 31  3 25 23 15 21  1            -0.006043052
  -4187971.292 9  -3233161.15546  23197559.318    23197561.4654   23197571.1124
      4214.193        3283.787
 -11957465.057 9  -9299752.39147  21763111.494    21763113.1124   21763121.0114
      -894.512        -697.022
   4581580.183 9   3583413.06346  22527322.954    22527325.0274   22527333.8804
     -1826.254       -1423.055
 -23121730.527 9 -17993941.00648  20257599.311    20257601.4784   20257608.4114
      3921.311        3055.567
   4985692.647 9   3884758.85146  22445514.374    22445515.8584   22445524.2244
     -1123.607        -875.538
 -20840221.165 9 -16219366.80147  20553261.345    20553263.0174   20553270.7004
      4197.180        3270.530
  -8134400.910 9  -6331434.67348  19566401.886    19566403.3814   19566410.0334
      -139.230        -108.491
 -15476125.084 9 -12042280.43349  18946732.610    18946734.2214   18946740.6134
      -285.166        -222.207
 96 11  4 18 47 29.9930000  0  8 29 31  3 25 23 15 21  1            -0.006066242
  -4314328.272 9  -3331621.07046  23173514.556    23173516.5504   23173526.1204
      4209.754        3280.328
 -11930474.443 9  -9278720.77647  21768247.872    21768249.3554   21768257.2004
      -904.648        -704.921
   4636372.236 9   3626108.06846  22537749.558    22537751.6064   22537760.5654
     -1826.161       -1422.983
 -23239209.299 9 -18085482.88748  20235243.889    20235246.0204   20235252.9174
      3910.775        3047.357
   5019495.479 9   3911098.65646  22451946.831    22451948.4084   22451956.6494
     -1129.402        -880.053
 -20965963.398 9 -16317347.74047  20529333.375    20529335.0574   20529342.7344
      4185.936        3261.768
  -8130082.378 9  -6328069.59948  19567223.692    19567225.1874   19567231.8664
      -148.139        -115.433
 -15467398.745 9 -12035480.69849  18948393.182    18948394.8004   18948401.1974
      -296.214        -230.816
 96 11  4 18 47 59.9930000  0  8 29 31  3 25 23 15 21  1            -0.006089433
  -4440567.237 9  -3429989.05546  23149492.196    23149494.1024   23149503.5704
      4205.677        3277.151
 -11903214.052 9  -9257478.95047  21773435.308    21773436.8454   21773444.7524
      -912.929        -711.373
   4691114.840 9   3668764.53046  22548167.005    22548168.8924   22548177.7794
     -1823.587       -1420.977
 -23356390.913 9 -18176793.19948  20212945.051    20212947.0624   20212953.9724
      3900.947        3039.699
   5053426.509 9   3937538.33146  22458403.717    22458405.2824   22458413.6214
     -1132.703        -882.626
 -21091400.532 9 -16415090.93847  20505463.527    20505465.1544   20505472.7934
      4176.252        3254.222
  -8125541.981 9  -6324531.64548  19568087.796    19568089.2264   19568095.9064
      -154.844        -120.658
 -15458381.285 9 -12028454.11649  18950109.243    18950110.8014   18950117.1894
      -305.318        -237.910
 96 11  4 18 48 29.9930000  0  8 29 31  3 25 23 15 21  1            -0.006112640
  -4566639.356 9  -3528227.00346  23125501.524    23125503.2624   23125512.8414
      4199.500        3272.338
 -11875678.630 9  -9236022.82947  21778675.230    21778676.6854   21778684.6224
      -922.663        -718.958
   4745797.514 9   3711374.28846  22558572.713    22558574.7724   22558583.7264
     -1821.763       -1419.556
 -23473244.200 9 -18267847.68348  20190708.640    20190710.5974   20190717.5074
      3889.533        3030.805
   5087465.351 9   3964062.05946  22464881.144    22464882.7064   22464890.9854
     -1136.306        -885.433
 -21216520.894 9 -16512587.29547  20481654.028    20481655.5304   20481663.1534
      4165.330        3245.712
  -8120771.464 9  -6320814.37848  19568995.612    19568997.0134   19569003.7194
      -162.898        -126.934
 -15449064.495 9 -12021194.28849  18951882.152    18951883.7144   18951890.1094
      -315.592        -245.916
 96 11  4 18 48 59.9930000  0  8 29 31  3 25 23 15 21  1            -0.006135865
  -4692538.535 9  -3626330.18946  23101543.572    23101545.4084   23101554.8824
      4194.201        3268.209
 -11847853.468 9  -9214340.92247  21783970.232    21783971.6494   21783979.6164
      -931.935        -726.183
   4800413.354 8   3753932.00846  22568965.924    22568967.9314   22568976.9654
     -1819.026       -1417.423
 -23589760.012 9 -18358639.21148  20168536.381    20168538.3384   20168545.2034
      3878.565        3022.258
   5121602.282 9   3990662.17846  22471377.160    22471378.7584   22471387.1014
     -1139.181        -887.673
 -21341319.859 9 -16609833.21947  20457905.520    20457907.0504   20457914.6814
      4154.930        3237.608
  -8115765.561 9  -6316913.69548  19569948.179    19569949.6234   19569956.3294
      -170.491        -132.850
 -15439451.135 9 -12013703.37149  18953711.562    18953713.0884   18953719.4804
      -325.002        -253.248
 96 11  4 18 49 29.9930000  0  8 29 31  3 25 23 15 21  1            -0.006159105
  -4818264.576 9  -3724298.45446  23077618.760    23077620.5774   23077630.0214
      4188.716        3263.935
 -11819743.516 9  -9192437.10447  21789319.433    21789320.8374   21789328.7784
      -941.204        -733.406
   4854971.367 8   3796444.65046  22579347.959    22579349.9864   22579359.0124
     -1817.367       -1416.130
 -23705923.719 9 -18449156.36048  20146431.187    20146433.1084   20146439.9974
      3866.782        3013.077
   5155843.387 9   4017343.53146  22477893.143    22477894.6074   22477902.9214
     -1142.447        -890.218
 -21465790.799 9 -16706823.53747  20434219.583    20434221.0154   20434228.6414
      4144.139        3229.199
  -8110521.845 9  -6312827.70248  19570946.034    19570947.4894   19570954.2104
      -178.167        -138.831
 -15429539.899 9 -12005980.34049  18955597.509    18955599.1274   18955605.5234
      -334.717        -260.818
 96 11  4 18 49 59.9930000  0  8 29 31  3 25 23 15 21  1            -0.006182367
  -4943846.881 9  -3822154.71646  23053721.252    23053723.0054   23053732.3524
      4182.748        3259.284
 -11791367.905 9  -9170326.28447  21794719.044    21794720.5864   21794728.4814
      -951.375        -741.331
   4909479.213 8   3838918.17746  22589720.460    22589722.5454   22589731.6784
     -1817.198       -1415.998
 -23821752.773 9 -18539412.73848  20124389.678    20124391.5314   20124398.3934
      3854.637        3003.613
   5190167.660 9   4044089.63846  22484424.816    22484426.3284   22484434.7614
     -1146.569        -893.430
 -21589948.273 9 -16803569.59747  20410593.129    20410594.6084   20410602.1784
      4132.300        3219.974
  -8105045.279 9  -6308560.26348  19571988.207    19571989.6704   19571996.3884
      -187.765        -146.310
 -15419348.717 9 -11998039.16749  18957536.750    18957538.4584   18957544.8424
      -345.492        -269.214
 96 11  4 18 50 29.9930000  0  8 29 31  3 25 23 15 21  1            -0.006205634
  -5069289.321 9  -3919901.97746  23029850.436    23029852.1304   23029861.4214
      4179.401        3256.676
 -11762706.560 9  -9147992.80847  21800173.100    21800174.6524   21800182.5584
      -960.252        -748.248
   4963955.804 8   3881367.36846  22600086.693    22600089.0614   22600098.3574
     -1815.458       -1414.643
 -23937260.414 9 -18629418.66348  20102409.090    20102411.1214   20102417.9814
      3845.032        2996.129
   5224589.304 9   4070911.64346  22490975.155    22490976.5854   22490985.0414
     -1149.234        -895.507
 -21713782.876 9 -16900064.07447  20387028.108    20387029.6464   20387037.2484
      4122.465        3212.310
  -8099308.025 9  -6304089.69248  19573080.033    19573081.4554   19573088.1694
      -195.609        -152.423
 -15408865.004 9 -11989870.05449  18959531.742    18959533.4284   18959539.8464
      -354.257        -276.044
 96 11  4 18 50 59.9930000  0  8 29 31  3 25 23 15 21  1            -0.006228882
  -5194591.139 9  -4017539.67146  23006006.101    23006007.8214   23006017.2354
      4174.942        3253.202
 -11733739.195 9  -9125420.87647  21805685.256    21805686.9694   21805694.8564
      -970.015        -755.856
   5018434.343 8   3923818.06546  22610453.456    22610455.9554   22610465.3684
     -1815.434       -1414.624
 -24052427.463 9 -18719159.19448  20080493.486    20080495.5414   20080502.4304
      3833.719        2987.314
   5259140.799 9   4097834.82846  22497550.201    22497551.5324   22497560.1234
     -1153.390        -898.745
 -21837274.055 9 -16996290.94247  20363528.478    20363530.0364   20363537.6284
      4111.144        3203.489
  -8093284.418 9  -6299395.98948  19574226.229    19574227.7194   19574234.4384
      -205.053        -159.781
 -15398072.052 9 -11981459.97149  18961585.505    18961587.2694   18961593.6674
      -364.331        -283.894
 96 11  4 18 51 29.9930000  0  8 29 31  3 25 23 15 21  1            -0.006252124
  -5319771.565 9  -4115082.75546  22982184.881    22982186.7174   22982196.0974
      4170.321        3249.601
 -11704492.651 9  -9102631.41147  21811250.829    21811252.4174   21811260.3394
      -979.950        -763.597
   5072896.004 8   3966255.57246  22620817.230    22620819.5834   22620829.3034
     -1815.051       -1414.325
 -24167268.698 9 -18808645.84448  20058639.989    20058641.9504   20058648.8444
      3822.384        2978.481
   5293803.105 9   4124844.36546  22504146.138    22504147.6104   22504156.2024
     -1157.444        -901.904
 -21960439.854 9 -17092264.28447  20340090.779    20340092.3474   20340099.9254
      4099.854        3194.691
  -8086997.261 9  -6294496.92548  19575422.661    19575424.1524   19575430.8474
      -214.249        -166.947
 -15386991.481 9 -11972825.77349  18963694.080    18963695.8404   18963702.2434
      -374.361        -291.710
 96 11  4 18 51 59.9930000  0  8 29 31  3 25 23 15 21  1            -0.006275349
  -5444807.100 9  -4212512.99146  22958391.472    22958393.2364   22958402.5004
      4164.928        3245.398
 -11674934.163 9  -9079598.86347  21816875.597    21816877.1704   21816885.1714
      -990.801        -772.053
   5127338.968 8   4008678.58546  22631177.497    22631179.8074   22631189.4194
     -1814.592       -1413.968
 -24281762.946 9 -18897862.11348  20036852.480    20036854.3954   20036861.3064
      3810.242        2969.020
   5328596.406 9   4151955.97346  22510767.185    22510768.6494   22510777.1974
     -1162.511        -905.853
 -22083259.769 9 -17187968.08547  20316718.911    20316720.4894   20316728.0614
      4087.846        3185.334
  -8080421.226 9  -6289372.76248  19576674.118    19576675.5394   19576682.2394
      -224.295        -174.775
 -15375599.726 9 -11963949.09449  18965861.953    18965863.6094   18965870.0084
      -385.351        -300.274
 96 11  4 18 52 29.9930000  0  8 29 31  3 25 23 15 21  1            -0.006298575
  -5569713.191 9  -4309842.33746  22934622.618    22934624.3574   22934633.5754
      4161.415        3242.661
 -11645082.440 9  -9056337.82847  21822556.216    21822557.7904   21822565.7594
      -999.764        -779.037
   5181728.469 8   4051059.90545  22641527.609    22641529.8454   22641539.6464
     -1812.167       -1412.078
 -24395912.318 9 -18986809.64848  20015130.604    20015132.4874   20015139.3724
      3798.939        2960.212
   5363513.946 9   4179164.37946  22517411.824    22517413.3044   22517421.8764
     -1166.018        -908.585
 -22205750.631 9 -17283415.49047  20293409.640    20293411.2804   20293418.7894
      4077.408        3177.201
  -8073584.053 9  -6284045.11548  19577975.227    19577976.6594   19577983.3274
      -232.296        -181.010
 -15363908.619 9 -11954839.14849  18968086.628    18968088.3594   18968094.7824
      -394.687        -307.548
 96 11  4 18 52 59.9930000  0  8 29 31  3 25 23 15 21  1            -0.006321803
  -5694482.484 8  -4407065.08846  22910879.511    22910881.4584   22910890.7394
      4156.291        3238.668
 -11614953.798 9  -9032861.00547  21828289.623    21828291.1344   21828299.0644
     -1009.300        -786.468
   5236071.641 8   4093405.14345  22651869.044    22651871.0694   22651880.8314
     -1811.034       -1411.195
 -24509695.828 9 -19075472.09348  19993478.254    19993480.1854   19993487.1034
      3786.420        2950.457
   5398560.153 9   4206473.05446  22524080.937    22524082.3664   22524091.0384
     -1170.696        -912.231
 -22327900.376 9 -17378597.08547  20270165.345    20270166.9344   20270174.4414
      4065.522        3167.939
  -8066477.061 9  -6278507.21648  19579327.684    19579329.0944   19579335.7644
      -241.810        -188.423
 -15351911.747 9 -11945490.94649  18970369.609    18970371.2794   18970377.7224
      -405.402        -315.898
 96 11  4 18 53 29.9930000  0  8 29 31  3 25 23 15 21  1            -0.006345025
  -5819095.081 8  -4504165.75846  22887166.442    22887168.5234   22887177.7604
      4151.327        3234.800
 -11584537.913 9  -9009160.36647  21834077.583    21834079.1414   21834087.0114
     -1018.373        -793.537
   5290370.645 8   4135715.94745  22662201.892    22662204.0154   22662213.5824
     -1808.903       -1409.535
 -24623106.983 9 -19163844.40948  19971896.845    19971898.7634   19971905.6444
      3774.566        2941.220
   5433749.558 9   4233893.30746  22530777.378    22530778.7134   22530787.4334
     -1175.135        -915.690
 -22449689.610 9 -17473497.76647  20246989.700    20246991.1994   20246998.6964
      4053.781        3158.790
  -8059081.525 9  -6272744.48448  19580734.985    19580736.4214   19580743.0994
      -251.260        -195.787
 -15339590.629 9 -11935890.09049  18972714.262    18972715.9284   18972722.3524
      -415.925        -324.097
 96 11  4 18 53 59.9930000  0  8 29 31  3 25 23 15 21  1            -0.006368230
  -5943537.907 8  -4601134.13146  22863485.808    22863487.6584   22863496.8944
      4146.291        3230.876
 -11553838.212 9  -8985238.56547  21839919.680    21839921.1324   21839929.0074
     -1026.651        -799.988
   5344634.502 8   4177999.35445  22672528.110    22672530.1734   22672539.8254
     -1807.172       -1408.186
 -24736150.575 9 -19251930.30748  19950385.329    19950387.2584   19950394.1324
      3763.170        2932.340
   5469089.315 9   4261430.72746  22537502.522    22537503.8124   22537512.4784
     -1179.288        -918.926
 -22571103.681 9 -17568106.11747  20223885.272    20223886.8514   20223894.3534
      4041.978        3149.593
  -8051383.219 9  -6266745.83448  19582199.902    19582201.3834   19582208.0574
      -260.344        -202.865
 -15326933.465 9 -11926027.37549  18975122.779    18975124.5384   18975130.9494
      -426.246        -332.140
 96 11  4 18 54 29.9930000  0  8 29 31  3 25 23 15 21  1            -0.006391451
  -6067852.895 8  -4698002.87146  22839829.434    22839831.2944   22839840.6074
      4141.819        3227.391
 -11522918.458 9  -8961145.29747  21845803.662    21845805.0254   21845812.9024
     -1034.161        -805.840
   5398822.471 8   4220223.61145  22682839.809    22682841.7734   22682851.5114
     -1804.817       -1406.351
 -24848878.223 9 -19339770.00848  19928933.961    19928935.8654   19928942.7644
      3752.683        2924.169
   5504521.738 9   4289040.35846  22544245.119    22544246.4634   22544255.1094
     -1182.254        -921.237
 -22692189.008 9 -17662458.30247  20200843.560    20200845.0924   20200852.5594
      4030.845        3140.918
  -8043440.673 9  -6260556.85248  19583711.349    19583712.8124   19583719.4844
      -268.677        -209.359
 -15314003.560 9 -11915952.13249  18977583.254    18977585.0334   18977591.4194
      -435.108        -339.045
 96 11  4 18 54 59.9930000  0  8 29 31  3 25 23 15 21  1            -0.006414683
  -6192035.560 8  -4794768.53646  22816198.240    22816200.1514   22816209.2964
      4137.113        3223.724
 -11491781.394 9  -8936882.70147  21851729.035    21851730.3054   21851738.1394
     -1041.740        -811.745
   5452926.934 8   4262382.82645  22693135.505    22693137.4094   22693147.1824
     -1802.011       -1404.164
 -24961316.272 9 -19427384.05048  19907537.715    19907539.6074   19907546.4744
      3743.012        2916.633
   5540034.509 9   4316712.55646  22551003.064    22551004.3334   22551013.1234
     -1185.378        -923.671
 -22812952.036 9 -17756559.34347  20177863.058    20177864.6604   20177872.1064
      4019.984        3132.455
  -8035263.990 9  -6254185.43148  19585267.316    19585268.8054   19585275.4564
      -276.361        -215.346
 -15300821.279 9 -11905680.23549  18980091.708    18980093.5434   18980099.9344
      -443.692        -345.734
 96 11  4 18 55 29.9930000  0  8 29 31  3 25 23 15 21  1            -0.006437875
  -6316057.072 8  -4891408.59746  22792597.620    22792599.4754   22792608.8164
      4131.097        3219.037
 -11460388.099 9  -8912420.44747  21857702.813    21857704.3114   21857712.1284
     -1051.067        -819.013
   5506973.777 8   4304497.12945  22703420.376    22703422.4324   22703432.1154
     -1800.957       -1403.343
 -25073424.817 9 -19514741.33548  19886204.083    19886206.0124   19886212.9154
      3730.995        2907.269
   5575669.404 9   4344479.99546  22557784.193    22557785.5444   22557794.4184
     -1190.127        -927.372
 -22933359.681 9 -17850383.46247  20154950.246    20154951.8504   20154959.2994
      4007.288        3122.562
  -8026838.322 9  -6247619.98948  19586870.647    19586872.1454   19586878.8294
      -285.223        -222.252
 -15287362.700 9 -11895193.03949  18982652.769    18982654.6364   18982661.0394
      -453.376        -353.280
 96 11  4 18 55 59.9930000  0  8 29 31  3 25 23 15 21  1            -0.006461093
  -6439898.315 9  -4987908.20046  22769031.250    22769033.2634   22769042.3984
      4125.860        3214.956
 -11428719.425 9  -8887743.59947  21863729.270    21863730.6704   21863738.5214
     -1059.485        -825.573
   5560983.740 8   4346582.67146  22713698.225    22713700.2844   22713709.9144
     -1798.905       -1401.744
 -25185168.164 9 -19601814.04148  19864939.987    19864941.9384   19864948.8064
      3718.987        2897.912
   5611440.137 8   4372353.20246  22564591.020    22564592.4624   22564601.4734
     -1193.994        -930.385
 -23053391.457 9 -17943914.69747  20132108.878    20132110.5674   20132117.9954
      3995.575        3113.435
  -8018156.291 9  -6240854.79248  19588522.734    19588524.2774   19588530.9664
      -292.872        -228.212
 -15273624.449 9 -11884487.91649  18985267.173    18985268.9474   18985275.3484
      -461.764        -359.816
 96 11  4 18 56 29.9930000  0  8 29 31  3 25 23 15 21  1            -0.006484296
  -6563586.781 9  -5084288.74746  22745493.891    22745496.0654   22745505.1264
      4120.518        3210.793
 -11396787.215 9  -8862861.39747  21869805.965    21869807.1394   21869815.0174
     -1068.911        -832.918
   5614931.333 8   4388619.60745  22723964.131    22723966.2834   22723976.0074
     -1797.099       -1400.337
 -25296533.400 9 -19688592.11748  19843747.827    19843749.8074   19843756.6654
      3705.916        2887.727
   5647337.741 9   4400325.33246  22571422.146    22571423.5964   22571432.5404
     -1198.713        -934.062
 -23173066.991 9 -18037168.33648  20109335.425    20109337.0504   20109344.4704
      3983.226        3103.812
  -8009232.458 9  -6233901.17948  19590220.905    19590222.4464   19590229.1464
      -301.711        -235.099
 -15259634.413 9 -11873586.59849  18987929.357    18987931.1354   18987937.5434
      -470.570        -366.678
 96 11  4 18 56 59.9930000  0  8 29 31  3 25 23 15 21  1            -0.006507495
  -6687135.345 8  -5180560.27346  22721983.338    22721985.5274   22721994.6264
      4115.707        3207.044
 -11364595.282 9  -8837776.84047  21875931.834    21875933.1374   21875940.9754
     -1077.475        -839.591
   5668809.543 8   4430602.55245  22734216.935    22734219.1564   22734228.6234
     -1795.063       -1398.750
 -25407521.423 9 -19775076.26948  19822627.515    19822629.4704   19822636.2994
      3692.900        2877.584
   5683368.271 8   4428400.98746  22578278.442    22578279.9024   22578289.0294
     -1203.560        -937.839
 -23292385.045 9 -18130143.42748  20086629.908    20086631.5774   20086638.9664
      3970.947        3094.244
  -8000057.142 9  -6226751.60548  19591966.877    19591968.4534   19591975.1834
      -310.376        -241.851
 -15245387.532 9 -11862485.14049  18990640.369    18990642.2014   18990648.6314
      -479.512        -373.646
 96 11  4 18 57 29.9930000  0  8 29 31  3 25 23 15 21  1            -0.006530695
  -6810547.520 8  -5276725.52546  22698498.845    22698500.8874   22698509.9864
      4111.659        3203.890
 -11332151.448 9  -8812495.96947  21882105.471    21882106.9794   21882114.9114
     -1085.362        -845.737
   5722617.811 8   4472530.90645  22744456.330    22744458.5344   22744468.3104
     -1791.986       -1396.353
 -25518114.146 9 -19861252.38948  19801582.282    19801584.3494   19801591.1704
      3680.175        2867.669
   5719527.448 8   4456576.93146  22585159.219    22585160.8874   22585169.8744
     -1206.982        -940.505
 -23411335.424 9 -18222832.01448  20063994.334    20063996.0474   20064003.4514
      3959.145        3085.048
  -7990621.461 9  -6219399.16248  19593762.489    19593764.0394   19593770.7534
      -318.668        -248.313
 -15230883.697 9 -11851183.45849  18993400.324    18993402.1884   18993408.6184
      -487.385        -379.781
 96 11  4 18 57 59.9930000  0  8 29 31  3 25 23 15 21  1            -0.006553912
  -6933837.534 8  -5372795.56646  22675037.258    22675039.4464   22675048.4704
      4107.531        3200.674
 -11299490.791 9  -8787046.15547  21888320.607    21888322.1114   21888330.1134
     -1092.070        -850.964
   5776319.573 8   4514376.31745  22754675.717    22754677.7294   22754687.4454
     -1788.244       -1393.437
 -25628343.756 9 -19947145.56248  19780606.335    19780608.3474   19780615.1664
      3668.337        2858.444
   5755779.285 8   4484825.05046  22592057.644    22592059.3834   22592068.4274
     -1209.997        -942.855
 -23529941.840 9 -18315252.57648  20041424.312    20041425.9904   20041433.3594
      3947.738        3076.159
  -7980943.463 9  -6211857.88248  19595604.036    19595605.7104   19595612.4684
      -326.621        -254.510
 -15216150.722 9 -11839703.22549  18996203.837    18996205.7814   18996212.2384
      -495.103        -385.795
 96 11  4 18 58 29.9930000  0  8 29 31  3 25 23 15 21  1            -0.006577135
  -7056980.179 8  -5468750.78146  22651603.980    22651606.1404   22651615.1994
      4101.909        3196.293
 -11266608.523 9  -8761423.65047  21894577.898    21894579.4394   21894587.4714
     -1100.012        -857.152
   5829926.330 8   4556147.67345  22764876.784    22764878.9424   22764888.5494
     -1785.422       -1391.238
 -25738204.630 9 -20032751.40948  19759700.419    19759702.5074   19759709.2964
      3655.937        2848.782
   5792139.546 8   4513157.67246  22598976.889    22598978.5584   22598987.5434
     -1213.907        -945.902
 -23648180.773 9 -18407386.78948  20018924.171    20018925.8524   20018933.2304
      3934.792        3066.072
  -7971006.493 9  -6204114.81548  19597494.967    19597496.6704   19597503.4244
      -335.821        -261.679
 -15201160.178 9 -11828022.28649  18999056.408    18999058.4144   18999064.8544
      -504.241        -392.915
 96 11  4 18 58 59.9930000  0  8 29 31  3 25 23 15 21  1            -0.006600417
  -7179929.424 8  -5564555.26846  22628207.273    22628209.6104   22628218.6664
      4094.288        3190.354
 -11233490.795 9  -8735617.67747  21900879.909    21900881.5564   21900889.5524
     -1108.456        -863.732
   5883461.183 8   4597863.04045  22775064.137    22775066.3184   22775075.8984
     -1784.031       -1390.154
 -25847684.494 9 -20118060.36848  19738866.983    19738869.1484   19738875.9404
      3642.181        2838.063
   5828624.312 8   4541587.31046  22605919.751    22605921.4524   22605930.3954
     -1218.991        -949.863
 -23766014.411 9 -18499205.19848  19996501.088    19996502.8204   19996510.2084
      3920.226        3054.722
  -7960783.370 9  -6196148.77648  19599440.432    19599442.0874   19599448.8504
      -346.201        -269.767
 -15185881.423 9 -11816116.77249  19001963.936    19001965.8684   19001972.3114
      -514.891        -401.214
 96 11  4 18 59 29.9930000  0  8 29 31  3 25 23 15 21  1            -0.006623603
  -7302687.963 9  -5660211.16846  22604846.762    22604849.3584   22604858.4634
      4089.173        3186.369
 -11200154.368 9  -8709641.29546  21907223.536    21907225.2824   21907233.3084
     -1114.533        -868.467
   5936911.458 8   4639512.44845  22785235.298    22785237.6124   22785247.4004
     -1779.797       -1386.855
 -25956784.942 9 -20203073.67248  19718105.835    19718108.0134   19718114.7844
      3630.711        2829.125
   5865216.971 8   4570100.97046  22612883.195    22612884.8684   22612893.8164
     -1221.337        -951.691
 -23883445.966 9 -18590710.29248  19974154.630    19974156.3304   19974163.6794
      3908.072        3045.251
  -7950286.677 9  -6187969.55548  19601437.944    19601439.5874   19601446.3004
      -354.013        -275.854
 -15170320.892 9 -11803991.69249  19004924.980    19004926.9474   19004933.3664
      -523.050        -407.571
 96 11  4 18 59 59.9930000  0  8 29 31  3 25 23 15 21  1            -0.006646807
  -7425280.862 8  -5755737.99946  22581518.312    22581520.5864   22581529.7694
      4083.887        3182.250
 -11166628.712 9  -8683517.45147  21913603.291    21913605.0894   21913613.0784
     -1120.702        -873.274
   5990249.474 8   4681074.40445  22795385.294    22795387.7304   22795397.4014
     -1776.001       -1383.897
 -26065534.797 9 -20287813.78848  19697411.404    19697413.5904   19697420.3514
      3619.159        2820.124
   5901910.529 8   4598693.30746  22619865.646    22619867.5044   22619876.4564
     -1224.834        -954.416
 -24000498.440 9 -18681919.99548  19951880.288    19951881.9954   19951889.3094
      3895.427        3035.398
  -7939543.844 9  -6179598.54548  19603482.296    19603483.9194   19603490.6324
      -362.163        -282.205
 -15154487.664 9 -11791654.11449  19007937.958    19007939.9204   19007946.3714
      -532.536        -414.963
 96 11  4 19  0 29.9930000  0  8 29 31  3 25 23 15 21  1            -0.006670039
  -7547723.690 8  -5851147.87746  22558218.321    22558220.4924   22558229.6204
      4079.438        3178.783
 -11132908.444 9  -8657241.96847  21920020.120    21920021.8264   21920029.8294
     -1127.012        -878.191
   6043468.278 8   4722543.49345  22805512.704    22805515.1354   22805524.6114
     -1771.603       -1380.470
 -26173935.413 9 -20372281.77748  19676783.450    19676785.6154   19676792.3884
      3607.839        2811.303
   5938705.112 8   4627364.31546  22626867.459    22626869.2434   22626878.3124
     -1227.728        -956.671
 -24117175.429 9 -18772837.11748  19929677.414    19929679.0934   19929686.3784
      3883.435        3026.053
  -7928557.453 9  -6171037.75548  19605573.006    19605574.5904   19605581.2994
      -369.899        -288.233
 -15138372.814 9 -11779097.09849  19011004.550    19011006.4534   19011012.9354
      -541.288        -421.783
 96 11  4 19  0 59.9930000  0  9 29 31  3 14 25 23 15 21  1         -0.006693281
  -7670005.301 9  -5946432.12746  22534948.675    22534950.9144   22534959.9784
      4073.156        3173.888
 -11098964.189 9  -8630791.93646  21926479.634    21926481.2324   21926489.2064
     -1135.742        -884.994
   6096590.315 8   4763937.10745  22815621.359    22815623.8104   22815633.6214
     -1769.537       -1378.860
  -2188731.52019  -1680295.07756  23261306.030    23261307.7505   23261317.7055
      3990.991        3109.863
 -26281963.251 9 -20456459.28548  19656226.452    19656228.5704   19656235.3264
      3594.278        2800.736
   5975626.954 8   4656134.48646  22633893.580    22633895.3814   22633904.4224
     -1233.374        -961.071
 -24233463.198 9 -18863450.94948  19907548.625    19907550.2634   19907557.5324
      3869.446        3015.153
  -7917307.866 9  -6162271.87648  19607713.741    19607715.3474   19607722.0684
      -379.645        -295.827
 -15121965.232 9 -11766311.97649  19014126.865    19014128.7044   19014135.2044
      -552.129        -430.230
